.

MPMG - Transparência

Contracheque - Remuneração de todos os servidores ativos - Pós Resolução CNMP 200/2019

Período: 2023 - Outubro

Ordem Matrícula Nome Cargo Efetivo Lotação Rendimentos Descontos Rendimento Líquido Total *14 Data de Referência
Remuneração básica Remuneração eventual ou Temporária Outras Remunerações Temporárias *7 Verbas Indenizatórias *8 Total de Rendimentos Brutos *9 Obrigatórios Legais Outros Descontos Eventuais Total de descontos *13
Remuneração do Cargo Efetivo *1 Outras Verbas Remuneratórias *2 Função de Confiança ou Cargo em Comissão *3 Gratificação Natalina *4 Férias 1/3 Constitucional *5 Abono de Permanência *6 Contribuição Previdenciária *10 Imposto de Renda *11 Retenção por Teto Constitucional *12
1 498900 ABDON MARCIO BARBOSA DA SILVA OFICIAL DO MP ABRE CAMPO - COMARCA; ABRE CAMPO-PJ-01PJ 7.506,70 1.501,34 0,00 0,00 0,00 0,00 0,00 2.105,00 11.113,04 1.222,23 1.204,00 0,00 0,00 2.426,23 8.686,81 31/10/2023
2 177800 ADALBERTO MENEZES FARIA SAMORA OFICIAL DO MP BELO HORIZONTE - COMARCA; DIRET DE PLANOS PROJETOS E PROGRAMAS INST 22.191,68 8.876,67 0,00 0,00 0,00 0,00 8.524,27 3.499,73 43.092,35 5.786,42 7.741,40 0,00 0,00 13.527,82 29.564,53 31/10/2023
3 306400 ADALBERTO MOREIRA GONCALVES ANALISTA DO MP BELO HORIZONTE - COMARCA; BH-24PJ JUIZO REG BARREIRO-SECRETARIA 23.070,31 6.921,09 0,00 0,00 0,00 0,00 6.324,22 3.353,34 39.668,96 5.275,71 7.108,34 0,00 0,00 12.384,05 27.284,91 31/10/2023
4 179300 ADENISE AUXILIADORA SOUZA SAD OFICIAL DO MP BARBACENA - COMARCA; BARBACENA-PJ-06PJ 21.346,53 8.538,61 0,00 0,00 1.036,60 0,00 6.918,05 2.726,96 40.566,75 5.660,34 7.844,44 0,00 0,00 13.504,78 27.061,97 31/10/2023
5 272200 ADILSON BATISTA ORNELAS OFICIAL DO MP LAVRAS - COMARCA; LAVRAS-PJ-SECRETARIA 7.506,70 2.252,01 0,00 0,00 0,00 0,00 0,00 2.105,00 11.863,71 1.342,34 1.377,40 0,00 0,00 2.719,74 9.143,97 31/10/2023
6 380100 ADILSON GONCALVES DE MELO JUNIOR ANALISTA DO MP ARAXÁ - COMARCA; ARAXA-PJ-05PJ 17.005,40 5.101,62 0,00 0,00 0,00 0,00 7.693,05 4.235,80 34.035,87 4.311,93 5.612,62 0,00 0,00 9.924,55 24.111,32 31/10/2023
7 148800 ADILSON JANUARIO OFICIAL DO MP BELO HORIZONTE - COMARCA; BH-22PJ PES COM DEF E IDOSOS-SECRETARIA 23.070,31 18.456,25 0,00 0,00 0,00 5.795,34 0,00 2.105,00 49.426,90 5.795,34 9.400,14 3.936,60 0,00 19.132,08 30.294,82 31/10/2023
8 322601 ADMILSON SILVEIRA ANALISTA DO MP SAO JOAO DO PARAISO COMARCA; SAO JOAO DO PARAISO-PJ-UNPJ 12.343,61 2.468,72 0,00 0,00 0,00 0,00 0,00 3.055,00 17.867,33 2.150,92 2.596,93 0,00 0,00 4.747,85 13.119,48 31/10/2023
9 333700 ADRIANA ABRITTA TEIXEIRA OFICIAL DO MP BELO HORIZONTE - COMARCA; DIRET DE PESSOAL DO MINISTERIO PUBLICO - DPMP 12.343,61 3.703,08 0,00 0,00 0,00 0,00 0,00 2.105,00 18.151,69 2.348,42 2.882,06 0,00 0,00 5.230,48 12.921,21 31/10/2023
10 468500 ADRIANA APARECIDA FIRMINO ANALISTA DO MP CARATINGA - COMARCA; CARATINGA-PJ-04PJ 12.343,61 2.468,72 0,00 0,00 0,00 0,00 0,00 2.105,00 16.917,33 2.150,92 2.544,79 0,00 0,00 4.695,71 12.221,62 31/10/2023
11 326100 ADRIANA AUGUSTA AMARAL BELO OFICIAL DO MP BARBACENA - COMARCA; BARBACENA-PJ-05PJ 12.343,61 3.703,08 0,00 0,00 0,00 0,00 0,00 2.105,00 18.151,69 2.348,42 2.777,79 0,00 0,00 5.126,21 13.025,48 31/10/2023
12 605700 ADRIANA COSTA LIRA OFICIAL DO MP BELO HORIZONTE - COMARCA; CAO-EDUCACAO 7.506,70 750,67 4.020,58 0,00 0,00 0,00 0,00 2.105,00 14.382,95 1.102,13 2.188,39 0,00 0,00 3.290,52 11.092,43 31/10/2023
13 541100 ADRIANA CRISTINA DE OLIVEIRA OFICIAL DO MP EXTREMA - COMARCA; EXTREMA-PJ-01PJ 7.506,70 1.501,34 0,00 0,00 0,00 0,00 0,00 2.105,00 11.113,04 1.222,23 1.204,00 0,00 0,00 2.426,23 8.686,81 31/10/2023
14 254800 ADRIANA DAS GRACAS FERNANDES ANALISTA DO MP UBERABA - COMARCA; UBERABA-PJ-07PJ 23.070,31 18.456,25 0,00 0,00 0,00 0,00 0,00 2.105,00 43.631,56 5.795,34 7.806,42 3.936,60 0,00 17.538,36 26.093,20 31/10/2023
15 217400 ADRIANA DE CARVALHO CATAO BRAGA ASSESSOR ADMINISTRATIVO III BELO HORIZONTE - COMARCA; DIV FISCAL ADM CONT TERCEIRIZACAO 0,00 4.343,56 10.858,90 0,00 0,00 0,00 0,00 2.105,00 17.307,46 876,95 3.467,06 0,00 0,00 4.344,01 12.963,45 31/10/2023
16 434600 ADRIANA FERREIRA DA SILVA ANALISTA DO MP BELO HORIZONTE - COMARCA; BH-14PJ DEFESA CONSUMIDOR-GAB 112PJ 18.130,77 3.626,15 0,00 0,00 759,80 0,00 9.753,56 2.105,00 34.375,28 4.613,34 6.360,99 0,00 0,00 10.974,33 23.400,95 31/10/2023
17 499800 ADRIANA FERREIRA TIAGO OFICIAL DO MP SALINAS - COMARCA; SALINAS-PJ-02PJ 10.516,49 2.103,30 0,00 0,00 0,00 0,00 0,00 3.055,00 15.674,79 1.800,11 1.986,18 0,00 0,00 3.786,29 11.888,50 31/10/2023
18 543400 ADRIANA GUIMARAES NUNES DE PAULA ANALISTA DO MP PATROCÍNIO - COMARCA; PATROCINIO-PJ-01PJ 12.343,61 2.468,72 0,00 0,00 0,00 0,00 0,00 3.055,00 17.867,33 982,16 2.715,54 0,00 0,00 3.697,70 14.169,63 31/10/2023
19 471500 ADRIANA HORTA DE CARVALHO RODRIGUES DE SOUSA ANALISTA DO MP BELO HORIZONTE - COMARCA; GRUPO ESP PROM JUST DEF PROB ADM PAT PUB 12.343,61 2.468,72 0,00 0,00 0,00 0,00 0,00 2.105,00 16.917,33 2.150,92 2.544,79 0,00 0,00 4.695,71 12.221,62 31/10/2023
20 86400 ADRIANA MOREIRA CALDEIRA BRANT OFICIAL DO MP BELO HORIZONTE - COMARCA; BH-21PJ TUTELA FUNDACOES-SECRETARIA 22.191,68 17.753,35 0,00 0,00 0,00 6.596,57 7.105,82 2.105,00 55.752,42 6.395,35 10.483,55 4.008,77 0,00 20.887,67 34.864,75 31/10/2023
21 480700 ADRIANA MOREIRA DE AVELLAR CEZILIO OFICIAL DO MP BELO HORIZONTE - COMARCA; BH-12PJ JUIZO CRIMINAL-SECRETARIA 7.506,70 1.501,34 4.020,58 0,00 0,00 0,00 670,00 2.105,00 15.803,62 1.222,23 2.257,52 0,00 0,00 3.479,75 12.323,87 31/10/2023
22 326000 ADRIANA PEREIRA CARNEIRO RESENDE OFICIAL DO MP BELO HORIZONTE - COMARCA; BH-25PJ DEFESA DA EDUCACAO-SECRETARIA 12.343,61 3.703,08 0,00 0,00 0,00 0,00 0,00 2.105,00 18.151,69 2.348,42 2.882,06 0,00 0,00 5.230,48 12.921,21 31/10/2023
23 502200 ADRIANA PETRUCCI DAVINA OFICIAL DO MP PATROCÍNIO - COMARCA; PATROCINIO-PJ-01PJ 10.858,90 2.171,78 0,00 0,00 0,00 0,00 0,00 3.055,00 16.085,68 1.865,86 2.185,37 0,00 0,00 4.051,23 12.034,45 31/10/2023
24 201900 ADRIANA REIS PIMENTA OFICIAL DO MP TEÓFILO OTONI - COMARCA; TEOFILO OTONI-PJ-03PJ 21.346,53 10.673,27 0,00 0,00 1.036,60 0,00 7.483,00 2.105,00 42.644,40 6.101,40 8.585,49 0,00 0,00 14.686,89 27.957,51 31/10/2023
25 278700 ADRIANA RODRIGUES PINTO COELHO AMARAL ANALISTA DO MP BELO HORIZONTE - COMARCA; CGMP-DIR ESTAGIO PROBATORIO E ORIENT 23.070,31 9.228,12 0,00 0,00 0,00 0,00 8.857,17 2.675,19 43.830,79 5.317,82 8.430,29 0,00 0,00 13.748,11 30.082,68 31/10/2023
26 468000 ADRIANA SANTOS DE SANTANA MOREIRA ANALISTA DO MP GOVERNADOR VALADARES - COMARCA; GAECO REGIONAL DE GOVERNADOR VALADARES 12.343,61 4.937,44 0,00 0,00 0,00 0,00 0,00 2.105,00 19.386,05 2.545,92 3.062,93 0,00 0,00 5.608,85 13.777,20 31/10/2023
27 194700 ADRIANA TSUKIDE OFICIAL DO MP UBERABA - COMARCA; COORD REG BACIAS PARANAIBA BAIXO RIO GRANDE 21.346,53 8.538,61 0,00 0,00 1.036,60 0,00 5.363,48 2.105,00 38.390,22 5.420,73 7.550,64 0,00 0,00 12.971,37 25.418,85 31/10/2023
28 465500 ADRIANO CASSIANO MATOS ANALISTA DO MP ARAXÁ - COMARCA; ARAXA-PJ-02PJ 12.343,61 2.468,72 0,00 0,00 0,00 0,00 0,00 2.105,00 16.917,33 2.150,92 2.596,93 0,00 0,00 4.747,85 12.169,48 31/10/2023
29 500500 ADRIANO DE ALMEIDA SILVA OFICIAL DO MP UBERABA - COMARCA; UBERABA-PJ-12PJ 10.858,90 2.171,78 0,00 0,00 0,00 0,00 0,00 3.055,00 16.085,68 1.865,86 1.640,87 0,00 0,00 3.506,73 12.578,95 31/10/2023
30 187200 ADRIANO DE FREITAS MARON OFICIAL DO MP PONTE NOVA - COMARCA; PONTE NOVA-PJ-03PJ 18.130,77 16.317,70 0,00 597,33 0,00 9.348,52 2.400,60 2.105,00 48.899,92 5.676,80 9.248,53 0,00 0,00 14.925,33 33.974,59 31/10/2023
31 477900 ADRIANO FERREIRA DE ALMEIDA OFICIAL DO MP TAIOBEIRAS - COMARCA; TAIOBEIRAS-PJ-UNPJ 10.858,90 3.257,67 0,00 0,00 0,00 0,00 0,00 2.105,00 16.221,57 2.039,60 2.331,93 0,00 0,00 4.371,53 11.850,04 31/10/2023
32 269101 ADRIANO PEREIRA SILVA ANALISTA DO MP UBERABA - COMARCA; UBERABA-PJ-02PJ 12.343,61 3.703,08 0,00 0,00 0,00 0,00 0,00 2.105,00 18.151,69 2.348,42 2.725,65 0,00 0,00 5.074,07 13.077,62 31/10/2023
33 414200 ADRIANO RODRIGUES FERNANDES ANALISTA DO MP CARANDAÍ - COMARCA; CARANDAI-PJ-UNPJ 12.343,61 2.468,72 0,00 0,00 0,00 0,00 0,00 2.105,00 16.917,33 2.150,92 2.440,52 0,00 0,00 4.591,44 12.325,89 31/10/2023
34 536700 ADRIELLE COSTA MARIA MOURAO FIGUEIREDO OFICIAL DO MP SERRO - COMARCA; SERRO-PJ-SECRETARIA 7.506,70 1.501,34 0,00 0,00 0,00 0,00 330,30 6.658,22 15.996,56 1.222,23 1.256,14 0,00 0,00 2.478,37 13.518,19 31/10/2023
35 514300 ADRIENE DAMASCENO BRAGA ANALISTA DO MP ALFENAS - COMARCA; ALFENAS-PJ-03PJ 12.343,61 2.468,72 0,00 0,00 0,00 0,00 0,00 2.105,00 16.917,33 2.150,92 2.596,93 0,00 0,00 4.747,85 12.169,48 31/10/2023
36 254600 ADRIENE DOMINGUES COSTA ANALISTA DO MP BELO HORIZONTE - COMARCA; SUPER DE GESTAO DE PESSOAS-LOTACAO TEMPORARIA 23.070,31 9.228,12 0,00 0,00 0,00 0,00 0,00 0,00 32.298,43 4.948,70 6.636,22 0,00 0,00 11.584,92 20.713,51 31/10/2023
37 252001 ADRIENE GOMES BARRETO ANALISTA DO MP BELO HORIZONTE - COMARCA; BH-19PJ SAUDE-SECRETARIA 047PJ 20.533,67 10.266,84 0,00 0,00 980,68 0,00 12.021,35 3.927,68 47.730,22 6.324,07 8.891,60 0,00 0,00 15.215,67 32.514,55 31/10/2023
38 714800 ADSON GUSTAVO DE OLIVEIRA ASSESSOR PROCURADOR JUSTICA BELO HORIZONTE - COMARCA; GABINETE DE PROCURADOR DE JUSTIÇA - SALA 803 0,00 0,00 8.810,89 0,00 0,00 0,00 0,00 2.105,00 10.915,89 876,95 1.709,37 0,00 0,00 2.586,32 8.329,57 31/10/2023
39 724600 AECIO BRAS SILVA JUNIOR ASSESSOR PROMOTOR JUSTICA BAMBUÍ - COMARCA; BAMBUI-PJ-UNPJ 0,00 0,00 8.810,89 0,00 0,00 0,00 0,00 2.105,00 10.915,89 876,95 1.709,37 0,00 0,00 2.586,32 8.329,57 31/10/2023
40 302500 AGENOR JOSE DA SILVA JUNIOR ANALISTA DO MP JUIZ DE FORA - COMARCA; JUIZ DE FORA-PJ-07PJ 23.070,31 6.921,09 0,00 0,00 0,00 0,00 6.324,22 4.303,34 40.618,96 5.275,71 6.951,93 0,00 0,00 12.227,64 28.391,32 31/10/2023
41 357500 AILSON WAGNER DE ALENCAR SILVA OFICIAL DO MP BELO HORIZONTE - COMARCA; BH-12PJ JUIZO CRIMINAL-SECRETARIA 15.447,01 6.178,80 0,00 0,00 0,00 0,00 5.922,07 3.555,04 31.102,92 3.957,79 5.049,18 0,00 0,00 9.006,97 22.095,95 31/10/2023
42 366400 AILTON ALEXSSANDRO ALVES OFICIAL DO MP PARÁ DE MINAS - COMARCA; PARA DE MINAS-PJ-05PJ 12.343,61 4.937,44 0,00 0,00 0,00 0,00 0,00 2.105,00 19.386,05 2.545,92 3.167,20 0,00 0,00 5.713,12 13.672,93 31/10/2023
43 318900 AILTON DE CASTRO RIBEIRO JUNIOR OFICIAL DO MP CANDEIAS - COMARCA; CANDEIAS-PJ-UNPJ 12.343,61 3.703,08 0,00 0,00 0,00 0,00 0,00 2.105,00 18.151,69 2.348,42 2.725,65 0,00 0,00 5.074,07 13.077,62 31/10/2023
44 464400 ALAN MONTEIRO GASPAR ANALISTA DO MP SETE LAGOAS - COMARCA; SETE LAGOAS-PJ-08PJ 12.343,61 2.468,72 0,00 0,00 0,00 0,00 0,00 2.105,00 16.917,33 2.150,92 2.596,93 0,00 0,00 4.747,85 12.169,48 31/10/2023
45 492000 ALANA DE CASTRO FREITAS OFICIAL DO MP BELO HORIZONTE - COMARCA; SECRETARIA DO PROCON-MG 8.264,07 1.652,81 0,00 0,00 3.305,63 0,00 545,43 8.055,13 21.823,07 1.367,65 2.375,13 0,00 0,00 3.742,78 18.080,29 31/10/2023
46 306700 ALANA MARCIA DE OLIVEIRA OFICIAL DO MP BELO HORIZONTE - COMARCA; DIRETORIA DE ADMINISTRACAO FINANCEIRA 12.343,61 3.703,08 0,00 0,00 0,00 0,00 0,00 2.105,00 18.151,69 2.348,42 2.882,06 0,00 0,00 5.230,48 12.921,21 31/10/2023
47 324500 ALANMAR COUTINHO COSTA OFICIAL DO MP LEOPOLDINA - COMARCA; LEOPOLDINA-PJ-02PJ 12.343,61 3.703,08 0,00 0,00 0,00 0,00 0,00 2.105,00 18.151,69 2.348,42 2.777,79 0,00 0,00 5.126,21 13.025,48 31/10/2023
48 407300 ALBERTO LUIZ SOARES DE OLIVEIRA ANALISTA DO MP BELO HORIZONTE - COMARCA; DIRETORIA DE PROJETOS DE EDIFICACOES 18.130,77 5.439,23 0,00 0,00 8.475,27 0,00 9.876,16 2.105,00 44.026,43 4.927,20 8.935,89 0,00 0,00 13.863,09 30.163,34 31/10/2023
49 118200 ALBERTO PEREIRA DA COSTA OFICIAL DO MP DORES DO INDAIÁ - COMARCA; DORES DO INDAIA-PJ-UNPJ 23.070,31 20.763,28 0,00 0,00 0,00 5.795,34 0,00 2.105,00 51.733,93 5.795,34 9.400,14 6.243,63 0,00 21.439,11 30.294,82 31/10/2023
50 282400 ALCILENE MARISE DE ARAUJO ANALISTA DO MP BELO HORIZONTE - COMARCA; BH-23PJ INF-FISC MED SOC FEC 23.070,31 6.921,09 0,00 0,00 0,00 0,00 5.203,58 2.105,00 37.299,98 5.096,76 6.797,84 0,00 0,00 11.894,60 25.405,38 31/10/2023
51 396400 ALCIONE DE FREITAS E SILVA ANALISTA DO MP BELO HORIZONTE - COMARCA; ASSESS JUR DO CONS SUPERIOR DO MINISTERIO PUB 20.533,67 10.266,84 0,00 0,00 0,00 0,00 2.053,37 2.105,00 34.958,88 5.037,57 6.764,53 0,00 0,00 11.802,10 23.156,78 31/10/2023
52 657400 ALCIONE MARIA FERREIRA ASSESSOR PROCURADOR JUSTICA BELO HORIZONTE - COMARCA; GABINETE DE PROCURADOR DE JUSTIÇA - SALA 610 0,00 0,00 8.810,89 0,00 0,00 0,00 0,00 3.055,00 11.865,89 876,95 1.709,37 0,00 0,00 2.586,32 9.279,57 31/10/2023
53 161600 ALCIONE NERY SOUZA ASSESSOR ADMINISTRATIVO III BELO HORIZONTE - COMARCA; BH-18PJ DIREITOS HUMANOS-SECRETARIA 0,00 5.429,45 10.858,90 0,00 0,00 0,00 0,00 2.105,00 18.393,35 876,95 3.765,68 0,00 0,00 4.642,63 13.750,72 31/10/2023
54 376000 ALDA GOMES LANA OFICIAL DO MP BELO HORIZONTE - COMARCA; BH-18PJ VIOLENCIA DOMESTICA-SECRETARIA 12.343,61 3.703,08 0,00 0,00 0,00 0,00 0,00 2.105,00 18.151,69 2.348,42 2.829,93 0,00 0,00 5.178,35 12.973,34 31/10/2023
55 148000 ALDA MARTINS SIMOES OFICIAL DO MP BELO HORIZONTE - COMARCA; BH-23PJ CIVEL- FISC ENT AB POL 23.070,31 16.149,22 0,00 0,00 25,91 0,00 13.459,68 2.105,00 54.810,12 7.592,25 10.459,96 1.629,57 0,00 19.681,78 35.128,34 31/10/2023
56 318400 ALDO CREPALDI JUNIOR OFICIAL DO MP BELO HORIZONTE - COMARCA; DIVISAO DE MATERIAIS 12.343,61 3.703,08 0,00 0,00 0,00 0,00 0,00 2.105,00 18.151,69 2.348,42 2.829,93 0,00 0,00 5.178,35 12.973,34 31/10/2023
57 604500 ALENIZE APARECIDA RODRIGUES HENRIQUE OFICIAL DO MP RIO NOVO - COMARCA; RIO NOVO-PJ-SECRETARIA 7.506,70 750,67 0,00 0,00 0,00 0,00 0,00 2.105,00 10.362,37 1.102,13 1.082,73 0,00 0,00 2.184,86 8.177,51 31/10/2023
58 197900 ALESSA DE SOUSA E SILVA OFICIAL DO MP OLIVEIRA - COMARCA; OLIVEIRA-PJ-02PJ 22.191,68 8.876,67 0,00 0,00 0,00 0,00 8.332,06 8.318,67 47.719,08 5.699,21 7.615,50 0,00 0,00 13.314,71 34.404,37 31/10/2023
59 428500 ALESSANDRA ALVES DINIZ OFICIAL DO MP BELO HORIZONTE - COMARCA; CENTRAL DE APOIO TECNICO-SECRETARIA 10.858,90 5.429,45 0,00 0,00 0,00 0,00 0,00 2.105,00 18.393,35 2.387,08 2.937,89 0,00 0,00 5.324,97 13.068,38 31/10/2023
60 286801 ALESSANDRA BOTELHO JUNQUEIRA DE MENEZES ANALISTA DO MP PASSOS - COMARCA; PASSOS-PJ-05PJ 18.720,84 7.488,34 0,00 0,00 0,00 0,00 0,00 3.055,00 29.264,18 3.974,42 5.021,05 0,00 0,00 8.995,47 20.268,71 31/10/2023
61 307000 ALESSANDRA CRISTINA SANTOS MENDES ANALISTA DO MP BELO HORIZONTE - COMARCA; BH-18PJ VIOLENCIA DOMESTICA-SECRETARIA 21.346,53 6.403,96 0,00 0,00 962,56 0,00 13.315,59 3.260,07 45.288,71 6.069,14 8.466,43 0,00 0,00 14.535,57 30.753,14 31/10/2023
62 264400 ALESSANDRA DE SOUZA SANTOS ANALISTA DO MP BELO HORIZONTE - COMARCA; SECRETARIA DE ASSUNTOS INTERNACIONAIS 23.070,31 11.535,16 0,00 0,00 1.164,66 0,00 14.058,81 2.105,00 51.933,94 7.234,52 10.256,66 0,00 0,00 17.491,18 34.442,76 31/10/2023
63 441500 ALESSANDRA DRUMMOND DE FIGUEIREDO ROSSI ANALISTA DO MP BELO HORIZONTE - COMARCA; DIRETORIA DE PROJETOS DE EDIFICACOES 12.343,61 2.468,72 0,00 0,00 0,00 0,00 0,00 2.105,00 16.917,33 2.150,92 2.596,93 0,00 0,00 4.747,85 12.169,48 31/10/2023
64 524000 ALESSANDRA LUCIOLI DE BARROS ANALISTA DO MP BELO HORIZONTE - COMARCA; BH-19PJ SAUDE--SECRETARIA 12.343,61 2.468,72 0,00 0,00 0,00 0,00 0,00 2.105,00 16.917,33 2.150,92 2.544,79 0,00 0,00 4.695,71 12.221,62 31/10/2023
65 479900 ALESSANDRA MARA ANDRADE DE FARIA OFICIAL DO MP UBERABA - COMARCA; UBERABA-PJ-09PJ 10.858,90 2.171,78 0,00 0,00 0,00 0,00 0,00 2.105,00 15.135,68 1.865,86 2.185,37 0,00 0,00 4.051,23 11.084,45 31/10/2023
66 226700 ALESSANDRA MARA VASCONCELOS REZENDE OFICIAL DO MP CONSELHEIRO LAFAIETE - COMARCA; CONSELHEIRO LAFAIETE-PJ-07PJ 18.130,77 7.252,31 0,00 0,00 886,43 0,00 12.281,93 4.019,69 42.571,13 5.544,19 7.739,73 0,00 0,00 13.283,92 29.287,21 31/10/2023
67 196500 ALESSANDRA MARIA RIBEIRO LUCIANO OFICIAL DO MP RIO PARANAÍBA - COMARCA; RIO PARANAIBA-PJ-UNPJ 22.191,68 11.095,84 0,00 0,00 1.110,64 0,00 15.650,37 2.105,00 52.153,53 7.302,70 10.235,96 0,00 0,00 17.538,66 34.614,87 31/10/2023
68 651700 ALESSANDRA PROFIRIO SOUZA OFICIAL DO MP NOVA ERA - COMARCA; NOVA ERA-PJ-UNPJ 6.603,76 660,38 0,00 0,00 0,00 0,00 0,00 2.105,00 9.369,14 944,43 800,82 0,00 0,00 1.745,25 7.623,89 31/10/2023
69 384900 ALESSANDRA RODRIGUES ANALISTA DO MP VISCONDE DO RIO BRANCO - COMARCA; VISCONDE DO RIO BRANCO-PJ-03PJ 20.533,67 6.160,10 0,00 0,00 0,00 0,00 0,00 3.055,00 29.748,77 4.051,95 5.237,27 0,00 0,00 9.289,22 20.459,55 31/10/2023
70 390000 ALESSANDRA SPADANO MASSARA VASCONCELOS OFICIAL DO MP BETIM - COMARCA; BETIM-PJ-10PJ 12.343,61 3.703,08 0,00 0,00 0,00 0,00 0,00 2.105,00 18.151,69 2.348,42 2.882,06 0,00 0,00 5.230,48 12.921,21 31/10/2023
71 426500 ALESSANDRO CAMPOS DE PAIVA ANALISTA DO MP BELO HORIZONTE - COMARCA; DIR CRIACAO E MIDIAS 18.720,84 3.744,17 0,00 0,00 0,00 0,00 0,00 2.105,00 24.570,01 3.375,35 4.364,70 0,00 0,00 7.740,05 16.829,96 31/10/2023
72 623400 ALESSANDRO DE OLIVEIRA REZENDE ANALISTA DO MP BELO HORIZONTE - COMARCA; DIRET DE INFORMACAO E CONHECIMENTO-DINC/CEAF 12.343,61 1.234,36 0,00 0,00 0,00 0,00 0,00 2.105,00 15.682,97 1.953,42 2.311,79 0,00 0,00 4.265,21 11.417,76 31/10/2023
73 420600 ALESSANDRO SILVA OFICIAL DO MP VISCONDE DO RIO BRANCO - COMARCA; VISCONDE DO RIO BRANCO-PJ-02PJ 11.954,43 4.781,77 0,00 0,00 0,00 0,00 472,61 2.105,00 19.313,81 2.458,74 2.557,47 0,00 0,00 5.016,21 14.297,60 31/10/2023
74 375301 ALETHEIA PATRICIA ASSIS MORAIS MOREIRA ANALISTA DO MP ITABIRA - COMARCA; ITABIRA-PJ-02PJ 12.343,61 3.703,08 0,00 0,00 0,00 0,00 0,00 3.055,00 19.101,69 2.348,42 2.829,93 0,00 0,00 5.178,35 13.923,34 31/10/2023
75 382300 ALEX CARVALHO LIMA ANALISTA DO MP UBERLÂNDIA - COMARCA; UBERLANDIA-PJ-14PJ 20.533,67 6.160,10 0,00 0,00 0,00 0,00 0,00 3.055,00 29.748,77 4.051,95 5.341,54 0,00 0,00 9.393,49 20.355,28 31/10/2023
76 195201 ALEX DE CASTRO PEREIRA ANALISTA DO MP UBERABA - COMARCA; UBERABA-PJ-09PJ 23.070,31 9.228,12 0,00 0,00 0,00 0,00 7.870,66 3.502,60 43.671,69 5.854,06 7.943,33 0,00 0,00 13.797,39 29.874,30 31/10/2023
77 358900 ALEX DE PAULA LANZA ASSESSOR ADMINISTRATIVO IV BELO HORIZONTE - COMARCA; DIR CONTEUDO JORNALISTICO 0,00 0,00 14.488,22 0,00 0,00 0,00 0,00 3.055,00 17.543,22 876,95 3.270,64 0,00 0,00 4.147,59 13.395,63 31/10/2023
78 178400 ALEX RODRIGO SALDANHA GUIMARAES OFICIAL DO MP BELO HORIZONTE - COMARCA; DIRETORIA DE SISTEMAS DE INFORMACAO 7.506,70 3.002,68 0,00 0,00 0,00 0,00 0,00 2.105,00 12.614,38 1.462,45 1.602,95 0,00 0,00 3.065,40 9.548,98 31/10/2023
79 413500 ALEX VILELA OLIVEIRA ANALISTA DO MP GOVERNADOR VALADARES - COMARCA; COORD REG PJ DEF EDU DIR CRIANCA ADOL RIODOCE 18.720,84 3.744,17 0,00 0,00 0,00 0,00 0,00 2.105,00 24.570,01 3.375,35 4.364,70 0,00 0,00 7.740,05 16.829,96 31/10/2023
80 264300 ALEXANDRA FATIMA SARAIVA SOARES ANALISTA DO MP BELO HORIZONTE - COMARCA; CENTRAL DE APOIO TECN-SETOR DE MEIO AMBIENTE 23.070,31 9.228,12 0,00 0,00 0,00 0,00 0,00 2.105,00 34.403,43 4.948,70 6.636,22 0,00 0,00 11.584,92 22.818,51 31/10/2023
81 488000 ALEXANDRA LARA PAIS DE CARVALHO ANALISTA DO MP SABARÁ - COMARCA; SABARA-PJ-04PJ 12.343,61 2.468,72 0,00 0,00 0,00 0,00 0,00 2.105,00 16.917,33 2.150,92 2.440,52 0,00 0,00 4.591,44 12.325,89 31/10/2023
82 256300 ALEXANDRA SANTOS GOMES OFICIAL DO MP BELO HORIZONTE - COMARCA; DIRETORIA GESTAO COMPRAS LICITACOES 12.343,61 4.937,44 0,00 0,00 0,00 0,00 0,00 2.105,00 19.386,05 2.545,92 3.167,20 0,00 0,00 5.713,12 13.672,93 31/10/2023
83 403300 ALEXANDRE AUGUSTO RODRIGUES ANALISTA DO MP ÁGUAS FORMOSAS - COMARCA; AGUAS FORMOSAS-PJ-UNPJ 12.343,61 3.703,08 0,00 0,00 0,00 0,00 0,00 4.005,00 20.051,69 2.348,42 2.882,06 0,00 0,00 5.230,48 14.821,21 31/10/2023
84 640900 ALEXANDRE BARBOSA MASCARENHAS ANALISTA DO MP BETIM - COMARCA; BETIM-PJ-02PJ 9.699,77 969,98 0,00 0,00 0,00 0,00 0,00 2.105,00 12.774,75 982,16 1.452,90 0,00 0,00 2.435,06 10.339,69 31/10/2023
85 311700 ALEXANDRE BARCELOS RESENDE OFICIAL DO MP BELO HORIZONTE - COMARCA; BH-17PJ PATRIMONIO PUBLICO-SECRETARIA 11.212,54 3.363,76 0,00 0,00 0,00 0,00 0,00 3.055,00 17.631,30 2.113,16 2.542,40 0,00 0,00 4.655,56 12.975,74 31/10/2023
86 285600 ALEXANDRE CAMPOS DE OLIVEIRA OFICIAL DO MP UBERABA - COMARCA; COORD REG BACIAS PARANAIBA BAIXO RIO GRANDE 12.343,61 3.703,08 0,00 0,00 0,00 0,00 0,00 2.105,00 18.151,69 2.348,42 2.725,65 0,00 0,00 5.074,07 13.077,62 31/10/2023
87 509200 ALEXANDRE CAPUANO DE REZENDE ANALISTA DO MP BELO HORIZONTE - COMARCA; BH-07PJ 03 TRIBUNAL DO JURI-GAB 061PJ 12.343,61 2.468,72 0,00 0,00 0,00 0,00 0,00 2.105,00 16.917,33 2.150,92 2.544,79 0,00 0,00 4.695,71 12.221,62 31/10/2023
88 229400 ALEXANDRE CARLOS BOTREL SUPERINTENDENTE BELO HORIZONTE - COMARCA; SUPERINTENDENCIA DOS ORGAOS COLEGIADOS 28.013,39 11.205,36 0,00 0,00 0,00 0,00 0,00 2.105,00 41.323,75 3.974,42 8.359,31 1.628,79 0,00 13.962,52 27.361,23 31/10/2023
89 411900 ALEXANDRE CARVALHO SANTOS RIBEIRO ANALISTA DO MP OLIVEIRA - COMARCA; OLIVEIRA-PJ-02PJ 18.720,84 3.744,17 0,00 0,00 0,00 0,00 0,00 3.055,00 25.520,01 3.375,35 4.364,70 0,00 0,00 7.740,05 17.779,96 31/10/2023
90 641600 ALEXANDRE DA SILVA ASSUNCAO OFICIAL DO MP BELO HORIZONTE - COMARCA; SERVICO MEDICO-DEPTO PERIC MEDICA SAUDE OCUP 6.818,83 681,88 0,00 0,00 0,00 0,00 0,00 3.055,00 10.555,71 981,10 907,93 0,00 0,00 1.889,03 8.666,68 31/10/2023
91 201200 ALEXANDRE DE ALENCAR CORDEIRO OFICIAL DO MP ÁGUAS FORMOSAS - COMARCA; AGUAS FORMOSAS-PJ-UNPJ 7.506,70 5.254,69 0,00 0,00 0,00 0,00 0,00 2.105,00 14.866,39 1.822,77 2.123,16 0,00 0,00 3.945,93 10.920,46 31/10/2023
92 288200 ALEXANDRE DE VASCONCELOS COSTA KER ANALISTA DO MP BELO HORIZONTE - COMARCA; BH-03PJ EMPRESARIAL-SECRETARIA 23.070,31 6.921,09 0,00 0,00 0,00 0,00 6.324,22 3.353,34 39.668,96 5.275,71 7.056,20 0,00 0,00 12.331,91 27.337,05 31/10/2023
93 445000 ALEXANDRE DIOGENES OLIVEIRA ANALISTA DO MP SALINAS - COMARCA; SALINAS-PJ-02PJ 14.960,00 2.992,00 0,00 0,00 0,00 0,00 0,00 3.055,00 21.007,00 2.653,27 3.322,19 0,00 0,00 5.975,46 15.031,54 31/10/2023
94 463400 ALEXANDRE LEAL WINKELSTROTER ANALISTA DO MP TEÓFILO OTONI - COMARCA; TEOFILO OTONI-PJ-04PJ 12.343,61 3.209,34 0,00 0,00 0,00 0,00 0,00 2.105,00 17.657,95 2.269,42 2.768,01 0,00 0,00 5.037,43 12.620,52 31/10/2023
95 615700 ALEXANDRE LUIZ DE CASTRO MACIEL ANALISTA DO MP BELO HORIZONTE - COMARCA; BH-08PJ JUIZADO ESPECIAL-SECRETARIA 12.343,61 1.974,98 0,00 0,00 0,00 0,00 0,00 3.055,00 17.373,59 2.071,92 2.430,74 0,00 0,00 4.502,66 12.870,93 31/10/2023
96 356900 ALEXANDRE MOISES MENDONCA E ARAUJO OFICIAL DO MP UBERABA - COMARCA; UBERABA-PJ-13PJ 10.516,49 3.154,95 0,00 0,00 0,00 0,00 0,00 3.055,00 16.726,44 1.968,38 2.333,38 0,00 0,00 4.301,76 12.424,68 31/10/2023
97 633300 ALEXANDRE NONATO MARTINS OFICIAL DO MP IGARAPÉ - COMARCA; IGARAPE-PJ-02PJ 6.818,83 681,88 0,00 0,00 0,00 0,00 0,00 2.105,00 9.605,71 981,10 855,80 0,00 0,00 1.836,90 7.768,81 31/10/2023
98 469900 ALEXANDRE PEREIRA GUEDES ANALISTA DO MP CATAGUASES - COMARCA; CATAGUASES-PJ-03PJ 12.343,61 2.468,72 0,00 0,00 0,00 0,00 0,00 2.105,00 16.917,33 2.150,92 2.596,93 0,00 0,00 4.747,85 12.169,48 31/10/2023
99 208700 ALEXANDRE RESENDE FRAGA ANALISTA DO MP BELO HORIZONTE - COMARCA; BH-19PJ SAUDE-SECRETARIA 130PJ 23.070,31 9.228,12 0,00 0,00 0,00 0,00 0,00 2.105,00 34.403,43 4.948,70 6.479,80 0,00 0,00 11.428,50 22.974,93 31/10/2023
100 216401 ALEXANDRE RIBEIRO DE LIMA MAIORINO ANALISTA DO MP UBERABA - COMARCA; UBERABA-PJ-03PJ 23.070,31 9.228,12 0,00 0,00 18,05 0,00 12.333,17 4.121,54 48.771,19 6.561,93 8.918,15 0,00 0,00 15.480,08 33.291,11 31/10/2023
101 475100 ALEXANDRE TEOTONIO COSTA ANALISTA DO MP ARAGUARI - COMARCA; ARAGUARI-PJ-01PJ 12.343,61 2.468,72 0,00 0,00 0,00 0,00 0,00 2.105,00 16.917,33 2.150,92 2.492,65 0,00 0,00 4.643,57 12.273,76 31/10/2023
102 339000 ALEXANDRE VITOR CARDOSO OFICIAL DO MP BELO HORIZONTE - COMARCA; BH-23PJ INFRACIONAL-SEC EXP 7.506,70 2.252,01 0,00 0,00 0,00 0,00 0,00 2.105,00 11.863,71 1.342,34 1.273,13 0,00 0,00 2.615,47 9.248,24 31/10/2023
103 623100 ALEXSANDER BATISTA AGUIAR COORDENADOR II BELO HORIZONTE - COMARCA; DIRETORIA DE SUPORTE E MANUTENCAO 20.533,67 2.053,37 0,00 0,00 0,00 0,00 0,00 3.055,00 25.642,04 1.953,42 4.632,87 0,00 0,00 6.586,29 19.055,75 31/10/2023
104 513300 ALFSON MIRANDA BRAGA ANALISTA DO MP BELO HORIZONTE - COMARCA; BH-12PJ JUIZO CRIMINAL-GAB 087PJ 12.343,61 2.468,72 0,00 0,00 0,00 0,00 0,00 2.105,00 16.917,33 2.150,92 2.596,93 0,00 0,00 4.747,85 12.169,48 31/10/2023
105 618400 ALICE MAGALHAES MACEDO DE CARVALHO ANALISTA DO MP IPATINGA - COMARCA; IPATINGA-PJ-10PJ 12.343,61 1.234,36 0,00 0,00 0,00 0,00 0,00 3.055,00 16.632,97 1.953,42 2.311,79 0,00 0,00 4.265,21 12.367,76 31/10/2023
106 707000 ALICE MARIA RIBEIRO DINIZ ASSESSOR PROMOTOR JUSTICA BELO HORIZONTE - COMARCA; PROC JUST ATUACAO TRIBUNAIS SUPERIORES-GAB003 0,00 0,00 8.810,89 0,00 0,00 0,00 0,00 2.105,00 10.915,89 876,95 1.709,37 0,00 0,00 2.586,32 8.329,57 31/10/2023
107 471000 ALICE TITONELI MOREIRA ANALISTA DO MP MIRADOURO - COMARCA; MIRADOURO-PJ-UNPJ 12.343,61 2.468,72 0,00 0,00 0,00 0,00 0,00 3.055,00 17.867,33 2.150,92 2.492,65 0,00 0,00 4.643,57 13.223,76 31/10/2023
108 731600 ALICIA PAULA RODRIGUES DE LIMA ASSESSOR PROMOTOR JUSTICA TIROS - COMARCA; TIROS-PJ-UNPJ 0,00 0,00 8.810,89 0,00 2.936,96 0,00 0,00 2.105,00 13.852,85 876,95 2.517,04 0,00 0,00 3.393,99 10.458,86 31/10/2023
109 725800 ALINE ALBIERI FRANCISCO ASSESSOR PROMOTOR JUSTICA BELO HORIZONTE - COMARCA; CAO-ORDEM ECONOMICA E TRIBUTARIA-ASSESS TECN 0,00 0,00 8.810,89 0,00 0,00 0,00 0,00 2.105,00 10.915,89 876,95 1.709,37 0,00 0,00 2.586,32 8.329,57 31/10/2023
110 733200 ALINE APARECIDA DO PRADO TERRITO ASSESSOR ADMINISTRATIVO II BELO HORIZONTE - COMARCA; ESCRITORIO DE PROTECAO DE DADOS PESSOAIS 0,00 0,00 7.506,70 0,00 0,00 0,00 0,00 2.105,00 9.611,70 876,95 1.350,72 0,00 0,00 2.227,67 7.384,03 31/10/2023
111 622400 ALINE BALBINO PORTUGAL LOPES ANALISTA DO MP TRÊS PONTAS - COMARCA; TRES PONTAS-PJ-03PJ 12.343,61 1.234,36 0,00 0,00 0,00 0,00 0,00 3.055,00 16.632,97 1.953,42 2.311,79 0,00 0,00 4.265,21 12.367,76 31/10/2023
112 373000 ALINE BOTELHO RESENDE OFICIAL DO MP JUIZ DE FORA - COMARCA; JUIZ DE FORA-PJ-22PJ 12.343,61 3.703,08 0,00 0,00 0,00 0,00 0,00 2.105,00 18.151,69 2.348,42 2.882,06 0,00 0,00 5.230,48 12.921,21 31/10/2023
113 699800 ALINE CRISTINA DE OLIVEIRA AMARAL BARBOSA ASSESSOR PROCURADOR JUSTICA BELO HORIZONTE - COMARCA; GABINETE DE PROCURADOR DE JUSTIÇA - SALA 904 0,00 0,00 8.810,89 0,00 0,00 0,00 0,00 2.105,00 10.915,89 876,95 1.605,10 0,00 0,00 2.482,05 8.433,84 31/10/2023
114 407700 ALINE CRISTINA RODRIGUES PEREIRA COORDENADOR II BELO HORIZONTE - COMARCA; DIRETORIA DE PROJETOS DE EDIFICACOES 20.533,67 4.106,73 0,00 0,00 0,00 0,00 0,00 2.105,00 26.745,40 2.150,92 5.299,65 0,00 0,00 7.450,57 19.294,83 31/10/2023
115 193100 ALINE CRISTINA SENA OLIVEIRA OFICIAL DO MP UBERLÂNDIA - COMARCA; UBERLANDIA-PJ-03PJ 21.346,53 8.538,61 0,00 0,00 945,09 0,00 12.335,74 4.920,88 48.086,85 6.508,92 9.096,56 0,00 0,00 15.605,48 32.481,37 31/10/2023
116 554200 ALINE CRISTINA SILVA SOUZA OFICIAL DO MP TIROS - COMARCA; TIROS-PJ-UNPJ 7.506,70 1.501,34 0,00 0,00 0,00 0,00 0,00 2.105,00 11.113,04 1.222,23 1.256,14 0,00 0,00 2.478,37 8.634,67 31/10/2023
117 505500 ALINE DA CUNHA MARREIROS OLIVEIRA ANALISTA DO MP EUGENÓPOLIS - COMARCA; EUGENOPOLIS-PJ-UNPJ 12.343,61 2.468,72 0,00 0,00 0,00 0,00 0,00 4.005,00 18.817,33 2.150,92 2.544,79 0,00 0,00 4.695,71 14.121,62 31/10/2023
118 433500 ALINE DE MELO QUEIROZ OFICIAL DO MP BELO HORIZONTE - COMARCA; ASSESSORIA JURIDICA DO PROCON-MG 12.343,61 2.468,72 4.020,58 0,00 0,00 0,00 0,00 3.055,00 21.887,91 2.150,92 3.702,59 0,00 0,00 5.853,51 16.034,40 31/10/2023
119 691100 ALINE DE MELO SOUZA ASSESSOR PROCURADOR JUSTICA BELO HORIZONTE - COMARCA; GABINETE DE PROCURADOR DE JUSTIÇA - SALA 401 0,00 0,00 8.810,89 0,00 0,00 0,00 0,00 2.105,00 10.915,89 876,95 1.709,37 0,00 0,00 2.586,32 8.329,57 31/10/2023
120 542700 ALINE DE SOUSA ALBINO ANALISTA DO MP CONTAGEM - COMARCA; CONTAGEM-PJ-09PJ 12.343,61 2.468,72 0,00 0,00 0,00 0,00 0,00 2.105,00 16.917,33 2.150,92 2.596,93 0,00 0,00 4.747,85 12.169,48 31/10/2023
121 330000 ALINE DIORIO MAYRINK OFICIAL DO MP BELO HORIZONTE - COMARCA; SUPER DE GESTAO DE PESSOAS-LOTACAO TEMPORARIA 10.015,59 2.003,12 0,00 0,00 0,00 0,00 0,00 2.105,00 14.123,71 1.703,94 1.951,60 0,00 0,00 3.655,54 10.468,17 31/10/2023
122 499000 ALINE FERREIRA LOPES ANALISTA DO MP TEÓFILO OTONI - COMARCA; TEOFILO OTONI-PJ-09PJ 12.343,61 2.468,72 0,00 0,00 0,00 0,00 0,00 2.105,00 16.917,33 2.150,92 2.544,79 0,00 0,00 4.695,71 12.221,62 31/10/2023
123 405300 ALINE LAIA CARDOZO SUPERINTENDENTE BELO HORIZONTE - COMARCA; SUPERINTENDENCIA LOGISTICA SERVICOS 28.013,39 5.602,68 0,00 0,00 0,00 0,00 0,00 2.105,00 35.721,07 3.723,41 7.335,52 0,00 0,00 11.058,93 24.662,14 31/10/2023
124 278200 ALINE MARCIA FARIA BARBOSA FERNANDES OFICIAL DO MP BARBACENA - COMARCA; BARBACENA-PJ-SECRETARIA 10.516,49 3.154,95 0,00 0,00 0,00 0,00 0,00 2.105,00 15.776,44 1.968,38 2.229,11 0,00 0,00 4.197,49 11.578,95 31/10/2023
125 389000 ALINE NERI NOBRE ANALISTA DO MP MONTES CLAROS - COMARCA; COORD REG PJ DEF EDUC DIR CRIANCA ADOL NORTE 20.533,67 8.213,47 0,00 0,00 945,09 0,00 11.365,47 4.146,38 45.204,08 5.903,44 8.274,52 0,00 0,00 14.177,96 31.026,12 31/10/2023
126 294600 ALINE PATRICIA SILVA VIEIRA OFICIAL DO MP UBERLÂNDIA - COMARCA; UBERLANDIA-PJ-03PJ 15.447,01 4.634,10 0,00 0,00 0,00 0,00 6.827,40 3.390,48 30.298,99 3.501,04 4.930,22 0,00 0,00 8.431,26 21.867,73 31/10/2023
127 420000 ALINE RODRIGUES CAMOROPIN ANALISTA DO MP SABARÁ - COMARCA; SABARA-PJ-02PJ 18.720,84 3.744,17 0,00 0,00 0,00 0,00 0,00 2.105,00 24.570,01 3.375,35 4.364,70 0,00 0,00 7.740,05 16.829,96 31/10/2023
128 715800 ALINE SANTOS PEDROSA MAIA BARBOSA ASSESSOR PROCURADOR JUSTICA BELO HORIZONTE - COMARCA; GABINETE DE PROCURADOR DE JUSTIÇA - SALA 1010 0,00 0,00 8.810,89 0,00 0,00 0,00 0,00 2.105,00 10.915,89 876,95 1.709,37 0,00 0,00 2.586,32 8.329,57 31/10/2023
129 699600 ALINE SEPULVEDA ROSA PIRES ASSESSOR PROCURADOR JUSTICA BELO HORIZONTE - COMARCA; GABINETE DE PROCURADOR DE JUSTIÇA - SALA 905 0,00 0,00 8.810,89 0,00 2.936,96 0,00 0,00 2.105,00 13.852,85 876,95 2.517,04 0,00 0,00 3.393,99 10.458,86 31/10/2023
130 408300 ALINE SILVA ARAUJO DE PAULA ANALISTA DO MP SÃO SEBASTIÃO DO PARAÍSO - COMARCA; SAO SEBASTIAO DO PARAISO-PJ-02PJ 18.720,84 3.744,17 0,00 0,00 0,00 0,00 0,00 2.105,00 24.570,01 982,16 4.878,86 0,00 0,00 5.861,02 18.708,99 31/10/2023
131 734300 ALINE TAVARES GURGEL ASSESSOR ADMINISTRATIVO III BELO HORIZONTE - COMARCA; SECRETARIA-GERAL 0,00 0,00 10.858,90 0,00 0,00 0,00 0,00 2.105,00 12.963,90 876,95 2.272,58 0,00 0,00 3.149,53 9.814,37 31/10/2023
132 425400 ALINE TRINDADE DE FREITAS CAMPOS OFICIAL DO MP BELO HORIZONTE - COMARCA; PROMOT ESTADUAL DE DEF PATRI CULT E TUR DE MG 12.343,61 2.468,72 0,00 0,00 0,00 0,00 0,00 2.105,00 16.917,33 2.150,92 2.596,93 0,00 0,00 4.747,85 12.169,48 31/10/2023
133 753900 ALINI PEREIRA DE ALMEIDA ASSESSOR PROMOTOR JUSTICA CAMPOS GERAIS - COMARCA; CAMPOS GERAIS-PJ-02PJ 0,00 0,00 8.810,89 0,00 0,00 0,00 4.699,14 3.528,18 17.038,21 876,95 3.226,64 0,00 0,00 4.103,59 12.934,62 31/10/2023
134 517200 ALISSOM PEREIRA DA SILVA ANALISTA DO MP BORDA DA MATA - COMARCA; BORDA DA MATA-PJ-UNPJ 12.343,61 3.703,08 0,00 0,00 0,00 0,00 0,00 3.055,00 19.101,69 2.348,42 2.882,06 0,00 0,00 5.230,48 13.871,21 31/10/2023
135 442400 ALISSON LABRE ANALISTA DO MP VARGINHA - COMARCA; VARGINHA-PJ-03PJ 13.588,97 2.717,79 0,00 0,00 0,00 0,00 0,00 2.105,00 18.411,76 982,16 3.329,31 0,00 0,00 4.311,47 14.100,29 31/10/2023
136 643800 ALLAN PAUL FONSECA DE CASTRO OFICIAL DO MP CONTAGEM - COMARCA; CONTAGEM-PJ-SECRETARIA 7.270,07 727,01 2.918,39 0,00 0,00 0,00 0,00 3.055,00 13.970,47 982,16 1.846,70 0,00 0,00 2.828,86 11.141,61 31/10/2023
137 612900 ALLAN VINICIUS VIEIRA ARAUJO COORDENADOR II BELO HORIZONTE - COMARCA; DIRETORIA DE GESTAO DOCUMENTAL 20.533,67 2.053,37 0,00 0,00 0,00 0,00 0,00 2.105,00 24.692,04 1.102,13 5.023,39 0,00 0,00 6.125,52 18.566,52 31/10/2023
138 349000 ALLEC RODRIGUES VIEIRA OFICIAL DO MP CAPINÓPOLIS - COMARCA; CAO-CIVEL 12.343,61 3.703,08 0,00 0,00 0,00 0,00 0,00 2.105,00 18.151,69 2.348,42 2.882,06 0,00 0,00 5.230,48 12.921,21 31/10/2023
139 297300 ALLYSON SALIBA MONTEIRO LAIZO ANALISTA DO MP CONSELHEIRO LAFAIETE - COMARCA; CONSELHEIRO LAFAIETE-PJ-03PJ 23.070,31 6.921,09 0,00 0,00 0,00 0,00 0,00 3.055,00 33.046,40 4.579,57 6.103,29 0,00 0,00 10.682,86 22.363,54 31/10/2023
140 303700 ALMIR LOPES LOURES ANALISTA DO MP BELO HORIZONTE - COMARCA; CENTRAL DE APOIO TECN-SETOR DE MEIO AMBIENTE 23.070,31 6.921,09 0,00 0,00 0,00 0,00 0,00 2.105,00 32.096,40 4.579,57 6.103,29 0,00 0,00 10.682,86 21.413,54 31/10/2023
141 743900 ALMIR MOREIRA DOS SANTOS ANALISTA DO MP BELO HORIZONTE - COMARCA; DIRETORIA DE ADMINISTRACAO FINANCEIRA 7.040,78 0,00 0,00 0,00 0,00 0,00 0,00 2.105,00 9.145,78 909,81 696,78 0,00 0,00 1.606,59 7.539,19 31/10/2023
142 696600 ALOIZIO MARTINS JALES JUNIOR ASSESSOR PROMOTOR JUSTICA CAMPESTRE - COMARCA; CAMPESTRE-PJ-SECRETARIA 0,00 0,00 8.810,89 0,00 0,00 0,00 0,00 2.105,00 10.915,89 876,95 1.709,37 0,00 0,00 2.586,32 8.329,57 31/10/2023
143 515900 ALTAIR NEVES JUNIOR OFICIAL DO MP BELO HORIZONTE - COMARCA; BH-01PJ FAZENDA PUBLICA-SECRETARIA 10.516,49 2.103,30 0,00 0,00 0,00 0,00 0,00 2.105,00 14.724,79 1.800,11 2.090,45 0,00 0,00 3.890,56 10.834,23 31/10/2023
144 233300 ALVARINDO BATISTA ANALISTA DO MP BELO HORIZONTE - COMARCA; DIR CRIACAO E MIDIAS 23.070,31 9.228,12 0,00 0,00 2.162,94 0,00 12.916,47 3.055,00 50.432,84 6.705,67 9.715,52 0,00 0,00 16.421,19 34.011,65 31/10/2023
145 750400 ALVARO HENRIQUE FERREIRA DA SILVA OFICIAL DO MP COMARCA - JUATUBA; JUATUBA-PJ-UNPJ 4.570,25 0,00 0,00 0,00 0,00 0,00 1.371,08 3.187,27 9.128,60 739,39 545,57 0,00 0,00 1.284,96 7.843,64 31/10/2023
146 274100 ALYSSON CARVALHO VIDAL DE LACERDA OFICIAL DO MP MANHUAÇU - COMARCA; MANHUACU-PJ-01PJ 12.343,61 4.937,44 0,00 0,00 0,00 0,00 0,00 2.105,00 19.386,05 2.545,92 3.167,20 0,00 0,00 5.713,12 13.672,93 31/10/2023
147 621000 AMANDA BASTOS ALVES ANALISTA DO MP BELO HORIZONTE - COMARCA; BH-07PJ 02 TRIBUNAL DO JURI-GAB 066PJ 12.343,61 1.234,36 0,00 0,00 4.525,99 0,00 0,00 2.105,00 20.208,96 982,16 3.698,33 0,00 0,00 4.680,49 15.528,47 31/10/2023
148 521700 AMANDA CRISTINA AGUIAR MACHADO OFICIAL DO MP CONGONHAS - COMARCA; CONGONHAS-PJ-01PJ 7.506,70 1.501,34 0,00 0,00 0,00 0,00 0,00 2.105,00 11.113,04 1.222,23 1.204,00 0,00 0,00 2.426,23 8.686,81 31/10/2023
149 733500 AMANDA CRISTINA GONCALVES ASSESSOR ADMINISTRATIVO I PARACATU - COMARCA; COORD REG AP COM INCL MOB SOCIAIS NOROESTE MG 0,00 0,00 4.872,71 0,00 0,00 0,00 0,00 2.105,00 6.977,71 718,08 670,06 0,00 0,00 1.388,14 5.589,57 31/10/2023
150 713900 AMANDA DE ARAUJO CARVALHO ASSESSOR PROMOTOR JUSTICA ARAÇUAÍ - COMARCA; ARACUAI-PJ-01PJ 0,00 0,00 8.761,33 0,00 0,00 0,00 0,00 2.105,00 10.866,33 876,95 1.695,74 0,00 0,00 2.572,69 8.293,64 31/10/2023
151 613400 AMANDA DE ASSIS IUNES SANTOS ANALISTA DO MP CONGONHAS - COMARCA; CONGONHAS-PJ-01PJ 12.343,61 1.234,36 0,00 0,00 0,00 0,00 0,00 2.105,00 15.682,97 1.953,42 2.311,79 0,00 0,00 4.265,21 11.417,76 31/10/2023
152 695900 AMANDA DE OLIVEIRA ASSESSOR PROCURADOR JUSTICA BELO HORIZONTE - COMARCA; PROC JUST ATUACAO TRIBUNAIS SUPERIORES-GAB004 0,00 0,00 8.810,89 0,00 0,00 0,00 1.219,21 8.096,41 18.126,51 876,95 1.709,37 0,00 0,00 2.586,32 15.540,19 31/10/2023
153 520800 AMANDA DE SOUZA MACHADO ANALISTA DO MP BAEPENDI - COMARCA; BAEPENDI-PJ-UNPJ 12.343,61 2.468,72 0,00 0,00 0,00 0,00 0,00 2.105,00 16.917,33 2.150,92 2.492,65 0,00 0,00 4.643,57 12.273,76 31/10/2023
154 663900 AMANDA DENISE GONCALVES DA SILVA ASSESSOR ADMINISTRATIVO I BELO HORIZONTE - COMARCA; SECRETARIA DO PROCON-MG 0,00 0,00 4.872,71 0,00 0,00 0,00 670,00 2.105,00 7.647,71 718,08 670,06 0,00 0,00 1.388,14 6.259,57 31/10/2023
155 754800 AMANDA MAGALHAES DE CARVALHO E SILVA ASSESSOR PROCURADOR JUSTICA BELO HORIZONTE - COMARCA; GABINETE DE PROCURADOR DE JUSTIÇA - SALA 1008 0,00 0,00 8.810,89 0,00 0,00 0,00 3.524,36 3.391,82 15.727,07 876,95 2.866,07 0,00 0,00 3.743,02 11.984,05 31/10/2023
156 543100 AMANDA VIEIRA FREITAS ANALISTA DO MP VARGINHA - COMARCA; COORD REG DEF ORDEM ECON TRIB VARGINHA 12.343,61 2.468,72 0,00 0,00 4.937,44 0,00 0,00 2.105,00 21.854,77 2.150,92 3.902,59 0,00 0,00 6.053,51 15.801,26 31/10/2023
157 434400 AMARILIS ASSIS SIMAO CURCIO ANALISTA DO MP BELO HORIZONTE - COMARCA; DIRETORIA GESTAO COMPRAS LICITACOES 12.343,61 2.468,72 0,00 0,00 0,00 0,00 0,00 2.105,00 16.917,33 2.150,92 2.596,93 0,00 0,00 4.747,85 12.169,48 31/10/2023
158 652000 AMAURI SILVA ALVES ASSESSOR ADMINISTRATIVO III BELO HORIZONTE - COMARCA; BH-23PJ INFRACIONAL-COORD ADM INFRACIONAL 10.858,90 1.085,89 0,00 0,00 0,00 0,00 0,00 2.105,00 14.049,79 944,43 2.140,14 0,00 0,00 3.084,57 10.965,22 31/10/2023
159 58000 AMELIA GUARIZE DE CASTRO OFICIAL DO MP JUIZ DE FORA - COMARCA; JUIZ DE FORA-PJ-SECRETARIA 8.264,07 9.090,49 0,00 0,00 0,00 2.557,68 0,00 2.105,00 22.017,24 2.557,68 3.887,54 0,00 0,00 6.445,22 15.572,02 31/10/2023
160 324301 AMERICA SUELI FERREIRA DA SILVA ANALISTA DO MP UBERLÂNDIA - COMARCA; UBERLANDIA-PJ-02PJ 12.343,61 3.703,08 0,00 0,00 0,00 0,00 0,00 2.105,00 18.151,69 2.348,42 2.829,93 0,00 0,00 5.178,35 12.973,34 31/10/2023
161 273300 AMUJACY DE BRITO ASSIZ OFICIAL DO MP BELO HORIZONTE - COMARCA; BH-12PJ JUIZO CRIMINAL-SECRETARIA 12.343,61 4.937,44 0,00 0,00 0,00 0,00 0,00 2.105,00 19.386,05 2.545,92 2.958,65 0,00 0,00 5.504,57 13.881,48 31/10/2023
162 482200 ANA ALICE LOPES ACHTSCHIN ANALISTA DO MP BELO HORIZONTE - COMARCA; PROC JUST ATUACAO TRIBUNAIS SUPERIORES-GAB005 15.447,01 3.089,40 0,00 0,00 0,00 0,00 1.075,37 2.105,00 21.716,78 2.746,77 3.457,19 0,00 0,00 6.203,96 15.512,82 31/10/2023
163 490400 ANA AMELIA PAULINO GARCIA OFICIAL DO MP CONTAGEM - COMARCA; CONTAGEM-PJ-SECRETARIA 10.858,90 2.171,78 0,00 0,00 0,00 0,00 0,00 3.055,00 16.085,68 1.865,86 2.133,23 0,00 0,00 3.999,09 12.086,59 31/10/2023
164 714900 ANA BEATRIZ LOBATO ALVES DE CARVALHO ASSESSOR PROCURADOR JUSTICA BELO HORIZONTE - COMARCA; GABINETE DE PROCURADOR DE JUSTIÇA - SALA 414 0,00 3.524,36 8.810,89 0,00 0,00 0,00 0,00 2.105,00 14.440,25 876,95 2.678,57 0,00 0,00 3.555,52 10.884,73 31/10/2023
165 279100 ANA CAROLINA ARAUJO PEREIRA ANALISTA DO MP BELO HORIZONTE - COMARCA; DIRETORIA DE PROJETOS DE EDIFICACOES 23.070,31 9.228,12 0,00 0,00 0,00 0,00 2.307,03 2.105,00 36.710,46 5.317,82 7.117,00 0,00 0,00 12.434,82 24.275,64 31/10/2023
166 653300 ANA CAROLINA CYRNE DINIZ ASSESSOR ADMINISTRATIVO III BELO HORIZONTE - COMARCA; CENTRAL DE APOIO TECNICO-SETOR CONTABIL 0,00 0,00 10.858,90 0,00 0,00 0,00 0,00 2.105,00 12.963,90 876,95 2.272,58 0,00 0,00 3.149,53 9.814,37 31/10/2023
167 359400 ANA CAROLINA DE ABREU FARIA ASSESSOR ADMINISTRATIVO IV BELO HORIZONTE - COMARCA; SUPERINTENDÊNCIA DE ENGENHARIA E ARQUITETURA 0,00 0,00 14.488,22 0,00 0,00 0,00 0,00 3.055,00 17.543,22 876,95 3.218,50 0,00 0,00 4.095,45 13.447,77 31/10/2023
168 408500 ANA CAROLINA DE CASTRO CARVALHO ANALISTA DO MP BARBACENA - COMARCA; BARBACENA - SECRETARIA DAS PJS CRIMINAIS 18.720,84 3.744,17 0,00 0,00 0,00 0,00 0,00 3.055,00 25.520,01 3.375,35 4.364,70 0,00 0,00 7.740,05 17.779,96 31/10/2023
169 688000 ANA CAROLINA DE OLIVEIRA PINTO ASSESSOR PROCURADOR JUSTICA BELO HORIZONTE - COMARCA; GABINETE DE PROCURADOR DE JUSTIÇA - SALA 1005 0,00 0,00 8.810,89 0,00 0,00 0,00 0,00 2.105,00 10.915,89 876,95 1.709,37 0,00 0,00 2.586,32 8.329,57 31/10/2023
170 420200 ANA CAROLINA FERNANDES SILVA ANALISTA DO MP BELO HORIZONTE - COMARCA; GABINETE DE PROCURADOR DE JUSTIÇA - SALA 704 18.130,77 3.626,15 0,00 0,00 7.252,31 0,00 6.151,45 8.196,94 43.357,62 3.946,61 7.183,85 0,00 0,00 11.130,46 32.227,16 31/10/2023
171 522100 ANA CAROLINA FERNANDINO VIDAL PEREIRA SANTOS OFICIAL DO MP BELO HORIZONTE - COMARCA; CAO-CRIANCAS E ADOLESCENTES-SECRETARIA 10.516,49 2.103,30 0,00 0,00 0,00 0,00 0,00 2.105,00 14.724,79 982,16 2.209,95 0,00 0,00 3.192,11 11.532,68 31/10/2023
172 716001 ANA CAROLINA FIGUEIREDO SILVA ASSESSOR ADMINISTRATIVO II BELO HORIZONTE - COMARCA; PROC JUST ATUACAO TRIBUNAIS SUPERIORES-GAB003 0,00 0,00 7.506,70 0,00 0,00 0,00 0,00 2.105,00 9.611,70 876,95 1.350,72 0,00 0,00 2.227,67 7.384,03 31/10/2023
173 502400 ANA CAROLINA GONCALVES FERNANDES ANALISTA DO MP IPATINGA - COMARCA; IPATINGA-PJ-01PJ 12.343,61 2.468,72 0,00 0,00 0,00 0,00 0,00 4.005,00 18.817,33 982,16 2.767,68 0,00 0,00 3.749,84 15.067,49 31/10/2023
174 529900 ANA CAROLINA GONCALVES PECANHA CHEQUER ANALISTA DO MP MANHUAÇU - COMARCA; MANHUACU-PJ-04PJ 12.343,61 2.468,72 0,00 0,00 0,00 0,00 0,00 4.005,00 18.817,33 2.150,92 2.596,93 0,00 0,00 4.747,85 14.069,48 31/10/2023
175 431900 ANA CAROLINA MOTTA GUATIMOSIM ANALISTA DO MP BELO HORIZONTE - COMARCA; ASSESSORIA JURIDICO-ADMINISTRATIVA 18.130,77 3.626,15 0,00 0,00 0,00 0,00 5.356,26 3.055,00 30.168,18 3.924,29 5.157,23 0,00 0,00 9.081,52 21.086,66 31/10/2023
176 490600 ANA CAROLINA XAVIER GODOY ANALISTA DO MP BELO HORIZONTE - COMARCA; BH-18PJ VIOLENCIA DOMESTICA-GAB 007PJ 12.343,61 2.468,72 0,00 0,00 0,00 0,00 0,00 4.005,00 18.817,33 2.150,92 2.492,65 0,00 0,00 4.643,57 14.173,76 31/10/2023
177 600300 ANA CAROLINE PEREIRA DINIZ ANALISTA DO MP BELO HORIZONTE - COMARCA; PROC JUST ESP ACOES COMP ORIG CRIMINAL-SEC 12.343,61 2.468,72 0,00 0,00 0,00 0,00 0,00 3.055,00 17.867,33 2.150,92 2.596,93 0,00 0,00 4.747,85 13.119,48 31/10/2023
178 615800 ANA CAROLINE PEREIRA OLIVEIRA OFICIAL DO MP ALFENAS - COMARCA; ALFENAS-PJ-06PJ 7.506,70 750,67 0,00 0,00 0,00 0,00 0,00 2.105,00 10.362,37 1.102,13 1.082,73 0,00 0,00 2.184,86 8.177,51 31/10/2023
179 324800 ANA CECILIA MENDES DA SILVA OFICIAL DO MP OURO FINO - COMARCA; OURO FINO-PJ-01PJ 12.343,61 4.937,44 0,00 0,00 0,00 0,00 0,00 2.105,00 19.386,05 2.545,92 3.115,06 0,00 0,00 5.660,98 13.725,07 31/10/2023
180 736000 ANA CLARA FERREIRA AMARAL ASSESSOR ADMINISTRATIVO I BELO HORIZONTE - COMARCA; PROCURADOR-GERAL DE JUSTICA- GABINETE 0,00 0,00 4.872,71 0,00 0,00 0,00 0,00 2.105,00 6.977,71 718,08 670,06 0,00 0,00 1.388,14 5.589,57 31/10/2023
181 704100 ANA CLARA MARTINS ALBUQUERQUE ASSESSOR DE CAO BELO HORIZONTE - COMARCA; CAO-CRIANCAS E ADOLESCENTES-ASS TECNICA 0,00 0,00 7.506,70 0,00 0,00 0,00 0,00 2.105,00 9.611,70 876,95 1.350,72 0,00 0,00 2.227,67 7.384,03 31/10/2023
182 698700 ANA CLARA SANTOS ALMEIDA ASSESSOR PROMOTOR JUSTICA SABINÓPOLIS - COMARCA; SABINOPOLIS-PJ-UNPJ 0,00 0,00 8.810,89 0,00 2.936,96 0,00 0,00 2.105,00 13.852,85 876,95 2.517,04 0,00 0,00 3.393,99 10.458,86 31/10/2023
183 441300 ANA CLAUDIA ALKIMIM MIRANDA BOMTEMPO ANALISTA DO MP MONTES CLAROS - COMARCA; MONTES CLAROS-PJ-11PJ 18.130,77 3.626,15 0,00 0,00 7.252,31 0,00 2.137,97 2.105,00 33.252,20 3.409,36 6.303,92 0,00 0,00 9.713,28 23.538,92 31/10/2023
184 642500 ANA CLAUDIA DA COSTA NAVES OFICIAL DO MP MONTE CARMELO - COMARCA; MONTE CARMELO-PJ-02PJ 6.603,76 660,38 0,00 0,00 0,00 0,00 0,00 3.055,00 10.319,14 944,43 852,96 0,00 0,00 1.797,39 8.521,75 31/10/2023
185 604900 ANA CLAUDIA OLIVEIRA DE MIRANDA OFICIAL DO MP PONTE NOVA - COMARCA; PONTE NOVA-PJ-04PJ 7.506,70 750,67 0,00 0,00 0,00 0,00 0,00 2.105,00 10.362,37 1.102,13 1.030,59 0,00 0,00 2.132,72 8.229,65 31/10/2023
186 379300 ANA CRISTINA ALVES FLAVIO ANALISTA DO MP SÃO GOTARDO - COMARCA; SAO GOTARDO-PJ-01PJ 20.533,67 6.160,10 0,00 0,00 0,00 0,00 489,39 8.393,75 35.576,91 4.051,95 5.289,40 0,00 0,00 9.341,35 26.235,56 31/10/2023
187 461200 ANA CRISTINA ALVES PASCHOAL ANALISTA DO MP BELO HORIZONTE - COMARCA; BH-07PJ 03 TRIBUNAL DO JURI-GAB 064PJ 12.343,61 2.468,72 0,00 0,00 0,00 0,00 271,56 5.067,47 20.151,36 2.150,92 2.544,79 0,00 0,00 4.695,71 15.455,65 31/10/2023
188 514100 ANA CRISTINA ARAUJO ASSUNCAO ANALISTA DO MP BELO HORIZONTE - COMARCA; ASSESS JUR DO CONS SUPERIOR DO MINISTERIO PUB 12.343,61 3.184,65 0,00 0,00 0,00 0,00 0,00 3.055,00 18.583,26 2.265,47 2.710,17 0,00 0,00 4.975,64 13.607,62 31/10/2023
189 113401 ANA CRISTINA BRAGA ALBUQUERQUE ASSESSOR ADM. ESPECIAL BELO HORIZONTE - COMARCA; DIRETORIA-GERAL 0,00 0,00 28.013,39 0,00 0,00 0,00 0,00 1.500,00 29.513,39 876,95 6.990,06 0,00 0,00 7.867,01 21.646,38 31/10/2023
190 233800 ANA CRISTINA BRAGA SOARES OFICIAL DO MP BELO HORIZONTE - COMARCA; DIRETORIA DE CONTABILIDADE 15.447,01 6.178,80 0,00 0,00 0,00 0,00 1.488,83 2.105,00 25.219,64 3.286,68 4.132,41 0,00 0,00 7.419,09 17.800,55 31/10/2023
191 186400 ANA CRISTINA DE AZEVEDO LOPES OFICIAL DO MP UBÁ - COMARCA; UBA-PJ-01PJ 21.346,53 8.538,61 0,00 0,00 1.036,60 0,00 6.918,05 2.726,96 40.566,75 5.660,34 7.948,71 0,00 0,00 13.609,05 26.957,70 31/10/2023
192 465100 ANA CRISTINA DE OLIVEIRA GUIMARAES ANALISTA DO MP ITAJUBA - COMARCA; ITAJUBA-PJ-05PJ 12.343,61 2.468,72 0,00 0,00 0,00 0,00 0,00 3.055,00 17.867,33 2.150,92 2.492,65 0,00 0,00 4.643,57 13.223,76 31/10/2023
193 500600 ANA CRISTINA LATADO SUDARIO ANALISTA DO MP UBERLÂNDIA - COMARCA; UBERLANDIA-PJ-09PJ 12.343,61 2.468,72 0,00 0,00 0,00 0,00 0,00 2.105,00 16.917,33 2.150,92 2.596,93 0,00 0,00 4.747,85 12.169,48 31/10/2023
194 331400 ANA CRISTINA RIBEIRO ALVES OFICIAL DO MP BAMBUÍ - COMARCA; BAMBUI-PJ-UNPJ 12.343,61 3.703,08 0,00 0,00 0,00 0,00 0,00 2.105,00 18.151,69 2.348,42 2.829,93 0,00 0,00 5.178,35 12.973,34 31/10/2023
195 249300 ANA ELOINA MARTINS OFICIAL DO MP BETIM - COMARCA; BETIM-PJ-02PJ 18.130,77 9.065,39 0,00 0,00 862,71 0,00 4.028,46 2.105,00 34.192,33 5.020,66 7.198,61 0,00 0,00 12.219,27 21.973,06 31/10/2023
196 257400 ANA FLAVIA CAMBRAIA ANALISTA DO MP BELO HORIZONTE - COMARCA; BH-19PJ SAUDE-SECRETARIA 150PJ 23.070,31 9.228,12 0,00 0,00 0,00 0,00 473,71 7.272,75 40.044,89 4.948,70 6.584,08 0,00 0,00 11.532,78 28.512,11 31/10/2023
197 248201 ANA FLAVIA DE MORAIS SOUZA ANALISTA DO MP DIVINÓPOLIS - COMARCA; DIVINOPOLIS-PJ-01PJ 15.447,01 6.178,80 0,00 0,00 637,01 0,00 9.976,57 5.178,27 37.417,66 4.608,48 6.215,93 0,00 0,00 10.824,41 26.593,25 31/10/2023
198 621100 ANA FLAVIA DINIZ TEODORO OFICIAL DO MP SANTA LUZIA - COMARCA; SANTA LUZIA-PJ-06PJ 7.506,70 750,67 0,00 0,00 0,00 0,00 0,00 2.105,00 10.362,37 1.102,13 1.082,73 0,00 0,00 2.184,86 8.177,51 31/10/2023
199 238600 ANA FLAVIA FRANCO OFICIAL DO MP BELO HORIZONTE - COMARCA; DIRETORIA DE PESSOAL ADMINISTRATIVO - DPAD 18.720,84 7.488,34 0,00 0,00 0,00 0,00 0,00 2.105,00 28.314,18 3.974,42 5.229,60 0,00 0,00 9.204,02 19.110,16 31/10/2023
200 402900 ANA FLAVIA PORTES DE CARVALHO ANALISTA DO MP BELO HORIZONTE - COMARCA; DIRET DE PLANOS PROJETOS E PROGRAMAS INST 20.533,67 6.160,10 0,00 0,00 0,00 0,00 0,00 2.105,00 28.798,77 4.051,95 5.289,40 0,00 0,00 9.341,35 19.457,42 31/10/2023
201 752300 ANA JUSSARA DA SILVA BIANCHETTI OFICIAL DO MP ALTO RIO DOCE - COMARCA; ALTO RIO DOCE-PJ-UNPJ 4.570,25 0,00 0,00 0,00 0,00 0,00 1.371,08 3.187,27 9.128,60 739,39 545,57 0,00 0,00 1.284,96 7.843,64 31/10/2023
202 382700 ANA KARENINA SALDANHA GONTIJO ANALISTA DO MP BELO HORIZONTE - COMARCA; ASSESS TECNICO-JUR JUNTO AS PROC. DE JUST 19.751,60 5.925,48 0,00 0,00 0,00 0,00 1.635,35 5.186,25 32.498,68 3.889,28 5.106,69 0,00 0,00 8.995,97 23.502,71 31/10/2023
203 620500 ANA KARINE DE ANDRADE OLIVEIRA ANALISTA DO MP RIBEIRÃO DAS NEVES - COMARCA; RIBEIRAO NEVES-SEC PJ EXECUCAO PENAL 11.577,56 1.157,76 0,00 0,00 0,00 0,00 0,00 2.105,00 14.840,32 1.818,60 2.117,14 0,00 0,00 3.935,74 10.904,58 31/10/2023
204 462200 ANA LUCIA ANDRADE TOMICH OTTONI ANALISTA DO MP TEÓFILO OTONI - COMARCA; TEOFILO OTONI-PJ-07PJ 12.343,61 2.468,72 0,00 0,00 0,00 0,00 0,00 3.055,00 17.867,33 2.150,92 2.492,65 0,00 0,00 4.643,57 13.223,76 31/10/2023
205 504100 ANA LUCIA CATAO DE CARVALHO OFICIAL DO MP BELO HORIZONTE - COMARCA; DIR RELACOES INSTITUCIONAIS 10.858,90 2.171,78 4.020,58 0,00 0,00 0,00 0,00 2.105,00 19.156,26 1.865,86 3.238,89 0,00 0,00 5.104,75 14.051,51 31/10/2023
206 274700 ANA LUCIA DE ALENCAR BRAGATO OFICIAL DO MP UBERABA - COMARCA; UBERABA-PJ-07PJ 12.343,61 4.937,44 0,00 0,00 0,00 0,00 0,00 2.105,00 19.386,05 2.545,92 3.167,20 0,00 0,00 5.713,12 13.672,93 31/10/2023
207 509400 ANA LUCIA DORNELAS MALLOSTO ANALISTA DO MP JUIZ DE FORA - COMARCA; JUIZ DE FORA-PJ-25PJ 12.343,61 2.468,72 0,00 0,00 0,00 0,00 543,12 8.029,93 23.385,38 2.150,92 2.544,79 0,00 0,00 4.695,71 18.689,67 31/10/2023
208 302600 ANA LUCIA LOPES SANTOS OFICIAL DO MP BELO HORIZONTE - COMARCA; DIVISÃO DE FISCALIZAÇÃO DAS RELAÇÕES DE CONSU 12.343,61 3.703,08 0,00 0,00 0,00 0,00 1.771,66 2.105,00 19.923,35 2.348,42 3.317,13 0,00 0,00 5.665,55 14.257,80 31/10/2023
209 716700 ANA LUISA DE LANA COELHO ASSESSOR PROCURADOR JUSTICA BELO HORIZONTE - COMARCA; GABINETE DE PROCURADOR DE JUSTIÇA - SALA 612 0,00 0,00 8.810,89 0,00 0,00 0,00 0,00 2.105,00 10.915,89 876,95 1.709,37 0,00 0,00 2.586,32 8.329,57 31/10/2023
210 702000 ANA LUISA DE OLIVEIRA RIBEIRO ASSESSOR PROCURADOR JUSTICA BELO HORIZONTE - COMARCA; ASSESS TECNICO-JUR JUNTO AS PROC. DE JUST 0,00 0,00 8.810,89 0,00 0,00 0,00 0,00 2.105,00 10.915,89 876,95 1.709,37 0,00 0,00 2.586,32 8.329,57 31/10/2023
211 493400 ANA LUISA NOGUEIRA MOREIRA ANALISTA DO MP BELO HORIZONTE - COMARCA; BH-19PJ SAUDE-SECRETARIA 130PJ 12.343,61 2.468,72 0,00 0,00 0,00 0,00 0,00 2.105,00 16.917,33 2.150,92 2.596,93 0,00 0,00 4.747,85 12.169,48 31/10/2023
212 389300 ANA LUISA REUTER LIMA ANALISTA DO MP BELO HORIZONTE - COMARCA; DIRETORIA DE SISTEMAS DE INFORMACAO 20.533,67 6.160,10 5.538,92 0,00 0,00 0,00 101,94 2.105,00 34.439,63 4.051,95 6.864,74 0,00 0,00 10.916,69 23.522,94 31/10/2023
213 480600 ANA LUIZA FERNANDES FRAGA E GRECO COORDENADOR I BELO HORIZONTE - COMARCA; OUVIDORIA DO MPMG 16.469,17 3.293,83 0,00 0,00 0,00 0,00 0,00 2.105,00 21.868,00 1.800,11 4.054,83 0,00 0,00 5.854,94 16.013,06 31/10/2023
214 726800 ANA LUIZA GOMES PEREIRA ASSESSOR ADMINISTRATIVO I BELO HORIZONTE - COMARCA; OUVIDORIA DO MPMG 0,00 0,00 4.872,71 0,00 0,00 0,00 0,00 2.105,00 6.977,71 718,08 670,06 0,00 0,00 1.388,14 5.589,57 31/10/2023
215 733600 ANA LUIZA MACHADO RODRIGUES ASSESSOR PROMOTOR JUSTICA CARMO DA MATA - COMARCA; CARMO DA MATA-PJ-UNPJ 0,00 0,00 8.810,89 0,00 0,00 0,00 0,00 2.105,00 10.915,89 876,95 1.709,37 0,00 0,00 2.586,32 8.329,57 31/10/2023
216 517800 ANA LUIZA MAGALHAES CIRINO PIOTO DE MELO OFICIAL DO MP BELO HORIZONTE - COMARCA; DIVISAO DE MATERIAIS 7.506,70 750,67 0,00 0,00 0,00 0,00 0,00 4.005,00 12.262,37 1.102,13 1.082,73 0,00 0,00 2.184,86 10.077,51 31/10/2023
217 481400 ANA MARCIA CANDIDA FERREIRA OFICIAL DO MP BRUMADINHO - COMARCA; BRUMADINHO-PJ-02PJ 7.506,70 1.501,34 0,00 0,00 0,00 0,00 0,00 2.105,00 11.113,04 1.222,23 1.256,14 0,00 0,00 2.478,37 8.634,67 31/10/2023
218 754400 ANA MARIA ANDRADE LARA OFICIAL DO MP BOM SUCESSO - COMARCA; BOM SUCESSO-PJ-UNPJ 4.570,25 0,00 0,00 0,00 0,00 0,00 1.371,08 3.187,27 9.128,60 739,39 545,57 0,00 0,00 1.284,96 7.843,64 31/10/2023
219 643100 ANA MARIA LOPES MIRANDA ANALISTA DO MP BELO HORIZONTE - COMARCA; CAO-FUNDACOES 11.212,54 1.121,25 0,00 0,00 0,00 0,00 542,69 8.975,22 21.851,70 982,16 2.037,65 0,00 0,00 3.019,81 18.831,89 31/10/2023
220 556400 ANA MARIA OLIVEIRA SOUZA OFICIAL DO MP ITAPECERICA - COMARCA; ITAPECERICA-PJ-UNPJ 8.264,07 1.652,81 0,00 0,00 0,00 0,00 0,00 2.105,00 12.021,88 1.367,65 1.466,08 0,00 0,00 2.833,73 9.188,15 31/10/2023
221 409600 ANA OLIVIA FARIA ROSENBURG ANALISTA DO MP BELO HORIZONTE - COMARCA; DIRETORIA DO COLEGIO E DA CAMARA DE PJ 18.720,84 7.488,34 0,00 0,00 849,92 0,00 13.634,84 3.697,62 44.391,56 5.669,03 8.277,78 0,00 0,00 13.946,81 30.444,75 31/10/2023
222 461500 ANA PAULA ALVES CARVALHO ANALISTA DO MP UBERLÂNDIA - COMARCA; UBERLANDIA-PJ-25PJ 13.588,97 2.717,79 0,00 0,00 0,00 0,00 0,00 3.055,00 19.361,76 2.390,03 2.837,87 0,00 0,00 5.227,90 14.133,86 31/10/2023
223 523200 ANA PAULA ALVES DA SILVA OFICIAL DO MP GOVERNADOR VALADARES - COMARCA; GOVERNADOR VALADARES-PJ-10PJ 10.516,49 2.103,30 0,00 0,00 0,00 0,00 0,00 5.905,00 18.524,79 982,16 2.105,67 0,00 0,00 3.087,83 15.436,96 31/10/2023
224 381200 ANA PAULA BARROS PEREIRA RIGHI ANALISTA DO MP BELO HORIZONTE - COMARCA; PROC JUST ATUACAO TRIBUNAIS SUPERIORES-GAB004 20.533,67 6.160,10 0,00 0,00 0,00 0,00 0,00 3.055,00 29.748,77 982,16 5.737,88 0,00 0,00 6.720,04 23.028,73 31/10/2023
225 696400 ANA PAULA CARVALHO SILVA ASSESSOR PROMOTOR JUSTICA PERDÕES - COMARCA; PERDOES-PJ-UNPJ 0,00 0,00 8.810,89 0,00 0,00 0,00 0,00 3.055,00 11.865,89 876,95 1.657,24 0,00 0,00 2.534,19 9.331,70 31/10/2023
226 700900 ANA PAULA CRAVO SALOME ASSESSOR ADMINISTRATIVO I BELO HORIZONTE - COMARCA; PROCURADOR-GERAL DE JUSTIÇA 0,00 0,00 4.872,71 0,00 0,00 0,00 0,00 2.105,00 6.977,71 718,08 670,06 0,00 0,00 1.388,14 5.589,57 31/10/2023
227 227200 ANA PAULA DA SILVA CAMPOLINA ANALISTA DO MP BELO HORIZONTE - COMARCA; DIRETORIA DE ORCAMENTO-DIOR/SPC 23.070,31 11.535,16 0,00 0,00 0,00 0,00 0,00 2.105,00 36.710,47 5.317,82 7.169,14 0,00 0,00 12.486,96 24.223,51 31/10/2023
228 278500 ANA PAULA DIAS CAPANEMA OFICIAL DO MP BELO HORIZONTE - COMARCA; DIRETORIA DE SEGURANCA 13.588,97 5.435,59 0,00 0,00 0,00 0,00 1.316,06 2.105,00 22.445,62 3.035,45 3.873,96 0,00 0,00 6.909,41 15.536,21 31/10/2023
229 327300 ANA PAULA GARCIA MAXIMO OFICIAL DO MP UNAÍ - COMARCA; UNAI-PJ-01PJ 15.949,86 7.974,93 0,00 0,00 0,00 0,00 0,00 2.105,00 26.029,79 3.608,91 4.545,50 0,00 0,00 8.154,41 17.875,38 31/10/2023
230 738700 ANA PAULA GOMES ANTUNES ASSESSOR PROMOTOR JUSTICA CORAÇÃO DE JESUS - COMARCA; CORACAO DE JESUS-PJ-UNPJ 0,00 0,00 8.810,89 0,00 0,00 0,00 0,00 2.105,00 10.915,89 876,95 1.709,37 0,00 0,00 2.586,32 8.329,57 31/10/2023
231 270000 ANA PAULA GOULART CRUZ DE MAGALHAES ANALISTA DO MP BELO HORIZONTE - COMARCA; ASSESSORIA ESPECIAL DO PGJ 23.070,31 9.228,12 0,00 0,00 0,00 0,00 2.307,03 2.105,00 36.710,46 5.317,82 7.169,14 0,00 0,00 12.486,96 24.223,50 31/10/2023
232 262100 ANA PAULA KOMATSUZAKI ABIJAUDI ANALISTA DO MP BELO HORIZONTE - COMARCA; BH-17PJ PATRIMONIO PUBLICO-SECRETARIA 23.070,31 11.535,16 0,00 0,00 0,00 0,00 5.097,05 2.703,97 42.406,49 5.788,05 7.743,76 0,00 0,00 13.531,81 28.874,68 31/10/2023
233 278900 ANA PAULA MOREIRA GURGEL ANALISTA DO MP BELO HORIZONTE - COMARCA; ASSESSORIA JURIDICO-ADMINISTRATIVA 23.070,31 11.535,16 8.404,02 0,00 0,00 0,00 0,00 2.105,00 45.114,49 5.317,82 7.989,88 5.419,53 0,00 18.727,23 26.387,26 31/10/2023
234 745500 ANA PAULA OLIVEIRA MENDES OFICIAL DO MP TARUMIRIM - COMARCA; TARUMIRIM-PJ-UNPJ 4.570,25 0,00 0,00 0,00 0,00 0,00 0,00 2.105,00 6.675,25 526,88 257,78 0,00 0,00 784,66 5.890,59 31/10/2023
235 425701 ANA PAULA ROCHA ANALISTA DO MP BELO HORIZONTE - COMARCA; ASSESSORIA DE COMUNICACAO INTEGRADA 12.343,61 2.468,72 0,00 0,00 0,00 0,00 0,00 3.055,00 17.867,33 2.150,92 2.596,93 0,00 0,00 4.747,85 13.119,48 31/10/2023
236 395601 ANA PAULA SALGE OLIVEIRA ANALISTA DO MP UBERABA - COMARCA; UBERABA-PJ-15PJ 12.343,61 4.937,44 0,00 0,00 0,00 0,00 0,00 2.105,00 19.386,05 2.545,92 3.167,20 0,00 0,00 5.713,12 13.672,93 31/10/2023
237 473200 ANA PAULA SCOTTON BRASIL ANALISTA DO MP JUIZ DE FORA - COMARCA; JUIZ DE FORA-PJ-17PJ 12.343,61 2.468,72 0,00 0,00 0,00 0,00 0,00 2.105,00 16.917,33 2.150,92 2.596,93 0,00 0,00 4.747,85 12.169,48 31/10/2023
238 633600 ANA PAULA SILVA FERNANDES OFICIAL DO MP CATAGUASES - COMARCA; CATAGUASES-PJ-04PJ 7.506,70 750,67 0,00 0,00 0,00 0,00 0,00 2.105,00 10.362,37 1.102,13 1.082,73 0,00 0,00 2.184,86 8.177,51 31/10/2023
239 470900 ANA PAULA VALADARES ANALISTA DO MP PITANGUI - COMARCA; PITANGUI-PJ-01PJ 12.343,61 2.468,72 0,00 0,00 0,00 0,00 0,00 2.105,00 16.917,33 2.150,92 2.492,65 0,00 0,00 4.643,57 12.273,76 31/10/2023
240 447000 ANA PAULA VALENTIM DE ARAUJO ANALISTA DO MP BELO HORIZONTE - COMARCA; PROC JUST ESP ACOES COMP ORIG CRIMINAL-ASSESS 13.379,94 2.992,00 0,00 0,00 0,00 0,00 329,12 5.559,04 22.260,10 2.653,27 2.887,67 0,00 0,00 5.540,94 16.719,16 31/10/2023
241 604200 ANA PAULA VIANA E SILVA OFICIAL DO MP BELO HORIZONTE - COMARCA; BH-17PJ PATRIMONIO PUBLICO-SECRETARIA 7.506,70 750,67 0,00 0,00 0,00 0,00 0,00 2.105,00 10.362,37 1.102,13 1.082,73 0,00 0,00 2.184,86 8.177,51 31/10/2023
242 505400 ANA PAULA VIEIRA SOUTO OFICIAL DO MP ALMENARA - COMARCA; ALMENARA-PJ-01PJ 7.506,70 3.002,68 0,00 0,00 0,00 0,00 0,00 2.105,00 12.614,38 1.462,45 1.550,81 0,00 0,00 3.013,26 9.601,12 31/10/2023
243 280200 ANA RACHEL BRANDAO LADEIRA ROLAND ANALISTA DO MP BELO HORIZONTE - COMARCA; SUPERINTENDENCIA GESTÃO DE PESSOAS 23.070,31 6.921,09 8.404,02 0,00 0,00 0,00 0,00 2.105,00 40.500,42 4.579,57 8.192,90 805,46 0,00 13.577,93 26.922,49 31/10/2023
244 601200 ANA REGINA RIBEIRO ANALISTA DO MP BELO HORIZONTE - COMARCA; DIV FISCAL ADM CONT TERCEIRIZACAO 12.343,61 2.468,72 4.940,75 0,00 0,00 0,00 0,00 2.105,00 21.858,08 982,16 4.024,48 0,00 0,00 5.006,64 16.851,44 31/10/2023
245 384700 ANA RODRIGUES PEREIRA MARRA ANALISTA DO MP BELO HORIZONTE - COMARCA; SUPER DE GESTAO DE PESSOAS-LOTACAO TEMPORARIA 12.343,61 3.703,08 0,00 0,00 0,00 0,00 0,00 3.055,00 19.101,69 2.348,42 2.777,79 0,00 0,00 5.126,21 13.975,48 31/10/2023
246 232700 ANA SILVIA SEMBLANO NAKAMURA OFICIAL DO MP BELO HORIZONTE - COMARCA; CENT DE APOIO TEC-SETOR DEF,IDOSO E INFANC 12.343,61 4.937,44 4.020,58 0,00 0,00 0,00 0,00 2.105,00 23.406,63 2.545,92 4.272,86 0,00 0,00 6.818,78 16.587,85 31/10/2023
247 602100 ANACLETO FRANCISCO MARCIER PIMENTA OFICIAL DO MP SÃO JOÃO DEL REI - COMARCA; SAO JOAO DEL REI-PJ-03PJ 7.506,70 1.501,34 0,00 0,00 0,00 0,00 750,67 4.005,00 13.763,71 1.342,34 1.168,86 0,00 0,00 2.511,20 11.252,51 31/10/2023
248 310400 ANADEJE DO CARMO DINIZ ARAUJO OFICIAL DO MP BELO HORIZONTE - COMARCA; DIRETORIA DE PESSOAL ADMINISTRATIVO - DPAD 12.343,61 3.703,08 0,00 0,00 0,00 0,00 0,00 2.105,00 18.151,69 2.348,42 2.882,06 0,00 0,00 5.230,48 12.921,21 31/10/2023
249 337000 ANAILDES MARIA MENDES OFICIAL DO MP JANAÚBA - COMARCA; JANAUBA-PJ-02PJ 12.343,61 3.703,08 0,00 0,00 0,00 0,00 0,00 3.055,00 19.101,69 2.348,42 2.882,06 0,00 0,00 5.230,48 13.871,21 31/10/2023
250 750200 ANALU BATISTA TORQUATO ARAUJO ASSESSOR DE CAO BELO HORIZONTE - COMARCA; CAO-ORDEM ECONOMICA E TRIBUTARIA 0,00 0,00 7.506,70 0,00 0,00 0,00 0,00 2.105,00 9.611,70 876,95 1.350,72 0,00 0,00 2.227,67 7.384,03 31/10/2023
251 377400 ANDEIRSON DA MATTA BARBOSA ANALISTA DO MP POUSO ALEGRE - COMARCA; POUSO ALEGRE-PJ-01PJ 12.343,61 3.703,08 0,00 0,00 0,00 0,00 0,00 3.055,00 19.101,69 2.348,42 2.882,06 0,00 0,00 5.230,48 13.871,21 31/10/2023
252 317400 ANDERSON DA SILVA BICALHO OFICIAL DO MP CONTAGEM - COMARCA; CONTAGEM-PJ-SECRETARIA 12.343,61 3.703,08 0,00 0,00 0,00 0,00 0,00 2.105,00 18.151,69 2.348,42 2.725,65 0,00 0,00 5.074,07 13.077,62 31/10/2023
253 506900 ANDERSON DE SOUZA DAMIANI ANALISTA DO MP BELO HORIZONTE - COMARCA; DIRETORIA DE PAGAMENTO DE PESSOAL-DPAG 12.343,61 4.937,44 5.538,92 0,00 0,00 0,00 0,00 2.105,00 24.924,97 2.545,92 4.638,27 0,00 0,00 7.184,19 17.740,78 31/10/2023
254 410000 ANDERSON DE SOUZA NETO ASSESSOR ADMINISTRATIVO II BELO HORIZONTE - COMARCA; DIRETORIA DE ADMINISTRACAO FINANCEIRA 0,00 0,00 7.506,70 0,00 0,00 0,00 0,00 2.105,00 9.611,70 876,95 1.350,72 0,00 0,00 2.227,67 7.384,03 31/10/2023
255 181900 ANDERSON FLAVIO DE OLIVEIRA OFICIAL DO MP ITAGUARA - COMARCA; ITAGUARA-PJ-SECRETARIA 18.720,84 7.488,34 0,00 0,00 8.736,39 0,00 0,00 2.105,00 37.050,57 3.974,42 7.632,11 0,00 0,00 11.606,53 25.444,04 31/10/2023
256 333200 ANDERSON JOSE DE FREITAS OFICIAL DO MP IPATINGA - COMARCA; IPATINGA-PJ-04PJ 12.343,61 3.703,08 0,00 0,00 0,00 0,00 1.771,66 3.055,00 20.873,35 2.348,42 3.212,86 0,00 0,00 5.561,28 15.312,07 31/10/2023
257 699400 ANDERSON LUIZ CABRAL ASSESSOR PROMOTOR JUSTICA ALÉM PARAÍBA - COMARCA; ALEM PARAIBA-PJ-03PJ 0,00 0,00 8.810,89 0,00 0,00 0,00 0,00 2.105,00 10.915,89 876,95 1.709,37 0,00 0,00 2.586,32 8.329,57 31/10/2023
258 462100 ANDERSON LUIZ GUIMARAES CARDOSO ANALISTA DO MP BARBACENA - COMARCA; BARBACENA-PJ-02PJ 15.447,01 4.016,22 0,00 0,00 0,00 0,00 2.483,87 2.648,76 24.595,86 3.098,30 3.964,71 0,00 0,00 7.063,01 17.532,85 31/10/2023
259 429700 ANDERSON MELO DE SOUZA COORDENADOR II BELO HORIZONTE - COMARCA; DIRET DE ESTAGIOS E CONVENIOS ACADEMICOS 20.533,67 4.106,73 0,00 0,00 0,00 0,00 0,00 2.105,00 26.745,40 1.222,23 5.555,04 0,00 0,00 6.777,27 19.968,13 31/10/2023
260 545600 ANDERSON MENDES PROCOPIO FERREIRA ANALISTA DO MP BELO HORIZONTE - COMARCA; BH-12PJ JUIZO CRIMINAL-GAB 089PJ 12.343,61 2.468,72 0,00 0,00 0,00 0,00 0,00 2.105,00 16.917,33 2.150,92 2.596,93 0,00 0,00 4.747,85 12.169,48 31/10/2023
261 519900 ANDERSON MOREIRA DOEHLER ANALISTA DO MP TEÓFILO OTONI - COMARCA; COORD REG SAUDE MACRORREGIAO SANIT NORDESTE 12.343,61 4.937,44 0,00 0,00 0,00 0,00 570,27 8.326,18 26.177,50 2.545,92 3.167,20 0,00 0,00 5.713,12 20.464,38 31/10/2023
262 103000 ANDERSON TADEU DE DEUS ASSESSOR ADMINISTRATIVO II BELO HORIZONTE - COMARCA; BH-26 CRIME CONT CRIAN ADOL-SECRETARIA 0,00 6.005,36 7.506,70 0,00 0,00 0,00 0,00 6.609,02 20.121,08 876,95 3.002,20 0,00 0,00 3.879,15 16.241,93 31/10/2023
263 309200 ANDITYAS SOARES DE MOURA COSTA MATOS ANALISTA DO MP BELO HORIZONTE - COMARCA; GABINETE DE PROCURADOR DE JUSTIÇA - SALA 909 21.346,53 8.538,61 0,00 0,00 877,58 0,00 12.842,19 2.105,00 45.709,91 6.369,90 8.929,41 0,00 0,00 15.299,31 30.410,60 31/10/2023
264 519200 ANDRE BORJA LANA ANALISTA DO MP BELO HORIZONTE - COMARCA; DIR CONTEUDO JORNALISTICO 12.343,61 2.468,72 0,00 0,00 0,00 0,00 0,00 3.055,00 17.867,33 2.150,92 2.596,93 0,00 0,00 4.747,85 13.119,48 31/10/2023
265 637200 ANDRE FERNANDES DA CUNHA OFICIAL DO MP MORADA NOVA DE MINAS - COMARCA; MORADA NOVA DE MINAS-PJ-UNPJ 7.506,70 750,67 0,00 0,00 0,00 0,00 0,00 2.105,00 10.362,37 982,16 1.115,72 0,00 0,00 2.097,88 8.264,49 31/10/2023
266 651500 ANDRE GONCALVES MARANHAO OFICIAL DO MP ANDRADAS - COMARCA; ANDRADAS-PJ-02PJ 6.603,76 660,38 0,00 0,00 2.421,38 0,00 0,00 2.105,00 11.790,52 944,43 1.518,84 0,00 0,00 2.463,27 9.327,25 31/10/2023
267 521900 ANDRE LUIS GOMES SILVA ANALISTA DO MP FORMIGA - COMARCA; FORMIGA-PJ-02PJ 12.343,61 2.468,72 0,00 0,00 0,00 0,00 0,00 4.480,00 19.292,33 2.150,92 2.043,38 0,00 0,00 4.194,30 15.098,03 31/10/2023
268 304300 ANDRE LUIZ AVELAR ANALISTA DO MP BELO HORIZONTE - COMARCA; DIRETORIA DE REDES E BANCOS DE DADOS 10.341,72 3.102,52 0,00 0,00 4.481,41 0,00 0,00 2.105,00 20.030,65 1.932,03 3.461,15 0,00 0,00 5.393,18 14.637,47 31/10/2023
269 397400 ANDRE PATARO MYRRHA DE PAULA E SILVA ANALISTA DO MP BELO HORIZONTE - COMARCA; ASSESSORIA JURIDICO-ADMINISTRATIVA 20.533,67 6.160,10 0,00 0,00 0,00 0,00 0,00 3.055,00 29.748,77 4.051,95 5.341,54 0,00 0,00 9.393,49 20.355,28 31/10/2023
270 650100 ANDRE THOME VARGAS OFICIAL DO MP LEOPOLDINA - COMARCA; LEOPOLDINA-PJ-04PJ 7.270,07 727,01 0,00 0,00 0,00 0,00 0,00 2.105,00 10.102,08 982,16 1.044,14 0,00 0,00 2.026,30 8.075,78 31/10/2023
271 548500 ANDRE VINICIUS CARVALHO MEIRA ANALISTA DO MP JUIZ DE FORA - COMARCA; JUIZ DE FORA-PJ-24PJ 12.343,61 2.468,72 0,00 0,00 0,00 0,00 0,00 2.105,00 16.917,33 982,16 2.767,68 0,00 0,00 3.749,84 13.167,49 31/10/2023
272 297200 ANDRE WILLE ROSARIO ANALISTA DO MP BELO HORIZONTE - COMARCA; ASSESSORIA ESPECIAL DO PGJ 23.070,31 6.921,09 0,00 0,00 0,00 0,00 3.209,29 2.753,88 35.954,57 4.778,44 6.286,13 0,00 0,00 11.064,57 24.890,00 31/10/2023
273 423600 ANDREA COSTA GUALBERTO ALVES ANALISTA DO MP GOVERNADOR VALADARES - COMARCA; COORD REG PJ DEF EDU DIR CRIANCA ADOL RIODOCE 18.130,77 14.504,62 0,00 0,00 0,00 9.802,60 916,26 2.105,00 45.459,25 5.149,21 8.289,61 0,00 0,00 13.438,82 32.020,43 31/10/2023
274 467300 ANDREA DE CASSIA PENNA ALVERNAZ ANALISTA DO MP PONTE NOVA - COMARCA; PONTE NOVA-PJ-01PJ 12.343,61 2.468,72 0,00 0,00 0,00 0,00 0,00 2.105,00 16.917,33 2.150,92 2.544,79 0,00 0,00 4.695,71 12.221,62 31/10/2023
275 308000 ANDREA DE CASSIA SANTOS OLIVEIRA ANALISTA DO MP BELO HORIZONTE - COMARCA; COORD DE GABINETE DO PGJ 23.070,31 6.921,09 0,00 0,00 0,00 0,00 6.238,76 2.105,00 38.335,16 5.250,47 7.086,95 0,00 0,00 12.337,42 25.997,74 31/10/2023
276 349500 ANDREA DE OLIVEIRA LOIOLA REGIS OFICIAL DO MP IGUATAMA - COMARCA; IGUATAMA-PJ-UNPJ 12.343,61 3.703,08 0,00 0,00 0,00 0,00 0,00 2.105,00 18.151,69 2.348,42 2.777,79 0,00 0,00 5.126,21 13.025,48 31/10/2023
277 287900 ANDREA FERNANDES PENA MARTINS OFICIAL DO MP MONTES CLAROS - COMARCA; MONTES CLAROS-PJ-09PJ 12.343,61 3.703,08 0,00 0,00 0,00 0,00 0,00 2.105,00 18.151,69 2.348,42 2.777,79 0,00 0,00 5.126,21 13.025,48 31/10/2023
278 300800 ANDREA FERREIRA ANALISTA DO MP LAVRAS - COMARCA; LAVRAS-PJ-04PJ 22.191,68 6.657,50 0,00 0,00 0,00 0,00 5.101,00 3.545,96 37.496,14 4.892,18 6.554,61 0,00 0,00 11.446,79 26.049,35 31/10/2023
279 395100 ANDREA LANNA MENDES NOVAIS ANALISTA DO MP BELO HORIZONTE - COMARCA; PROMOT ESTADUAL DE DEF PATRI CULT E TUR DE MG 20.533,67 6.160,10 0,00 0,00 0,00 0,00 0,00 2.105,00 28.798,77 4.051,95 5.289,40 0,00 0,00 9.341,35 19.457,42 31/10/2023
280 67300 ANDREA LEAO MAGALHAES ROQUE ASSESSOR ADMINISTRATIVO IV BELO HORIZONTE - COMARCA; GRUPO ATUACAO ESP COMB CRIMES CIBER 0,00 11.590,57 14.488,22 0,00 0,00 0,00 0,00 2.105,00 28.183,79 876,95 6.405,91 0,00 0,00 7.282,86 20.900,93 31/10/2023
281 335700 ANDREA LOPES PEREIRA ANALISTA DO MP GOVERNADOR VALADARES - COMARCA; COORD REG DO MA DA BACIA DO RIO DOCE 23.070,31 6.921,09 0,00 0,00 0,00 0,00 1.765,29 2.105,00 33.861,69 4.579,57 6.103,29 0,00 0,00 10.682,86 23.178,83 31/10/2023
282 419000 ANDREIA BARBOSA DE ALMEIDA ANALISTA DO MP BELO HORIZONTE - COMARCA; CENT ESTAD COOPERACAO TECNICO-JURIDICA 18.130,77 3.626,15 0,00 0,00 759,80 0,00 9.643,09 4.019,69 36.179,50 4.562,87 6.288,13 0,00 0,00 10.851,00 25.328,50 31/10/2023
283 281501 ANDREIA CARLA COSTA ANALISTA DO MP UBÁ - COMARCA; UBA-PJ-02PJ 18.720,84 4.867,42 0,00 0,00 0,00 0,00 0,00 2.105,00 25.693,26 3.555,07 4.624,17 0,00 0,00 8.179,24 17.514,02 31/10/2023
284 477100 ANDREIA DE ALMEIDA RIBEIRO MELO OFICIAL DO MP CONTAGEM - COMARCA; CONTAGEM-PJ-SECRETARIA 10.858,90 3.257,67 0,00 0,00 0,00 0,00 0,00 2.105,00 16.221,57 2.039,60 2.436,21 0,00 0,00 4.475,81 11.745,76 31/10/2023
285 619000 ANDREIA FERREIRA NORONHA COORDENADOR II BELO HORIZONTE - COMARCA; DIRETORIA DE SERVICO CRIMINAL 20.533,67 2.053,37 0,00 0,00 0,00 0,00 0,00 2.105,00 24.692,04 1.102,13 5.023,39 0,00 0,00 6.125,52 18.566,52 31/10/2023
286 747000 ANDREIA FERREIRA TIAGO OFICIAL DO MP SÃO JOÃO DA PONTE - COMARCA; SAO JOAO DA PONTE-PJ-UNPJ 4.570,25 0,00 0,00 0,00 0,00 0,00 0,00 3.055,00 7.625,25 526,88 257,78 0,00 0,00 784,66 6.840,59 31/10/2023
287 424000 ANDREIA LUCIA COUTO ANALISTA DO MP BELO HORIZONTE - COMARCA; BH-18PJ DIREITOS HUMANOS-SECRETARIA 18.720,84 3.744,17 0,00 0,00 0,00 0,00 0,00 2.105,00 24.570,01 3.375,35 4.364,70 0,00 0,00 7.740,05 16.829,96 31/10/2023
288 370100 ANDREIA MARIA SILVA PINTO OFICIAL DO MP CORONEL FABRICIANO - COMARCA; CORONEL FABRICIANO-PJ-01PJ 12.343,61 3.703,08 0,00 0,00 0,00 0,00 0,00 3.055,00 19.101,69 982,16 3.081,66 0,00 0,00 4.063,82 15.037,87 31/10/2023
289 382100 ANDREIA NATALI PEREIRA DE OLIVEIRA OFICIAL DO MP PRADOS - COMARCA; PRADOS-PJ-UNPJ 12.343,61 3.703,08 0,00 0,00 0,00 0,00 0,00 2.105,00 18.151,69 2.348,42 2.882,06 0,00 0,00 5.230,48 12.921,21 31/10/2023
290 275200 ANDREIA RIBEIRO FREITAS OFICIAL DO MP VIÇOSA - COMARCA; VICOSA-PJ-04PJ 13.588,97 5.435,59 0,00 0,00 0,00 0,00 0,00 2.105,00 21.129,56 2.824,88 3.517,81 0,00 0,00 6.342,69 14.786,87 31/10/2023
291 352200 ANDREIA XAVIER PEREIRA OFICIAL DO MP DIVINÓPOLIS - COMARCA; DIVINOPOLIS-PJ-08PJ 12.343,61 3.703,08 0,00 0,00 0,00 0,00 0,00 3.530,00 19.576,69 2.348,42 2.882,06 0,00 0,00 5.230,48 14.346,21 31/10/2023
292 638500 ANDRESA ALVES FEITOSA CASAGRANDE ANALISTA DO MP LAVRAS - COMARCA; COORD REG DO MA DA BACIA DO RIO GRANDE 11.577,56 1.157,76 0,00 0,00 0,00 0,00 0,00 2.105,00 14.840,32 982,16 2.347,16 0,00 0,00 3.329,32 11.511,00 31/10/2023
293 383700 ANDRESSA EDUARDO SOUZA ANALISTA DO MP OURO BRANCO - COMARCA; OURO BRANCO-PJ-SECRETARIA 20.533,67 6.160,10 0,00 0,00 0,00 0,00 71,27 3.055,00 29.820,04 4.051,95 5.341,54 0,00 0,00 9.393,49 20.426,55 31/10/2023
294 678400 ANDRESSA LUIZA SILVA LOPES ASSESSOR PROMOTOR JUSTICA CARMO DO PARANAÍBA - COMARCA; CARMO DO PARANAIBA-PJ-02PJ 0,00 0,00 8.810,89 0,00 2.936,96 0,00 0,00 2.105,00 13.852,85 876,95 2.517,04 0,00 0,00 3.393,99 10.458,86 31/10/2023
295 426200 ANDRESSA MENDES CASAL OFICIAL DO MP BELO HORIZONTE - COMARCA; DIR ESTRUTURA E PROCESSOS ORGANIZACIONAIS 10.516,49 2.103,30 0,00 0,00 0,00 0,00 0,00 3.055,00 15.674,79 1.800,11 2.038,31 0,00 0,00 3.838,42 11.836,37 31/10/2023
296 390100 ANDRESSA RIBEIRO PUCCI OFICIAL DO MP UBERABA - COMARCA; UBERABA-PJ-14PJ 9.699,77 1.939,95 0,00 0,00 0,00 0,00 0,00 2.105,00 13.744,72 1.643,30 1.864,06 0,00 0,00 3.507,36 10.237,36 31/10/2023
297 462500 ANDREZA APARECIDA COSTA E SILVA ANALISTA DO MP CONSELHEIRO LAFAIETE - COMARCA; CONSELHEIRO LAFAIETE-PJ-02PJ 12.343,61 2.468,72 0,00 0,00 0,00 0,00 0,00 4.005,00 18.817,33 982,16 2.767,68 0,00 0,00 3.749,84 15.067,49 31/10/2023
298 677700 ANDREZA DE LOURDES FERREIRA DE PAIVA ASSESSOR PROMOTOR JUSTICA ABRE CAMPO - COMARCA; ABRE CAMPO-PJ-01PJ 0,00 0,00 8.810,89 0,00 0,00 0,00 0,00 2.105,00 10.915,89 876,95 1.709,37 0,00 0,00 2.586,32 8.329,57 31/10/2023
299 537800 ANDREZZA LUZIA DE OLIVEIRA ALVES ANALISTA DO MP PATOS DE MINAS - COMARCA; COORD REG PJ DEF EDU DIR CRI ADO AL PAR NOROE 12.343,61 2.468,72 0,00 0,00 0,00 0,00 0,00 2.105,00 16.917,33 2.150,92 2.544,79 0,00 0,00 4.695,71 12.221,62 31/10/2023
300 491600 ANE PATRICIA RIBEIRO DUARTE ANALISTA DO MP SETE LAGOAS - COMARCA; SETE LAGOAS-PJ-11PJ 12.343,61 2.468,72 0,00 0,00 0,00 0,00 0,00 2.105,00 16.917,33 2.150,92 2.544,79 0,00 0,00 4.695,71 12.221,62 31/10/2023
301 465800 ANELISE GAMA ASSESSOR ADMINISTRATIVO III BELO HORIZONTE - COMARCA; BH-18PJ VIOLENCIA DOMESTICA-SECRETARIA 0,00 0,00 10.858,90 0,00 0,00 0,00 0,00 2.105,00 12.963,90 876,95 2.272,58 0,00 0,00 3.149,53 9.814,37 31/10/2023
302 535200 ANELIZE FERNANDA ALVES VILARINHO OFICIAL DO MP CAPINÓPOLIS - COMARCA; CAPINOPOLIS-PJ-UNPJ 7.506,70 1.501,34 0,00 0,00 0,00 0,00 0,00 4.005,00 13.013,04 1.222,23 1.256,14 0,00 0,00 2.478,37 10.534,67 31/10/2023
303 197200 ANGELA COELHO SALDANHA OFICIAL DO MP PARÁ DE MINAS - COMARCA; PARA DE MINAS-PJ-03PJ 22.191,68 11.095,84 0,00 0,00 0,00 0,00 4.502,39 2.105,00 39.894,91 5.541,08 7.491,48 0,00 0,00 13.032,56 26.862,35 31/10/2023
304 307400 ANGELA CRISTINA GONCALVES MUNIZ ANALISTA DO MP UBERLÂNDIA - COMARCA; UBERLANDIA-PJ-SEC FAMILIA 23.070,31 9.228,12 0,00 0,00 0,00 0,00 5.932,58 7.272,75 45.503,76 5.499,13 7.326,63 0,00 0,00 12.825,76 32.678,00 31/10/2023
305 191800 ANGELA MARIA DE OLIVEIRA OFICIAL DO MP GUARANÉSIA - COMARCA; GUARANESIA-PJ-SECRETARIA 22.191,68 17.753,35 0,00 272,02 1.233,94 7.671,75 16.007,12 7.311,23 72.441,09 7.446,05 12.628,77 5.662,53 0,00 25.737,35 46.703,74 31/10/2023
306 497400 ANGELA MARIA HENRIQUES ANALISTA DO MP BELO HORIZONTE - COMARCA; COORD REG BACIAS RIO VELHAS E PARAOPEBA 12.343,61 2.468,72 0,00 0,00 0,00 0,00 0,00 2.105,00 16.917,33 2.150,92 2.596,93 0,00 0,00 4.747,85 12.169,48 31/10/2023
307 260700 ANGELICA CRISTINA AZEVEDO MOREIRA MOUCO OFICIAL DO MP UBÁ - COMARCA; UBA-PJ-05PJ 18.130,77 7.252,31 0,00 0,00 747,69 0,00 9.938,40 4.232,44 40.301,61 5.171,13 7.162,98 0,00 0,00 12.334,11 27.967,50 31/10/2023
308 708300 ANGELICA NUNES VIEIRA DA SILVA ASSESSOR PROMOTOR JUSTICA IBIRITÉ - COMARCA; IBIRITE-PJ-02PJ 0,00 0,00 8.810,89 0,00 2.936,96 0,00 0,00 2.105,00 13.852,85 876,95 2.517,04 0,00 0,00 3.393,99 10.458,86 31/10/2023
309 334600 ANGELICA PANISSA DE FREITAS GALLATI OFICIAL DO MP GUAXUPÉ - COMARCA; GUAXUPE-PJ-02PJ 12.343,61 4.937,44 0,00 0,00 0,00 0,00 0,00 3.055,00 20.336,05 2.545,92 3.115,06 0,00 0,00 5.660,98 14.675,07 31/10/2023
310 521100 ANGELICA SALES MOREIRA OFICIAL DO MP BELO HORIZONTE - COMARCA; BH-02PJ FAMILIA-SECRETARIA 10.516,49 2.103,30 0,00 0,00 0,00 0,00 0,00 2.105,00 14.724,79 1.800,11 2.090,45 0,00 0,00 3.890,56 10.834,23 31/10/2023
311 466500 ANGELLO MARQUES AGRELLI ANALISTA DO MP MAR DE ESPANHA - COMARCA; MAR DE ESPANHA-PJ-UNPJ 12.343,61 2.468,72 0,00 0,00 0,00 0,00 0,00 3.055,00 17.867,33 2.150,92 2.596,93 0,00 0,00 4.747,85 13.119,48 31/10/2023
312 363300 ANGELO VERDOLIN HENRIQUES ANALISTA DO MP SETE LAGOAS - COMARCA; SETE LAGOAS-PJ-04PJ 22.191,68 8.876,67 0,00 0,00 0,00 0,00 4.544,79 2.751,58 38.364,72 5.171,34 6.957,66 0,00 0,00 12.129,00 26.235,72 31/10/2023
313 250900 ANISIO APARECIDO SANTOS OFICIAL DO MP BETIM - COMARCA; BETIM - SECRETARIA DAS PJS CRIMINAIS 7.506,70 3.002,68 0,00 0,00 0,00 0,00 0,00 2.105,00 12.614,38 1.462,45 932,38 0,00 0,00 2.394,83 10.219,55 31/10/2023
314 698100 ANNA CAROLINA POLICARIO BERTOLIN ASSESSOR PROCURADOR JUSTICA BELO HORIZONTE - COMARCA; PROC. JUSTICA DIR. DIFUSOS E COLETIVOS-SEC 0,00 0,00 8.810,89 0,00 0,00 0,00 670,00 2.105,00 11.585,89 876,95 1.709,37 0,00 0,00 2.586,32 8.999,57 31/10/2023
315 253400 ANNA FLAVIA LEHMAN ANALISTA DO MP BELO HORIZONTE - COMARCA; SUPRIN DE PLANEJAMENTO E COORDENACAO 23.070,31 9.228,12 8.404,02 0,00 0,00 0,00 275,66 5.112,20 46.090,31 4.948,70 7.934,97 3.112,49 0,00 15.996,16 30.094,15 31/10/2023
316 688800 ANNA LUIZA MATTOS DUARTE ASSESSOR PROCURADOR JUSTICA BELO HORIZONTE - COMARCA; GABINETE DE PROCURADOR DE JUSTICA - SALA 311 0,00 0,00 8.810,89 0,00 0,00 0,00 0,00 2.105,00 10.915,89 876,95 1.709,37 0,00 0,00 2.586,32 8.329,57 31/10/2023
317 752100 ANNABELLA ZAVOLI VILLARINHO CARDOSO OFICIAL DO MP ALÉM PARAÍBA - COMARCA; ALEM PARAIBA-PJ-01PJ 4.570,25 0,00 0,00 0,00 0,00 0,00 1.371,08 3.187,27 9.128,60 739,39 545,57 0,00 0,00 1.284,96 7.843,64 31/10/2023
318 447600 ANNGELUCE ALCANTARA DE CAMPOS OFICIAL DO MP DIVINÓPOLIS - COMARCA; DIVINOPOLIS-PJ-07PJ 10.516,49 3.154,95 0,00 0,00 0,00 0,00 0,00 2.105,00 15.776,44 1.968,38 2.333,38 0,00 0,00 4.301,76 11.474,68 31/10/2023
319 630300 ANTONIA GOMES RAMALHO OFICIAL DO MP NOVO CRUZEIRO - COMARCA; NOVO CRUZEIRO-PJ-UNPJ 7.506,70 750,67 0,00 0,00 0,00 0,00 0,00 4.005,00 12.262,37 1.102,13 1.082,73 0,00 0,00 2.184,86 10.077,51 31/10/2023
320 401600 ANTONIO CARLOS GUEDES AROUCA ANALISTA DO MP BELO HORIZONTE - COMARCA; ASSESSORIA JURIDICO-ADMINISTRATIVA 17.005,40 3.401,08 0,00 0,00 0,00 0,00 0,00 2.105,00 22.511,48 3.045,99 3.889,17 0,00 0,00 6.935,16 15.576,32 31/10/2023
321 333900 ANTONIO GONCALVES DE SOUZA FILHO OFICIAL DO MP BELO HORIZONTE - COMARCA; DIRETORIA DE CONTABILIDADE 12.343,61 3.703,08 0,00 0,00 0,00 0,00 0,00 2.105,00 18.151,69 2.348,42 2.882,06 0,00 0,00 5.230,48 12.921,21 31/10/2023
322 176100 ANTONIO MARCELO CAMPOS CAMPANELLA OFICIAL DO MP BELO HORIZONTE - COMARCA; COORD DE GABINETE DO PGJ 22.191,68 11.095,84 0,00 0,00 1.154,61 0,00 13.931,50 4.183,31 52.556,94 6.954,33 9.849,36 0,00 0,00 16.803,69 35.753,25 31/10/2023
323 321001 ANTONIO OLINTO VIEIRA MACHADO ANALISTA DO MP BELO HORIZONTE - COMARCA; CENTRAL DE APOIO TECN-SETOR DE MEIO AMBIENTE 20.533,67 6.160,10 0,00 0,00 0,00 4.051,95 0,00 2.105,00 32.850,72 4.051,95 6.351,55 0,00 0,00 10.403,50 22.447,22 31/10/2023
324 356200 ANTONIO PAULA DA SILVA OFICIAL DO MP JUIZ DE FORA - COMARCA; JUIZ DE FORA-PJ-20PJ 12.343,61 4.937,44 0,00 0,00 0,00 0,00 0,00 2.105,00 19.386,05 2.545,92 3.167,20 0,00 0,00 5.713,12 13.672,93 31/10/2023
325 119900 ANTONIO RODRIGUES DE PINHO OFICIAL DO MP GUANHÃES - COMARCA; GUANHAES-PJ-01PJ 21.346,53 17.077,23 0,00 0,00 0,00 0,00 0,00 2.105,00 40.528,76 5.795,34 7.806,42 833,80 0,00 14.435,56 26.093,20 31/10/2023
326 373300 ANTONIO SERGIO ANANIAS OFICIAL DO MP SÃO JOÃO NEPOMUCENO - COMARCA; SAO JOAO NEPOMUCENO-PJ-01PJ 12.343,61 3.703,08 0,00 0,00 0,00 0,00 0,00 2.105,00 18.151,69 982,16 3.205,65 0,00 0,00 4.187,81 13.963,88 31/10/2023
327 608100 ANTONIO SIDINEY VIEIRA LEMOS ANALISTA DO MP PIRAPORA - COMARCA; PIRAPORA-PJ-01PJ 12.343,61 6.171,81 0,00 0,00 0,00 0,00 0,00 3.055,00 21.570,42 2.743,42 3.400,20 0,00 0,00 6.143,62 15.426,80 31/10/2023
328 374700 ANTONIO SILVA NETO OFICIAL DO MP BELO HORIZONTE - COMARCA; GAECO - SECRETARIA 12.343,61 3.703,08 0,00 0,00 0,00 0,00 0,00 3.055,00 19.101,69 2.348,42 2.882,06 0,00 0,00 5.230,48 13.871,21 31/10/2023
329 636700 ANTONIUS VITORIANO FERNANDES OFICIAL DO MP BELO HORIZONTE - COMARCA; ASSESSORIA JURIDICA DO PROCON-MG 6.818,83 681,88 0,00 0,00 0,00 0,00 0,00 2.105,00 9.605,71 981,10 907,93 0,00 0,00 1.889,03 7.716,68 31/10/2023
330 413200 ANY PEREIRA SILVA ANALISTA DO MP TRÊS PONTAS - COMARCA; TRES PONTAS-PJ-01PJ 18.130,77 3.626,15 0,00 0,00 0,00 0,00 6.000,89 3.599,86 31.357,67 3.991,46 5.254,21 0,00 0,00 9.245,67 22.112,00 31/10/2023
331 151401 APARECIDA DE FATIMA MENDES DE ALMEIDA ASSESSOR ADMINISTRATIVO II JUIZ DE FORA - COMARCA; JUIZ DE FORA-PJ-SECRETARIA 0,00 0,00 7.506,70 0,00 0,00 0,00 0,00 2.105,00 9.611,70 876,95 1.350,72 0,00 0,00 2.227,67 7.384,03 31/10/2023
332 329300 APARECIDA MARIA MELO DE ASSIS OFICIAL DO MP BELO HORIZONTE - COMARCA; BH-18PJ DIREITOS HUMANOS-SECRETARIA 12.343,61 3.703,08 0,00 0,00 0,00 0,00 0,00 2.105,00 18.151,69 2.348,42 2.882,06 0,00 0,00 5.230,48 12.921,21 31/10/2023
333 653000 APARECIDA ROSA DE LIMA ASSESSOR ADMINISTRATIVO III BELO HORIZONTE - COMARCA; SECRETARIA PROCESSOS DISCIPES ADMINISTRATIVOS 0,00 0,00 10.858,90 0,00 0,00 0,00 0,00 2.105,00 12.963,90 876,95 2.272,58 0,00 0,00 3.149,53 9.814,37 31/10/2023
334 354500 APARECIDA VIEIRA DE CARVALHO OFICIAL DO MP BELO HORIZONTE - COMARCA; DIVISÃO DE EDUCAÇÃO PARA O CONSUMO 10.858,90 3.257,67 0,00 0,00 0,00 0,00 0,00 2.105,00 16.221,57 2.039,60 2.436,21 0,00 0,00 4.475,81 11.745,76 31/10/2023
335 551000 ARACELES BICALHO FELIX ANALISTA DO MP MANHUAÇU - COMARCA; MANHUACU-PJ-06PJ 12.343,61 2.468,72 0,00 0,00 0,00 0,00 0,00 4.005,00 18.817,33 2.150,92 2.596,93 0,00 0,00 4.747,85 14.069,48 31/10/2023
336 286200 ARACELI MEDRADO DOS SANTOS LIMA OFICIAL DO MP PARACATU - COMARCA; PARACATU-PJ-03PJ 7.506,70 2.252,01 0,00 0,00 0,00 0,00 0,00 3.055,00 12.813,71 1.342,34 1.429,54 0,00 0,00 2.771,88 10.041,83 31/10/2023
337 112200 ARAQUEM AUGUSTO DE MATOS AGENTE DO MP BELO HORIZONTE - COMARCA; BH-23PJ CIVEL-SEC EXP CIVEIS 13.588,97 12.230,08 0,00 0,00 9.910,35 3.917,12 900,42 2.105,00 42.651,94 3.912,00 8.836,35 0,00 0,00 12.748,35 29.903,59 31/10/2023
338 280600 ARDUINO FRATTEZI ANALISTA DO MP BELO HORIZONTE - COMARCA; CENTRAL DE APOIO TECNICO-SETOR CONTABIL 23.070,31 9.228,12 0,00 0,00 0,00 0,00 5.516,32 2.753,88 40.568,63 5.516,69 7.456,25 0,00 0,00 12.972,94 27.595,69 31/10/2023
339 520201 ARIANE DE FATIMA CARVALHO ALMEIDA RODRIGUES ANALISTA DO MP VESPASIANO - COMARCA; VESPASIANO-PJ-SECRETARIA 12.343,61 1.234,36 0,00 0,00 0,00 0,00 0,00 3.530,00 17.107,97 1.953,42 2.155,38 0,00 0,00 4.108,80 12.999,17 31/10/2023
340 537600 ARIELA FREIRE MONTIJO ANALISTA DO MP ARCOS - COMARCA; ARCOS-PJ-01PJ 12.343,61 2.468,72 0,00 0,00 0,00 0,00 0,00 2.105,00 16.917,33 2.150,92 2.492,65 0,00 0,00 4.643,57 12.273,76 31/10/2023
341 182000 ARILSON ALEXANDRE MARTINS MAGALHAES OFICIAL DO MP JOÃO MONLEVADE - COMARCA; JOAO MONLEVADE-PJ-01PJ 21.346,53 10.673,27 0,00 0,00 1.012,59 0,00 9.750,70 6.571,39 49.354,48 6.454,45 8.827,93 0,00 0,00 15.282,38 34.072,10 31/10/2023
342 511000 ARISLANE CAROLINA DA SILVA ANALISTA DO MP MONTE CARMELO - COMARCA; MONTE CARMELO-PJ-02PJ 12.343,61 2.468,72 0,00 0,00 0,00 0,00 0,00 4.005,00 18.817,33 2.150,92 2.596,93 0,00 0,00 4.747,85 14.069,48 31/10/2023
343 170000 ARLEY BRITES DA SILVA ASSESSOR ADMINISTRATIVO II BELO HORIZONTE - COMARCA; BH-14PJ DEFESA CONSUMIDOR-SECRETARIA 0,00 3.753,35 7.506,70 0,00 0,00 0,00 0,00 4.732,35 15.992,40 876,95 1.632,41 0,00 0,00 2.509,36 13.483,04 31/10/2023
344 120400 ARLINDO CASSIO DA CRUZ OFICIAL DO MP SÃO GONÇALO DO SAPUCAÍ - COMARCA; SAO GONCALO DO SAPUCAI-PJ-01PJ 23.070,31 20.763,28 0,00 0,00 0,00 5.795,34 0,00 2.105,00 51.733,93 5.795,34 9.348,00 6.243,63 0,00 21.386,97 30.346,96 31/10/2023
345 243700 ARLINDO MARCIO LACERDA OFICIAL DO MP CONTAGEM - COMARCA; CONTAGEM-PJ-SECRETARIA 18.130,77 9.065,39 0,00 0,00 950,32 0,00 8.586,60 2.105,00 38.838,08 5.161,40 7.797,25 0,00 0,00 12.958,65 25.879,43 31/10/2023
346 392100 ARNALDO DE ANDRADE OFICIAL DO MP DIVINÓPOLIS - COMARCA; DIVINOPOLIS-PJ-02PJ 12.343,61 4.443,70 0,00 0,00 0,00 0,00 1.771,66 3.055,00 21.613,97 2.466,92 3.488,22 0,00 0,00 5.955,14 15.658,83 31/10/2023
347 642400 ARTANE INARDE DE SIQUEIRA DAMASCENO ANALISTA DO MP BELO HORIZONTE - COMARCA; SECRETARIA DE ASSUNTOS INTERNACIONAIS 10.341,72 1.034,17 0,00 0,00 3.791,96 0,00 0,00 3.530,00 18.697,85 982,16 2.936,32 0,00 0,00 3.918,48 14.779,37 31/10/2023
348 733000 ARTHUR BRANDAO ALBUQUERQUE ASSESSOR ADMINISTRATIVO II BELO HORIZONTE - COMARCA; DIRETORIA DE PAGAMENTO DE PESSOAL-DPAG 0,00 0,00 7.506,70 0,00 0,00 0,00 670,00 2.105,00 10.281,70 876,95 1.350,72 0,00 0,00 2.227,67 8.054,03 31/10/2023
349 302100 AUGUSTO ROUSSEAU DE CASTRO ANALISTA DO MP CATAGUASES - COMARCA; CATAGUASES-PJ-02PJ 23.070,31 6.921,09 0,00 0,00 0,00 0,00 0,00 2.105,00 32.096,40 4.579,57 6.103,29 0,00 0,00 10.682,86 21.413,54 31/10/2023
350 540200 AUREA AVELAR BITTENCOURT OFICIAL DO MP BELO HORIZONTE - COMARCA; GRUPO ESP PROM JUST DEF PROB ADM PAT PUB 7.506,70 1.501,34 0,00 0,00 0,00 0,00 0,00 2.105,00 11.113,04 982,16 1.208,12 0,00 0,00 2.190,28 8.922,76 31/10/2023
351 633501 AUREA GONTIJO BIRCHAL ASSESSOR DE GABINETE I BELO HORIZONTE - COMARCA; PROCURADOR-GERAL DE JUSTIÇA 0,00 0,00 18.130,77 0,00 0,00 0,00 0,00 2.105,00 20.235,77 876,95 4.272,34 0,00 0,00 5.149,29 15.086,48 31/10/2023
352 183200 AURELIANO MAGELA DE REZENDE OFICIAL DO MP BELO HORIZONTE - COMARCA; COORD DE GABINETE DO PGJ 23.070,31 9.228,12 6.160,10 0,00 0,00 0,00 11.254,18 3.917,57 53.630,28 6.086,00 10.211,25 868,57 0,00 17.165,82 36.464,46 31/10/2023
353 629400 AYESKA DA COSTA VAL MOURA DABIEN OFICIAL DO MP BELO HORIZONTE - COMARCA; BH-09PJ AUDITORIA MILITAR-SECRETARIA 7.506,70 750,67 0,00 0,00 0,00 0,00 0,00 2.105,00 10.362,37 1.102,13 1.082,73 0,00 0,00 2.184,86 8.177,51 31/10/2023
354 707400 AYMEE JOHANSSENN TYNEE CORREIA ALVES ASSESSOR PROMOTOR JUSTICA NOVA LIMA - COMARCA; NOVA LIMA-PJ-01PJ 0,00 0,00 8.810,89 0,00 0,00 0,00 0,00 2.105,00 10.915,89 876,95 1.709,37 0,00 0,00 2.586,32 8.329,57 31/10/2023
355 701600 BARBARA CHAVES OLIVEIRA ASSESSOR PROCURADOR JUSTICA BELO HORIZONTE - COMARCA; PROC. JUSTICA DIR. DIFUSOS E COLETIVOS-SEC 0,00 0,00 8.810,89 0,00 0,00 0,00 0,00 2.105,00 10.915,89 876,95 1.709,37 0,00 0,00 2.586,32 8.329,57 31/10/2023
356 691900 BARBARA COUTINHO REIS ASSESSOR PROCURADOR JUSTICA BELO HORIZONTE - COMARCA; GABINETE DE PROCURADOR DE JUSTIÇA - SALA 910 0,00 0,00 8.810,89 0,00 2.936,96 0,00 0,00 2.105,00 13.852,85 876,95 2.517,04 0,00 0,00 3.393,99 10.458,86 31/10/2023
357 692200 BARBARA CRISTINA MENDES BANDEIRA DE MELO DUTRA ASSESSOR PROCURADOR JUSTICA BELO HORIZONTE - COMARCA; GABINETE DE PROCURADOR DE JUSTIÇA - SALA 1009 0,00 0,00 8.810,89 0,00 0,00 0,00 0,00 2.105,00 10.915,89 876,95 1.709,37 0,00 0,00 2.586,32 8.329,57 31/10/2023
358 743300 BARBARA CRISTINA SOUZA E SOUSA ASSESSOR PROCURADOR JUSTICA BELO HORIZONTE - COMARCA; GABINETE DE PROCURADOR DE JUSTIÇA - SALA 513 0,00 0,00 8.810,89 0,00 0,00 0,00 0,00 2.105,00 10.915,89 876,95 1.709,37 0,00 0,00 2.586,32 8.329,57 31/10/2023
359 723400 BARBARA CRISTINA TAVARES CARNEIRO ASSESSOR PROCURADOR JUSTICA BELO HORIZONTE - COMARCA; PROC JUST ATUACAO TRIBUNAIS SUPERIORES-GAB008 0,00 0,00 8.810,89 0,00 0,00 0,00 0,00 2.105,00 10.915,89 876,95 1.709,37 0,00 0,00 2.586,32 8.329,57 31/10/2023
360 652800 BARBARA JULIANNE MOREIRA CASTRO ASSESSOR PROCURADOR JUSTICA BELO HORIZONTE - COMARCA; ASSESS TECNICO-JUR JUNTO AS PROC. DE JUST 0,00 0,00 8.810,89 0,00 0,00 0,00 0,00 2.105,00 10.915,89 876,95 1.709,37 0,00 0,00 2.586,32 8.329,57 31/10/2023
361 707700 BARBARA LOUISE PUFF DE OLIVEIRA ASSESSOR PROMOTOR JUSTICA RIBEIRÃO DAS NEVES - COMARCA; RIBEIRAO DAS NEVES-PJ-02PJ 0,00 0,00 8.810,89 0,00 0,00 0,00 0,00 2.105,00 10.915,89 876,95 1.709,37 0,00 0,00 2.586,32 8.329,57 31/10/2023
362 663600 BARBARA REGINA PEREIRA DE PINHO MAGALHAES ASSESSOR PROMOTOR JUSTICA BELO HORIZONTE - COMARCA; CAO-DH CONT EXT ATIV POLIC E AP COMUNIT 0,00 0,00 8.810,89 0,00 0,00 0,00 0,00 2.105,00 10.915,89 876,95 1.709,37 0,00 0,00 2.586,32 8.329,57 31/10/2023
363 546500 BARBARA ZACARONI GOULART OFICIAL DO MP BETIM - COMARCA; BETIM-PJ-08PJ 7.506,70 1.501,34 0,00 0,00 0,00 0,00 0,00 2.105,00 11.113,04 1.222,23 1.256,14 0,00 0,00 2.478,37 8.634,67 31/10/2023
364 316500 BEATRIZ ABILVIA DA SILVA ANALISTA DO MP GOVERNADOR VALADARES - COMARCA; GOVERNADOR VALADARES-PJ-07PJ 23.070,31 6.921,09 0,00 0,00 0,00 5.528,70 6.561,51 3.447,89 45.529,50 5.310,38 8.618,75 0,00 0,00 13.929,13 31.600,37 31/10/2023
365 311800 BEATRIZ APARECIDA SOARES GANEM OFICIAL DO MP ITAMBACURI - COMARCA; ITAMBACURI-PJ-02PJ 14.960,00 5.984,00 0,00 0,00 0,00 0,00 0,00 2.105,00 23.049,00 3.131,99 3.856,93 0,00 0,00 6.988,92 16.060,08 31/10/2023
366 266800 BEATRIZ AUGUSTA VILACA GOMES DE HUBER OFICIAL DO MP BELO HORIZONTE - COMARCA; BH-05PJ-JUÍZO SUCESSÕES-SEC 12.343,61 4.937,44 0,00 0,00 0,00 0,00 443,55 6.943,69 24.668,29 2.545,92 3.167,20 0,00 0,00 5.713,12 18.955,17 31/10/2023
367 235200 BEATRIZ BOTELHO BATISTA OFICIAL DO MP MATEUS LEME - COMARCA; MATEUS LEME-PJ-02PJ 12.343,61 4.937,44 0,00 0,00 0,00 0,00 0,00 2.105,00 19.386,05 2.545,92 3.167,20 0,00 0,00 5.713,12 13.672,93 31/10/2023
368 182300 BEATRIZ PAULA SOUSA RAMOS OFICIAL DO MP MARIANA - COMARCA; MARIANA-PJ-01PJ 21.346,53 10.673,27 0,00 0,00 2.025,18 0,00 8.731,75 3.385,79 46.162,52 6.282,41 9.118,69 0,00 0,00 15.401,10 30.761,42 31/10/2023
369 507000 BELCHIOR FRANKLIN AMARAL LEITE ANALISTA DO MP BELO HORIZONTE - COMARCA; CAO ORGAOS MPMG DESIG FUNC ELEITORAIS-SEC 14.960,00 3.889,60 0,00 0,00 0,00 0,00 0,00 3.055,00 21.904,60 2.796,88 3.373,13 0,00 0,00 6.170,01 15.734,59 31/10/2023
370 345100 BENITO ELIAS RODRIGUES ANALISTA DO MP BARBACENA - COMARCA; BARBACENA - SECRETARIA DAS PJS CRIMINAIS 22.191,68 6.657,50 0,00 0,00 0,00 0,00 4.627,31 3.775,48 37.251,97 4.834,16 6.418,72 0,00 0,00 11.252,88 25.999,09 31/10/2023
371 207300 BENITO VIEIRA DOS SANTOS ANALISTA DO MP BELO HORIZONTE - COMARCA; PROC JUST ESP ACOES COMP ORIG CRIMINAL-ASSESS 23.070,31 11.535,16 0,00 559,04 1.342,64 8.417,05 16.883,33 4.093,32 65.900,85 7.633,83 10.236,49 0,00 0,00 17.870,32 48.030,53 31/10/2023
372 480200 BERNADETE NUNES DOS SANTOS ANALISTA DO MP GUANHÃES - COMARCA; GUANHAES-PJ-02PJ 12.343,61 4.937,44 0,00 0,00 0,00 0,00 0,00 2.105,00 19.386,05 2.545,92 3.167,20 0,00 0,00 5.713,12 13.672,93 31/10/2023
373 378400 BETANIA FARNESI DE SOUZA E SILVA OFICIAL DO MP CURVELO - COMARCA; CURVELO-PJ-01PJ 12.343,61 4.937,44 0,00 0,00 0,00 0,00 690,51 8.326,18 26.297,74 2.545,92 3.115,06 0,00 0,00 5.660,98 20.636,76 31/10/2023
374 387400 BETANIA MENDONCA DE ASSIS CARVALHO ANALISTA DO MP JUIZ DE FORA - COMARCA; JUIZ DE FORA-PJ-03PJ 20.533,67 6.160,10 0,00 0,00 0,00 0,00 0,00 3.055,00 29.748,77 4.051,95 5.289,40 0,00 0,00 9.341,35 20.407,42 31/10/2023
375 714400 BIANCA DE CASTRO RAMOS ASSESSOR PROMOTOR JUSTICA BETIM - COMARCA; BETIM-PJ-13PJ 0,00 0,00 8.810,89 0,00 0,00 0,00 96,92 3.162,31 12.070,12 876,95 1.709,37 0,00 0,00 2.586,32 9.483,80 31/10/2023
376 450300 BIANCA OLIVEIRA DE ALBUQUERQUE ANALISTA DO MP BELO HORIZONTE - COMARCA; BH-10PJ EXECUÇÃO PENAL-SECRETARIA 12.343,61 2.468,72 0,00 0,00 0,00 0,00 0,00 3.055,00 17.867,33 2.150,92 2.596,93 0,00 0,00 4.747,85 13.119,48 31/10/2023
377 535400 BIANCA SALOTO ROSSI ANALISTA DO MP SANTOS DUMONT - COMARCA; SANTOS DUMONT-PJ-01PJ 12.343,61 2.468,72 0,00 0,00 0,00 0,00 0,00 3.055,00 17.867,33 2.150,92 2.596,93 0,00 0,00 4.747,85 13.119,48 31/10/2023
378 120800 BRAS MARQUES DE SOUZA ANALISTA DO MP BELO HORIZONTE - COMARCA; SUPERINTENDENCIA DE GESTAO ADMINISTRATIVA 29.122,38 26.210,14 0,00 0,00 0,00 5.795,34 0,00 2.105,00 63.232,86 5.795,34 9.348,00 17.742,56 0,00 32.885,90 30.346,96 31/10/2023
379 724400 BRENDA PIMENTEL DE SOUZA VIANA ASSESSOR PROMOTOR JUSTICA MANHUMIRIM - COMARCA; MANHUMIRIM-PJ-01PJ 0,00 0,00 8.810,89 0,00 0,00 0,00 0,00 2.105,00 10.915,89 876,95 1.709,37 0,00 0,00 2.586,32 8.329,57 31/10/2023
380 710500 BRENNO VINICIUS MAGESTE ROSA ASSESSOR PROMOTOR JUSTICA MANHUAÇU - COMARCA; MANHUACU-PJ-02PJ 0,00 0,00 8.810,89 0,00 0,00 0,00 0,00 2.105,00 10.915,89 876,95 1.709,37 0,00 0,00 2.586,32 8.329,57 31/10/2023
381 460900 BRENO CRISTIANO DE SOUZA REZENDE ANALISTA DO MP ITAÚNA - COMARCA; ITAUNA-PJ-02PJ 12.343,61 2.468,72 0,00 0,00 0,00 0,00 0,00 2.105,00 16.917,33 2.150,92 2.596,93 0,00 0,00 4.747,85 12.169,48 31/10/2023
382 239000 BRENO VENANCIO ROMANINI OFICIAL DO MP BELO HORIZONTE - COMARCA; BH-20PJ ORD ECON TRIBUTARIA-SECRETARIA 12.343,61 4.937,44 0,00 0,00 0,00 0,00 0,00 2.105,00 19.386,05 2.545,92 3.167,20 0,00 0,00 5.713,12 13.672,93 31/10/2023
383 722100 BRUNA HENRIQUE DE SOUZA ASSESSOR PROMOTOR JUSTICA PIRAPETINGA - COMARCA; PIRAPETINGA-PJ-UNPJ 0,00 0,00 8.810,89 0,00 0,00 0,00 0,00 2.105,00 10.915,89 876,95 1.709,37 0,00 0,00 2.586,32 8.329,57 31/10/2023
384 642300 BRUNA IZABELITA DE FATIMA OLIVEIRA COSTA OFICIAL DO MP BELO HORIZONTE - COMARCA; BH-02PJ FAMILIA-SECRETARIA 7.506,70 750,67 0,00 0,00 0,00 0,00 0,00 2.105,00 10.362,37 1.102,13 1.082,73 0,00 0,00 2.184,86 8.177,51 31/10/2023
385 513600 BRUNA KARLA MARTINS CARVALHO ANALISTA DO MP GOVERNADOR VALADARES - COMARCA; GOVERNADOR VALADARES-PJ-14PJ 12.343,61 2.468,72 0,00 0,00 0,00 0,00 0,00 2.105,00 16.917,33 982,16 2.767,68 0,00 0,00 3.749,84 13.167,49 31/10/2023
386 415100 BRUNA MARIA SOARES OLIVEIRA COSTA RAMOS ANALISTA DO MP UBÁ - COMARCA; COORD REG BACIA DO RIO PARAIBA DO SUL 18.720,84 3.744,17 0,00 0,00 0,00 0,00 494,23 7.496,60 30.455,84 982,16 4.714,33 0,00 0,00 5.696,49 24.759,35 31/10/2023
387 692900 BRUNA MENDES COELHO ASSESSOR PROCURADOR JUSTICA BELO HORIZONTE - COMARCA; GABINETE DE PROCURADOR DE JUSTIÇA - SALA 801 0,00 0,00 8.810,89 0,00 0,00 0,00 0,00 2.105,00 10.915,89 876,95 1.709,37 0,00 0,00 2.586,32 8.329,57 31/10/2023
388 470000 BRUNA MORAES ANALISTA DO MP TOMBOS - COMARCA; TOMBOS-PJ-UNPJ 17.559,01 4.565,34 0,00 0,00 0,00 0,00 0,00 2.105,00 24.229,35 3.320,84 4.129,59 0,00 0,00 7.450,43 16.778,92 31/10/2023
389 614700 BRUNA NATTANY DE LIMA OFICIAL DO MP MANTENA - COMARCA; MANTENA-PJ-01PJ 7.506,70 750,67 0,00 0,00 0,00 0,00 0,00 3.055,00 11.312,37 1.102,13 1.082,73 0,00 0,00 2.184,86 9.127,51 31/10/2023
390 729800 BRUNA PAULA AMARAL CEOLIN ASSESSOR PROMOTOR JUSTICA COMARCA - JUATUBA; JUATUBA-PJ-UNPJ 0,00 0,00 8.810,89 0,00 0,00 0,00 0,00 2.105,00 10.915,89 876,95 1.709,37 0,00 0,00 2.586,32 8.329,57 31/10/2023
391 631800 BRUNA RAPOSO JORGE OFICIAL DO MP JUIZ DE FORA - COMARCA; JUIZ DE FORA-PJ-06PJ 7.506,70 750,67 0,00 0,00 0,00 0,00 0,00 3.055,00 11.312,37 1.102,13 1.082,73 0,00 0,00 2.184,86 9.127,51 31/10/2023
392 707800 BRUNA ROMIE WERDINE ASSESSOR PROMOTOR JUSTICA IBIRITÉ - COMARCA; IBIRITE-PJ-06PJ 0,00 0,00 8.810,89 0,00 0,00 0,00 0,00 2.105,00 10.915,89 876,95 1.709,37 0,00 0,00 2.586,32 8.329,57 31/10/2023
393 697400 BRUNA SILVA SANTOS ASSESSOR PROMOTOR JUSTICA TIMÓTEO - COMARCA; TIMOTEO-PJ-04PJ 0,00 0,00 8.810,89 0,00 0,00 0,00 0,00 2.105,00 10.915,89 876,95 1.709,37 0,00 0,00 2.586,32 8.329,57 31/10/2023
394 699300 BRUNA URSINE TIMO ASSESSOR PROCURADOR JUSTICA BELO HORIZONTE - COMARCA; PROC JUST ESP ACOES COMP ORIG CRIMINAL-GAB 0,00 0,00 8.810,89 0,00 0,00 0,00 0,00 2.105,00 10.915,89 876,95 1.709,37 0,00 0,00 2.586,32 8.329,57 31/10/2023
395 463800 BRUNO ALVES TEIXEIRA ANALISTA DO MP UBERLÂNDIA - COMARCA; UBERLANDIA-PJ-04PJ 12.343,61 2.468,72 0,00 0,00 0,00 0,00 0,00 2.105,00 16.917,33 2.150,92 2.596,93 0,00 0,00 4.747,85 12.169,48 31/10/2023
396 538500 BRUNO AUGUSTO DA SILVA OFICIAL DO MP SANTA LUZIA - COMARCA; SANTA LUZIA-PJ-03PJ 7.506,70 1.501,34 0,00 0,00 0,00 0,00 0,00 2.105,00 11.113,04 1.222,23 1.256,14 0,00 0,00 2.478,37 8.634,67 31/10/2023
397 318200 BRUNO BARROS DE SOUZA OFICIAL DO MP BELO HORIZONTE - COMARCA; DIRETORIA GESTAO CONTRATOS CONVENIOS 12.343,61 3.703,08 0,00 0,00 0,00 0,00 0,00 2.105,00 18.151,69 982,16 2.635,76 0,00 0,00 3.617,92 14.533,77 31/10/2023
398 459600 BRUNO CASTELAR LUGAO MENDES OFICIAL DO MP BELO HORIZONTE - COMARCA; PROC JUST ATUACAO TRIBUNAIS SUPERIORES 11.212,54 2.242,51 4.346,47 0,00 0,00 0,00 0,00 3.055,00 20.856,52 982,16 3.617,69 0,00 0,00 4.599,85 16.256,67 31/10/2023
399 427400 BRUNO CESAR RIBEIRO DE PAIVA ANALISTA DO MP BELO HORIZONTE - COMARCA; DIRETORIA DO COLEGIO E DA CAMARA DE PJ 18.720,84 3.744,17 0,00 0,00 0,00 0,00 0,00 2.105,00 24.570,01 3.375,35 4.364,70 0,00 0,00 7.740,05 16.829,96 31/10/2023
400 380900 BRUNO CIRILO ANTUNES OFICIAL DO MP VARGINHA - COMARCA; VARGINHA-PJ-05PJ 12.343,61 3.703,08 0,00 0,00 0,00 0,00 0,00 2.105,00 18.151,69 2.348,42 2.882,06 0,00 0,00 5.230,48 12.921,21 31/10/2023
401 329000 BRUNO DE MELO REIS ANALISTA DO MP PATROCÍNIO - COMARCA; PATROCINIO-PJ-02PJ 23.070,31 9.228,12 0,00 0,00 1.077,64 0,00 15.233,85 6.021,54 54.631,46 7.079,20 9.904,21 0,00 0,00 16.983,41 37.648,05 31/10/2023
402 697800 BRUNO GAZZOLA BEZERRA FALCAO ASSESSOR PROCURADOR JUSTICA BELO HORIZONTE - COMARCA; PROCURADOR-GERAL ADJUNTO JURIDICO- GABINETE 0,00 0,00 8.810,89 0,00 0,00 0,00 670,00 2.105,00 11.585,89 876,95 1.709,37 0,00 0,00 2.586,32 8.999,57 31/10/2023
403 378300 BRUNO HERDY LOPES DE OLIVEIRA ANALISTA DO MP GOVERNADOR VALADARES - COMARCA; GOVERNADOR VALADARES-PJ-03PJ 20.533,67 6.160,10 0,00 0,00 0,00 0,00 0,00 2.105,00 28.798,77 4.051,95 5.341,54 0,00 0,00 9.393,49 19.405,28 31/10/2023
404 529700 BRUNO JOSE BUENO DIAS OFICIAL DO MP SÃO SEBASTIÃO DO PARAÍSO - COMARCA; SAO SEBASTIAO DO PARAISO-PJ-02PJ 7.506,70 1.501,34 0,00 0,00 0,00 0,00 0,00 2.105,00 11.113,04 1.222,23 1.204,00 0,00 0,00 2.426,23 8.686,81 31/10/2023
405 691600 BRUNO JOSE RIBEIRO ASSESSOR PROMOTOR JUSTICA CLÁUDIO - COMARCA; CLAUDIO-PJ-UNPJ 0,00 0,00 8.810,89 0,00 0,00 0,00 0,00 2.105,00 10.915,89 876,95 1.709,37 0,00 0,00 2.586,32 8.329,57 31/10/2023
406 350100 BRUNO LAUD SERRANO DOS REIS OFICIAL DO MP UBÁ - COMARCA; UBA-PJ-02PJ 12.343,61 4.937,44 0,00 0,00 0,00 0,00 0,00 2.105,00 19.386,05 2.545,92 3.115,06 0,00 0,00 5.660,98 13.725,07 31/10/2023
407 728900 BRUNO LIMA PITANGA ASSESSOR PROMOTOR JUSTICA BELO HORIZONTE - COMARCA; NUCLEO DA EXECUCAO PENAL 0,00 0,00 8.810,89 0,00 0,00 0,00 0,00 3.055,00 11.865,89 876,95 1.709,37 0,00 0,00 2.586,32 9.279,57 31/10/2023
408 745900 BRUNO LUIZ MARQUES ROCHA OFICIAL DO MP RIBEIRÃO DAS NEVES - COMARCA; RIBEIRAO DAS NEVES-PJ-11PJ 4.570,25 0,00 0,00 0,00 0,00 0,00 0,00 2.105,00 6.675,25 526,88 257,78 0,00 0,00 784,66 5.890,59 31/10/2023
409 373800 BRUNO MARTINO DE ALBUQUERQUE ANALISTA DO MP PONTE NOVA - COMARCA; PONTE NOVA-PJ-03PJ 20.533,67 6.160,10 0,00 0,00 0,00 0,00 0,00 2.105,00 28.798,77 4.051,95 5.237,27 0,00 0,00 9.289,22 19.509,55 31/10/2023
410 732900 BRUNO NOGUEIRA GUIMARAES ASSESSOR ADMINISTRATIVO I BELO HORIZONTE - COMARCA; COORD DE INCLUSAO E MOBILIZACAO SOCIAIS 0,00 0,00 4.872,71 0,00 0,00 0,00 0,00 2.105,00 6.977,71 718,08 670,06 0,00 0,00 1.388,14 5.589,57 31/10/2023
411 470400 BRUNO NOVAIS CABRAL ANALISTA DO MP MUTUM - COMARCA; MUTUM-PJ-UNPJ 12.343,61 2.468,72 0,00 0,00 0,00 0,00 0,00 3.055,00 17.867,33 2.150,92 2.596,93 0,00 0,00 4.747,85 13.119,48 31/10/2023
412 648600 BRUNO RIBEIRO E MELO COORDENADOR I BELO HORIZONTE - COMARCA; DIR RELACOES INSTITUCIONAIS 0,00 0,00 16.469,17 0,00 0,00 0,00 0,00 2.105,00 18.574,17 876,95 3.815,40 0,00 0,00 4.692,35 13.881,82 31/10/2023
413 369200 BRUNO ROBERTO DIAS DE OLIVEIRA OFICIAL DO MP BELO HORIZONTE - COMARCA; BH-22PJ PES COM DEF E IDOSOS-SECRETARIA 12.343,61 3.703,08 0,00 0,00 0,00 0,00 0,00 2.105,00 18.151,69 982,16 3.081,66 0,00 0,00 4.063,82 14.087,87 31/10/2023
414 547700 BRUNO ROBERTO SOUZA GONCALVES ANALISTA DO MP PARACATU - COMARCA; PARACATU-PJ-03PJ 12.343,61 2.468,72 0,00 0,00 0,00 0,00 0,00 3.055,00 17.867,33 2.150,92 2.596,93 0,00 0,00 4.747,85 13.119,48 31/10/2023
415 546100 BRUNO SA VIEIRA ANALISTA DO MP BARBACENA - COMARCA; BARBACENA-PJ-SECRETARIA 12.343,61 2.468,72 0,00 0,00 0,00 0,00 0,00 3.055,00 17.867,33 2.150,92 2.492,65 0,00 0,00 4.643,57 13.223,76 31/10/2023
416 438200 BRUNO SALES PEREIRA ANALISTA DO MP BELO HORIZONTE - COMARCA; CENTRAL DE APOIO TECNICO-SETOR CONTABIL 17.559,01 3.511,80 0,00 0,00 0,00 0,00 0,00 2.105,00 23.175,81 3.152,28 3.990,50 0,00 0,00 7.142,78 16.033,03 31/10/2023
417 537400 BRUNO SANT'ANA CESAR ANALISTA DO MP BELO HORIZONTE - COMARCA; BH-12PJ JUIZO CRIMINAL-GAB 105PJ 12.343,61 2.468,72 0,00 0,00 0,00 0,00 0,00 2.105,00 16.917,33 2.150,92 2.596,93 0,00 0,00 4.747,85 12.169,48 31/10/2023
418 727700 BYANKA DA SILVA MORAIS ASSESSOR PROCURADOR JUSTICA BELO HORIZONTE - COMARCA; GABINETE DE PROCURADOR DE JUSTIÇA - SALA 805 0,00 0,00 8.810,89 0,00 0,00 0,00 0,00 2.105,00 10.915,89 876,95 1.709,37 0,00 0,00 2.586,32 8.329,57 31/10/2023
419 748100 CAETANO ALBERTO MARTINS BOTELHO ASSESSOR PROMOTOR JUSTICA COROMANDEL - COMARCA; COROMANDEL-PJ-02PJ 0,00 0,00 8.810,89 0,00 0,00 0,00 0,00 2.105,00 10.915,89 876,95 1.709,37 0,00 0,00 2.586,32 8.329,57 31/10/2023
420 405800 CAIO FERNANDO RODRIGUES DE OLIVEIRA ANALISTA DO MP BELO HORIZONTE - COMARCA; ASSESSORIA JURIDICO-ADMINISTRATIVA 18.720,84 5.616,25 0,00 0,00 0,00 0,00 0,00 2.105,00 26.442,09 982,16 5.375,66 0,00 0,00 6.357,82 20.084,27 31/10/2023
421 530000 CAIO GUEDES DE OLIVEIRA ANALISTA DO MP DIAMANTINA - COMARCA; DIAMANTINA-PJ-02PJ 12.343,61 2.468,72 0,00 0,00 0,00 0,00 0,00 2.105,00 16.917,33 2.150,92 2.544,79 0,00 0,00 4.695,71 12.221,62 31/10/2023
422 491400 CAIO MIRANDA JUNQUEIRA ANALISTA DO MP BELO HORIZONTE - COMARCA; CENT ESTAD COOPERACAO TECNICO-JURIDICA 12.343,61 2.468,72 0,00 0,00 0,00 0,00 0,00 2.105,00 16.917,33 2.150,92 2.492,65 0,00 0,00 4.643,57 12.273,76 31/10/2023
423 415800 CAMILA ALVES DA SILVA ANALISTA DO MP CAETÉ - COMARCA; CAETE-PJ-01PJ 18.720,84 3.744,17 0,00 0,00 0,00 0,00 0,00 2.105,00 24.570,01 3.375,35 4.364,70 0,00 0,00 7.740,05 16.829,96 31/10/2023
424 555800 CAMILA CAROLINE ROCHA CHAVES OFICIAL DO MP SALINAS - COMARCA; SALINAS-PJ-01PJ 7.506,70 1.501,34 0,00 0,00 0,00 0,00 0,00 3.055,00 12.063,04 1.222,23 1.256,14 0,00 0,00 2.478,37 9.584,67 31/10/2023
425 747700 CAMILA CATIA VILELA VIANA ASSESSOR DE CAO BELO HORIZONTE - COMARCA; CAO-SAUDE-ASSESSORIA 0,00 0,00 7.506,70 0,00 0,00 0,00 0,00 2.105,00 9.611,70 -305,54 1.143,16 0,00 437,27 1.274,89 8.336,81 31/10/2023
426 445200 CAMILA CONDE ROCHA ANALISTA DO MP CONTAGEM - COMARCA; CONTAGEM-PJ-21PJ 14.960,00 2.992,00 0,00 0,00 0,00 0,00 0,00 2.105,00 20.057,00 2.653,27 3.322,19 0,00 0,00 5.975,46 14.081,54 31/10/2023
427 419900 CAMILA CUNNINGHAM PIMENTA DE PADUA ANALISTA DO MP BELO HORIZONTE - COMARCA; ASSESSORIA PSICOSSOCIAL 18.720,84 3.744,17 0,00 0,00 0,00 0,00 0,00 2.105,00 24.570,01 3.375,35 4.364,70 0,00 0,00 7.740,05 16.829,96 31/10/2023
428 742700 CAMILA DA SILVA GONCALVES ANALISTA DO MP BELO HORIZONTE - COMARCA; DIV FISCAL ADM CONT TERCEIRIZACAO 7.040,78 0,00 0,00 0,00 0,00 0,00 0,00 2.105,00 9.145,78 909,81 801,06 0,00 0,00 1.710,87 7.434,91 31/10/2023
429 714200 CAMILA DE SOUSA CUNHA ASSESSOR PROMOTOR JUSTICA PRADOS - COMARCA; PRADOS-PJ-UNPJ 0,00 0,00 8.810,89 0,00 0,00 0,00 0,00 2.105,00 10.915,89 876,95 1.709,37 0,00 0,00 2.586,32 8.329,57 31/10/2023
430 507700 CAMILA ELIZABETH RODRIGUES ANALISTA DO MP BELO HORIZONTE - COMARCA; BH-02PJ FAMILIA-SECRETARIA 15.447,01 3.089,40 0,00 0,00 0,00 0,00 511,56 2.105,00 21.152,97 2.746,77 3.457,19 0,00 0,00 6.203,96 14.949,01 31/10/2023
431 372700 CAMILA FONSECA LIMONGE ANALISTA DO MP BETIM - COMARCA; BETIM-PJ-01PJ 20.533,67 6.160,10 0,00 0,00 0,00 0,00 0,00 2.105,00 28.798,77 4.051,95 5.341,54 0,00 0,00 9.393,49 19.405,28 31/10/2023
432 621300 CAMILA GOLFETO DE SOUSA VALENTE OFICIAL DO MP CARANGOLA - COMARCA; CARANGOLA-PJ-SECRETARIA 7.506,70 750,67 0,00 0,00 0,00 0,00 0,00 3.530,00 11.787,37 1.102,13 978,46 0,00 0,00 2.080,59 9.706,78 31/10/2023
433 409800 CAMILA GONCALVES COSTA RIBEIRO ANALISTA DO MP IPATINGA - COMARCA; GAECO REGIONAL DE IPATINGA 12.343,61 2.468,72 0,00 0,00 0,00 0,00 0,00 3.055,00 17.867,33 2.150,92 2.492,65 0,00 0,00 4.643,57 13.223,76 31/10/2023
434 335000 CAMILA GONTIJO DE PAIVA ANALISTA DO MP BELO HORIZONTE - COMARCA; COORD DE CONTROLE CONSTITUCIONALIDADE 23.070,31 6.921,09 0,00 0,00 0,00 0,00 0,00 2.105,00 32.096,40 4.828,49 6.712,82 0,00 0,00 11.541,31 20.555,09 31/10/2023
435 693400 CAMILA HECKSHER MONTEIRO ASSESSOR PROCURADOR JUSTICA BELO HORIZONTE - COMARCA; GABINETE DE PROCURADOR DE JUSTIÇA - SALA 613 0,00 0,00 8.810,89 0,00 0,00 0,00 0,00 2.105,00 10.915,89 876,95 1.709,37 0,00 0,00 2.586,32 8.329,57 31/10/2023
436 696000 CAMILA IMACULADA OLIVEIRA ASSESSOR PROCURADOR JUSTICA BELO HORIZONTE - COMARCA; GABINETE DE PROCURADOR DE JUSTICA - SALA 312 0,00 0,00 8.810,89 0,00 0,00 0,00 0,00 2.105,00 10.915,89 876,95 1.709,37 0,00 0,00 2.586,32 8.329,57 31/10/2023
437 547800 CAMILA MATTARELLI DE ABREU E SILVA ANALISTA DO MP BELO HORIZONTE - COMARCA; CAO-VIOLENCIA DOMESTICA E FAMILIAR 12.343,61 2.468,72 0,00 0,00 0,00 0,00 0,00 2.105,00 16.917,33 2.150,92 2.596,93 0,00 0,00 4.747,85 12.169,48 31/10/2023
438 735800 CAMILA REGINA DE OLIVEIRA ASSESSOR ADMINISTRATIVO II BELO HORIZONTE - COMARCA; CENTRO AUTOCOMPOSICAO DE CONFLITOS 0,00 0,00 7.506,70 0,00 0,00 0,00 0,00 2.105,00 9.611,70 876,95 1.350,72 0,00 0,00 2.227,67 7.384,03 31/10/2023
439 752700 CAMILA RODRIGUES MAURO ASSESSOR PROMOTOR JUSTICA CONTAGEM - COMARCA; CONTAGEM-PJ-22PJ 0,00 0,00 8.810,89 0,00 0,00 0,00 4.992,84 3.596,36 17.400,09 876,95 3.326,15 0,00 0,00 4.203,10 13.196,99 31/10/2023
440 430000 CANDIDA MARINA COSTA ANALISTA DO MP BELO HORIZONTE - COMARCA; DIRET DE INFORMACAO E CONHECIMENTO-DINC/CEAF 18.720,84 3.744,17 0,00 0,00 7.488,34 0,00 0,00 2.105,00 32.058,35 3.375,35 6.423,99 0,00 0,00 9.799,34 22.259,01 31/10/2023
441 614300 CARINA CORTIELHA OFICIAL DO MP BELO HORIZONTE - COMARCA; BH-23PJ CIVEL-FISC AC POL PUB I 7.506,70 750,67 0,00 0,00 0,00 0,00 0,00 2.105,00 10.362,37 1.102,13 1.082,73 0,00 0,00 2.184,86 8.177,51 31/10/2023
442 380400 CARINA DIAS FACANHA DE SOUZA ANALISTA DO MP SANTA RITA DO SAPUCAÍ - COMARCA; SANTA RITA DO SAPUCAI-PJ-01PJ 20.533,67 6.160,10 0,00 0,00 0,00 0,00 0,00 3.055,00 29.748,77 4.051,95 5.341,54 0,00 0,00 9.393,49 20.355,28 31/10/2023
443 255000 CARLA ADRIANA DE MENEZES OFICIAL DO MP BELO HORIZONTE - COMARCA; CENT DE APOIO TEC-SETOR DEF,IDOSO E INFANC 12.343,61 4.937,44 0,00 0,00 0,00 0,00 0,00 2.105,00 19.386,05 2.545,92 3.167,20 0,00 0,00 5.713,12 13.672,93 31/10/2023
444 425100 CARLA ADRIANA DINIZ AMARAL OFICIAL DO MP CONTAGEM - COMARCA; CONTAGEM-PJ-SECRETARIA 12.343,61 2.468,72 2.918,39 0,00 0,00 0,00 0,00 2.105,00 19.835,72 2.150,92 3.399,49 0,00 0,00 5.550,41 14.285,31 31/10/2023
445 508100 CARLA ALESSANDRA FONSECA ANALISTA DO MP BELO HORIZONTE - COMARCA; CAO-ORDEM ECONOMICA E TRIBUTARIA-SECRETARIA 12.343,61 2.468,72 0,00 0,00 0,00 0,00 0,00 2.105,00 16.917,33 2.150,92 2.596,93 0,00 0,00 4.747,85 12.169,48 31/10/2023
446 607100 CARLA ANGELICA DIAS MIRANDA OFICIAL DO MP SANTA LUZIA - COMARCA; SANTA LUZIA-PJ-SECRETARIA 7.506,70 750,67 0,00 0,00 0,00 0,00 0,00 2.105,00 10.362,37 1.102,13 926,32 0,00 0,00 2.028,45 8.333,92 31/10/2023
447 351500 CARLA APARECIDA MENDES RAMIRIO OFICIAL DO MP PASSOS - COMARCA; PASSOS-PJ-01PJ 12.343,61 3.703,08 0,00 0,00 0,00 0,00 0,00 2.105,00 18.151,69 2.348,42 2.829,93 0,00 0,00 5.178,35 12.973,34 31/10/2023
448 752600 CARLA CHRISTIAN DE LIMA OFICIAL DO MP MARTINHO CAMPOS - COMARCA; MARTINHO CAMPOS-PJ-UNPJ 4.570,25 0,00 0,00 0,00 0,00 0,00 1.371,08 3.187,27 9.128,60 739,39 545,57 0,00 0,00 1.284,96 7.843,64 31/10/2023
449 713100 CARLA DOS SANTOS SOUZA ASSESSOR PROMOTOR JUSTICA ESPERA FELIZ - COMARCA; ESPERA FELIZ-PJ-UNPJ 0,00 0,00 8.810,89 0,00 0,00 0,00 0,00 2.105,00 10.915,89 876,95 1.709,37 0,00 0,00 2.586,32 8.329,57 31/10/2023
450 442800 CARLA GONCALVES COSTA SOALHEIRO ANALISTA DO MP GOVERNADOR VALADARES - COMARCA; GOVERNADOR VALADARES-PJ-11PJ 12.982,00 2.717,79 0,00 0,00 0,00 0,00 0,00 3.055,00 18.754,79 2.390,03 2.723,09 0,00 0,00 5.113,12 13.641,67 31/10/2023
451 321500 CARLA GONCALVES MASSOTE OFICIAL DO MP CAMPO BELO - COMARCA; CAMPO BELO-PJ-02PJ 12.343,61 3.703,08 0,00 0,00 0,00 0,00 0,00 2.105,00 18.151,69 2.348,42 2.882,06 0,00 0,00 5.230,48 12.921,21 31/10/2023
452 429200 CARLA HAUTEQUESTT BECHARA ANALISTA DO MP BELO HORIZONTE - COMARCA; DIRETORIA DE INTELIGENCIA 18.720,84 3.744,17 0,00 0,00 0,00 0,00 0,00 2.105,00 24.570,01 3.375,35 4.364,70 0,00 0,00 7.740,05 16.829,96 31/10/2023
453 247500 CARLA MATILDE GUIMARAES DE OLIVEIRA OFICIAL DO MP ITAJUBA - COMARCA; ITAJUBA-PJ-SECRETARIA 12.343,61 4.937,44 0,00 0,00 5.760,35 0,00 0,00 2.105,00 25.146,40 2.545,92 4.699,16 0,00 0,00 7.245,08 17.901,32 31/10/2023
454 226100 CARLA MERLI DA CONCEICAO ANALISTA DO MP BELO HORIZONTE - COMARCA; CENTRAL DE APOIO TECNICO-SETOR CONTABIL 23.070,31 9.228,12 0,00 0,00 0,00 0,00 11.711,78 4.201,40 48.211,61 6.457,25 8.762,05 0,00 0,00 15.219,30 32.992,31 31/10/2023
455 181401 CARLO MICHEL GAUDENSI COELHO ANALISTA DO MP BELO HORIZONTE - COMARCA; BH-08PJ JUIZADO ESPECIAL-SECRETARIA 18.130,77 7.252,31 0,00 0,00 1.772,86 0,00 12.408,23 4.019,69 43.583,86 5.544,19 7.983,50 0,00 0,00 13.527,69 30.056,17 31/10/2023
456 634000 CARLOS ALBERTO AMORMINO TRIGUEIRO ANALISTA DO MP BELO HORIZONTE - COMARCA; DIRET DE APOIO AS PROCURADORIAS DE JUSTICA 11.577,56 1.157,76 0,00 0,00 0,00 0,00 0,00 3.055,00 15.790,32 982,16 2.187,20 0,00 0,00 3.169,36 12.620,96 31/10/2023
457 637900 CARLOS ALBERTO DE MOURA OFICIAL DO MP SETE LAGOAS - COMARCA; SETE LAGOAS-PJ-07PJ 7.506,70 750,67 0,00 0,00 0,00 0,00 0,00 2.105,00 10.362,37 982,16 1.063,59 0,00 0,00 2.045,75 8.316,62 31/10/2023
458 638700 CARLOS ALBERTO FERREIRA BRAGA ANALISTA DO MP VESPASIANO - COMARCA; VESPASIANO-PJ-06PJ 11.577,56 1.157,76 0,00 0,00 0,00 0,00 0,00 2.105,00 14.840,32 982,16 2.242,88 0,00 0,00 3.225,04 11.615,28 31/10/2023
459 375801 CARLOS ALBERTO ROCHA ANALISTA DO MP VARGINHA - COMARCA; GAECO REGIONAL DE VARGINHA 12.343,61 3.703,08 0,00 0,00 0,00 0,00 0,00 4.005,00 20.051,69 2.348,42 2.777,79 0,00 0,00 5.126,21 14.925,48 31/10/2023
460 462800 CARLOS ANDREI SOARES FAGUNDES ANALISTA DO MP MONTES CLAROS - COMARCA; MONTES CLAROS-PJ-09PJ 12.343,61 2.468,72 0,00 0,00 0,00 0,00 0,00 2.105,00 16.917,33 2.150,92 2.544,79 0,00 0,00 4.695,71 12.221,62 31/10/2023
461 370300 CARLOS AUGUSTO BUENO DIAS ASSESSOR ADMINISTRATIVO IV BELO HORIZONTE - COMARCA; DIRETORIA DE FISCALIZACAO DE OBRAS 0,00 0,00 14.488,22 0,00 0,00 0,00 0,00 2.105,00 16.593,22 876,95 2.827,07 0,00 0,00 3.704,02 12.889,20 31/10/2023
462 505100 CARLOS CEZAR CARVALHO ANALISTA DO MP CONTAGEM - COMARCA; CONTAGEM-PJ-02PJ 12.343,61 6.171,81 0,00 0,00 0,00 0,00 0,00 2.105,00 20.620,42 2.743,42 3.348,07 0,00 0,00 6.091,49 14.528,93 31/10/2023
463 196800 CARLOS EDUARDO DE OLIVEIRA MARINHO OFICIAL DO MP ALPINÓPOLIS - COMARCA; ALPINOPOLIS-PJ-UNPJ 22.191,68 15.534,18 0,00 0,00 0,00 0,00 10.377,29 3.592,46 51.695,61 6.745,82 9.178,68 2.616,54 0,00 18.541,04 33.154,57 31/10/2023
464 650800 CARLOS EDUARDO NIZA DA SILVA OFICIAL DO MP IGARAPÉ - COMARCA; IGARAPE-PJ-01PJ 7.270,07 727,01 0,00 0,00 0,00 0,00 0,00 3.055,00 11.052,08 982,16 939,87 0,00 0,00 1.922,03 9.130,05 31/10/2023
465 491800 CARLOS EDUARDO ROMAN OFICIAL DO MP BARBACENA - COMARCA; BARBACENA-PJ-09PJ 10.858,90 3.257,67 0,00 0,00 0,00 0,00 0,00 2.105,00 16.221,57 2.039,60 2.436,21 0,00 0,00 4.475,81 11.745,76 31/10/2023
466 299300 CARLOS HENRIQUE BICALHO ANALISTA DO MP BELO HORIZONTE - COMARCA; BH-17PJ PATRIMONIO PUBLICO-SECRETARIA 23.070,31 11.535,16 0,00 0,00 0,00 0,00 11.285,57 4.951,74 50.842,78 6.757,23 9.247,29 0,00 0,00 16.004,52 34.838,26 31/10/2023
467 351600 CARLOS HENRIQUE FELICIO DA FONSECA OFICIAL DO MP JUIZ DE FORA - COMARCA; JUIZ DE FORA-PJ-21PJ 12.343,61 4.937,44 0,00 0,00 0,00 0,00 0,00 2.105,00 19.386,05 2.545,92 3.115,06 0,00 0,00 5.660,98 13.725,07 31/10/2023
468 729100 CARLOS HENRIQUE TEIXEIRA BRAGA ASSESSOR ADMINISTRATIVO II BELO HORIZONTE - COMARCA; DIRETORIA DE SUPORTE E MANUTENCAO 0,00 0,00 7.506,70 0,00 0,00 0,00 0,00 2.105,00 9.611,70 876,95 1.350,72 0,00 0,00 2.227,67 7.384,03 31/10/2023
469 85400 CARLOS JOSE VIEIRA OFICIAL DO MP BELO HORIZONTE - COMARCA; DIRETORIA DO COLEGIO E DA CAMARA DE PJ 29.122,38 23.297,91 0,00 0,00 0,00 5.795,34 0,00 2.105,00 60.320,63 5.795,34 9.452,28 14.830,33 0,00 30.077,95 30.242,68 31/10/2023
470 229100 CARLOS MERCES DE OLIVEIRA ANALISTA DO MP BELO HORIZONTE - COMARCA; CENTRAL DE APOIO TECN-SETOR DE MEIO AMBIENTE 23.070,31 9.228,12 0,00 0,00 0,00 0,00 0,00 2.105,00 34.403,43 4.948,70 5.246,34 0,00 0,00 10.195,04 24.208,39 31/10/2023
471 538300 CARLOS RANGEL SILVA DE MELO ANALISTA DO MP BELO HORIZONTE - COMARCA; DIVISAO DE CONTROLE IMOBILIARIO 12.343,61 4.937,44 0,00 0,00 0,00 0,00 2.310,32 4.005,00 23.596,37 2.545,92 3.802,54 0,00 0,00 6.348,46 17.247,91 31/10/2023
472 265100 CARLOS REIFF MIRANDA ANALISTA DO MP BELO HORIZONTE - COMARCA; BH-19PJ SAUDE-SECRETARIA 150PJ 23.070,31 9.228,12 0,00 0,00 0,00 0,00 0,00 2.105,00 34.403,43 4.948,70 6.636,22 0,00 0,00 11.584,92 22.818,51 31/10/2023
473 305400 CARLOS ROCHA DE SOUZA OFICIAL DO MP MONTALVÂNIA - COMARCA; MONTALVANIA-PJ-SECRETARIA 7.506,70 2.252,01 0,00 0,00 0,00 0,00 0,00 2.105,00 11.863,71 1.342,34 1.220,99 0,00 0,00 2.563,33 9.300,38 31/10/2023
474 744500 CARLOS THIAGO COSTA FIGUEREDO OFICIAL DO MP PARAOPEBA - COMARCA; PARAOPEBA-PJ-UNPJ 4.552,11 0,00 0,00 0,00 0,00 0,00 0,00 2.105,00 6.657,11 526,88 253,69 0,00 0,00 780,57 5.876,54 31/10/2023
475 399900 CARMELITA EVANGELISTA DE SOUZA OFICIAL DO MP JOÃO PINHEIRO - COMARCA; JOAO PINHEIRO-PJ-01PJ 11.212,54 2.242,51 0,00 0,00 0,00 0,00 0,00 2.105,00 15.560,05 1.933,76 2.283,39 0,00 0,00 4.217,15 11.342,90 31/10/2023
476 202000 CARMEN LUCIA MARIZ DE MACEDO OFICIAL DO MP BELO HORIZONTE - COMARCA; DIRETORIA GESTAO COMPRAS LICITACOES 21.346,53 14.942,57 5.434,83 0,00 0,00 8.134,21 860,69 7.286,26 58.005,09 5.587,20 9.348,00 4.133,97 0,00 19.069,17 38.935,92 31/10/2023
477 701900 CAROLINA CARVALHO COSTA ASSESSOR PROCURADOR JUSTICA BELO HORIZONTE - COMARCA; GABINETE DE PROCURADOR DE JUSTIÇA - SALA 811 0,00 0,00 8.810,89 0,00 0,00 0,00 0,00 2.105,00 10.915,89 876,95 1.709,37 0,00 0,00 2.586,32 8.329,57 31/10/2023
478 228500 CAROLINA CHIARELLA DOS SANTOS RIBEIRO COORDENADOR I BELO HORIZONTE - COMARCA; DIVISAO TRANSPORTES 16.469,17 6.587,67 0,00 0,00 0,00 0,00 0,00 2.105,00 25.161,84 2.545,92 4.651,27 0,00 0,00 7.197,19 17.964,65 31/10/2023
479 446500 CAROLINA COSTA VAL RODRIGUES ANALISTA DO MP BELO HORIZONTE - COMARCA; DIVISAO DE MATERIAIS 18.130,77 5.439,23 4.940,75 0,00 0,00 0,00 2.644,59 2.105,00 33.260,34 3.856,07 6.622,34 0,00 0,00 10.478,41 22.781,93 31/10/2023
480 751500 CAROLINA DA MATTA AMBROSIO OFICIAL DO MP MANHUMIRIM - COMARCA; MANHUMIRIM-PJ-02PJ 4.570,25 0,00 0,00 0,00 0,00 0,00 1.371,08 3.187,27 9.128,60 739,39 545,57 0,00 0,00 1.284,96 7.843,64 31/10/2023
481 603501 CAROLINA DOMINGOS BRANDAO RABELLO ANALISTA DO MP BARROSO - COMARCA; BARROSO-PJ-01PJ 12.343,61 1.234,36 0,00 0,00 0,00 0,00 0,00 4.005,00 17.582,97 1.953,42 2.311,79 0,00 0,00 4.265,21 13.317,76 31/10/2023
482 404300 CAROLINA DOS SANTOS VIEIRA ANALISTA DO MP BELO HORIZONTE - COMARCA; BH-08PJ JUIZADO ESPECIAL-SECRETARIA 20.533,67 6.160,10 0,00 0,00 0,00 0,00 0,00 2.105,00 28.798,77 4.051,95 5.237,27 0,00 0,00 9.289,22 19.509,55 31/10/2023
483 551200 CAROLINA LOPES ARANTES MASCARENHAS ANALISTA DO MP BELO HORIZONTE - COMARCA; CAO-VIOLENCIA DOMESTICA E FAMILIAR 12.343,61 2.468,72 0,00 0,00 0,00 0,00 0,00 3.055,00 17.867,33 2.150,92 2.492,65 0,00 0,00 4.643,57 13.223,76 31/10/2023
484 622600 CAROLINA LOREDO LOPES CATIZANI OFICIAL DO MP RIBEIRÃO DAS NEVES - COMARCA; RIBEIRAO DAS NEVES-PJ-12PJ 7.506,70 750,67 0,00 0,00 0,00 0,00 0,00 2.105,00 10.362,37 1.102,13 1.082,73 0,00 0,00 2.184,86 8.177,51 31/10/2023
485 382200 CAROLINA MENDES CHAVES LIN ANALISTA DO MP BELO HORIZONTE - COMARCA; BH-12PJ JUIZO CRIMINAL-GAB 088PJ 12.343,61 3.703,08 0,00 0,00 0,00 0,00 0,00 3.055,00 19.101,69 2.348,42 2.829,93 0,00 0,00 5.178,35 13.923,34 31/10/2023
486 461900 CAROLINA MURTA TEIXEIRA DIAS ANALISTA DO MP BELO HORIZONTE - COMARCA; DIR CRIACAO E MIDIAS 12.343,61 2.468,72 0,00 0,00 0,00 0,00 0,00 2.105,00 16.917,33 2.150,92 2.596,93 0,00 0,00 4.747,85 12.169,48 31/10/2023
487 509600 CAROLINA PINTO DE OLIVEIRA SOUZA ANALISTA DO MP MURIAÉ - COMARCA; MURIAE-PJ-01PJ 12.343,61 2.468,72 0,00 0,00 0,00 0,00 0,00 3.055,00 17.867,33 2.150,92 2.492,65 0,00 0,00 4.643,57 13.223,76 31/10/2023
488 629100 CAROLINA RODRIGUES AMARAL ANALISTA DO MP BELO HORIZONTE - COMARCA; PROC. JUSTICA DIR. DIFUSOS E COLETIVOS-SEC 12.343,61 1.234,36 0,00 0,00 0,00 0,00 0,00 2.105,00 15.682,97 1.953,42 2.311,79 0,00 0,00 4.265,21 11.417,76 31/10/2023
489 502600 CAROLINA RODRIGUES RUBEN ANALISTA DO MP BELO HORIZONTE - COMARCA; BH-18PJ VIOLENCIA DOMESTICA-GAB 007PJ 12.343,61 2.468,72 0,00 0,00 0,00 0,00 0,00 4.005,00 18.817,33 2.150,92 2.492,65 0,00 0,00 4.643,57 14.173,76 31/10/2023
490 754000 CAROLINA SILVA MASSON CURSI OFICIAL DO MP CANÁPOLIS - COMARCA; CANAPOLIS-PJ-UNPJ 4.570,25 0,00 0,00 0,00 0,00 0,00 1.371,08 3.187,27 9.128,60 739,39 545,57 0,00 0,00 1.284,96 7.843,64 31/10/2023
491 529600 CAROLINA VAZ DE MELO MAMBRINI ANALISTA DO MP BELO HORIZONTE - COMARCA; BH-14PJ DEFESA CONSUMIDOR-GAB 005PJ 12.343,61 2.468,72 0,00 0,00 0,00 0,00 0,00 2.105,00 16.917,33 2.150,92 2.596,93 0,00 0,00 4.747,85 12.169,48 31/10/2023
492 619100 CAROLINA ZAKHIA NARDELLI RODRIGUES ANALISTA DO MP NEPOMUCENO - COMARCA; NEPOMUCENO-PJ-UNPJ 12.343,61 1.234,36 0,00 0,00 0,00 0,00 0,00 3.055,00 16.632,97 1.953,42 2.259,65 0,00 0,00 4.213,07 12.419,90 31/10/2023
493 517600 CAROLINE ALVES DE OLIVEIRA MULLER ANALISTA DO MP VISCONDE DO RIO BRANCO - COMARCA; VISCONDE DO RIO BRANCO-PJ-01PJ 12.343,61 3.703,08 0,00 0,00 0,00 0,00 0,00 2.105,00 18.151,69 2.348,42 2.829,93 0,00 0,00 5.178,35 12.973,34 31/10/2023
494 373200 CAROLINE ANTUNES RIBEIRO OFICIAL DO MP JACUI - COMARCA; JACUI-PJ-UNPJ 12.343,61 3.703,08 0,00 0,00 0,00 0,00 0,00 2.105,00 18.151,69 2.348,42 2.829,93 0,00 0,00 5.178,35 12.973,34 31/10/2023
495 723500 CAROLINE CORDEIRO FERNANDES MACHADO ASSESSOR PROMOTOR JUSTICA BELO HORIZONTE - COMARCA; COORD DE INCLUSAO E MOBILIZACAO SOCIAIS 0,00 0,00 8.810,89 0,00 0,00 0,00 0,00 2.105,00 10.915,89 876,95 1.709,37 0,00 0,00 2.586,32 8.329,57 31/10/2023
496 556800 CAROLINE DE SOUZA CARDOSO DOMINGUES OFICIAL DO MP BRASÍLIA DE MINAS - COMARCA; BRASILIA DE MINAS-PJ-02PJ 7.506,70 1.501,34 0,00 0,00 0,00 0,00 0,00 2.105,00 11.113,04 1.222,23 1.256,14 0,00 0,00 2.478,37 8.634,67 31/10/2023
497 751700 CAROLINE GUIMARAES DAMASCENO ASSESSOR PROMOTOR JUSTICA SANTA LUZIA - COMARCA; SANTA LUZIA-PJ-01PJ 0,00 0,00 8.810,89 0,00 0,00 0,00 5.580,23 3.732,73 18.123,85 876,95 3.525,19 0,00 0,00 4.402,14 13.721,71 31/10/2023
498 499400 CAROLINE MARQUES DE LOURDES MARZULLO OFICIAL DO MP JUIZ DE FORA - COMARCA; JUIZ DE FORA-PJ-08PJ 10.858,90 2.171,78 0,00 0,00 0,00 0,00 0,00 3.530,00 16.560,68 982,16 2.314,47 0,00 0,00 3.296,63 13.264,05 31/10/2023
499 616800 CAROLINE MONTEIRO DE BARROS ANALISTA DO MP CONTAGEM - COMARCA; CONTAGEM-PJ-11PJ 12.343,61 1.234,36 0,00 0,00 0,00 0,00 0,00 3.055,00 16.632,97 982,16 2.453,68 0,00 0,00 3.435,84 13.197,13 31/10/2023
500 618100 CAROLINE VASCONCELOS COSTA LANZA ANALISTA DO MP PARAOPEBA - COMARCA; PARAOPEBA-PJ-UNPJ 12.343,61 1.234,36 0,00 0,00 0,00 0,00 0,00 4.955,00 18.532,97 1.953,42 2.311,79 0,00 0,00 4.265,21 14.267,76 31/10/2023
501 699000 CAROLLINA RODRIGUES SOUTO AMARAL ASSESSOR PROCURADOR JUSTICA BELO HORIZONTE - COMARCA; GABINETE DE PROCURADOR DE JUSTIÇA - SALA 405 0,00 0,00 8.810,89 0,00 0,00 0,00 0,00 2.105,00 10.915,89 876,95 1.709,37 0,00 0,00 2.586,32 8.329,57 31/10/2023
502 604000 CASSIA APARECIDA DA SILVA OFICIAL DO MP PARACATU - COMARCA; PARACATU-PJ-01PJ 7.506,70 750,67 0,00 0,00 0,00 0,00 0,00 2.105,00 10.362,37 1.102,13 1.082,73 0,00 0,00 2.184,86 8.177,51 31/10/2023
503 268800 CASSIA BEATRIZ TEIXEIRA OFICIAL DO MP BELO HORIZONTE - COMARCA; PROC. JUSTICA DE HABEAS CORPUS 18.130,77 7.252,31 4.346,47 0,00 904,42 0,00 12.530,35 4.221,47 47.385,79 5.181,88 8.925,46 0,00 31,35 14.138,69 33.247,10 31/10/2023
504 500000 CASSIA DE OLIVEIRA COSTA VIANA ANALISTA DO MP SETE LAGOAS - COMARCA; SETE LAGOAS-PJ-09PJ 12.343,61 8.640,53 0,00 0,00 0,00 3.138,41 0,00 2.105,00 26.227,55 3.138,41 4.885,68 0,00 0,00 8.024,09 18.203,46 31/10/2023
505 368800 CASSIA LUISA BATISTA MENDONCA WEBER COORDENADOR II BELO HORIZONTE - COMARCA; DIVISÃO DE EDUCAÇÃO PARA O CONSUMO 20.533,67 6.160,10 0,00 0,00 0,00 0,00 0,00 2.105,00 28.798,77 1.932,03 5.924,52 0,00 0,00 7.856,55 20.942,22 31/10/2023
506 622200 CASSIA VAZ DE AZEVEDO LISBOA MARZANO ASSESSOR ADMINISTRATIVO III BELO HORIZONTE - COMARCA; CGMP-DIR ESTAGIO PROBATORIO E ORIENT 0,00 0,00 10.858,90 0,00 0,00 0,00 670,00 2.105,00 13.633,90 876,95 2.116,16 0,00 0,00 2.993,11 10.640,79 31/10/2023
507 121000 CASSIO HENRIQUE AFONSO DA SILVA OFICIAL DO MP BELO HORIZONTE - COMARCA; CGMP-ASSESSORIA TECNICA 23.070,31 18.456,25 0,00 0,00 0,00 0,00 0,00 2.105,00 43.631,56 5.795,34 7.754,29 3.936,60 0,00 17.486,23 26.145,33 31/10/2023
508 512001 CATARINA NATALINO CALIXTO COORDENADOR II BELO HORIZONTE - COMARCA; DIRETORIA GESTAO COMPRAS LICITACOES 20.533,67 3.285,39 0,00 0,00 0,00 0,00 524,02 8.771,57 33.114,65 2.071,92 5.095,50 0,00 0,00 7.167,42 25.947,23 31/10/2023
509 606200 CATARINE DE SIQUEIRA DE QUADROS ANALISTA DO MP CONTAGEM - COMARCA; CONTAGEM-PJ-08PJ 12.343,61 1.234,36 0,00 0,00 0,00 0,00 0,00 3.055,00 16.632,97 1.953,42 2.207,52 0,00 0,00 4.160,94 12.472,03 31/10/2023
510 622300 CECILIA APARECIDA PEREIRA ASSUNCAO OFICIAL DO MP TRÊS PONTAS - COMARCA; TRES PONTAS-PJ-SECRETARIA 8.264,07 826,41 0,00 0,00 0,00 0,00 0,00 3.055,00 12.145,48 1.235,43 1.223,04 0,00 0,00 2.458,47 9.687,01 31/10/2023
511 538000 CECILIA FONTES DE MATOS PIMENTEL ANALISTA DO MP PALMA - COMARCA; PALMA-PJ-UNPJ 12.343,61 2.468,72 0,00 0,00 0,00 0,00 0,00 3.055,00 17.867,33 2.150,92 2.596,93 0,00 0,00 4.747,85 13.119,48 31/10/2023
512 748900 CECILIA KRUEL DE MAGALHAES PINTO ASSESSOR ADMINISTRATIVO IV BELO HORIZONTE - COMARCA; CAO-MEIO AMBIENTE 0,00 0,00 14.488,22 0,00 0,00 0,00 0,00 4.005,00 18.493,22 876,95 3.270,64 0,00 0,00 4.147,59 14.345,63 31/10/2023
513 261300 CECILIO ANTONIO CAMPOS DOS REIS ANALISTA DO MP BELO HORIZONTE - COMARCA; AUDITORIA INTERNA 23.070,31 9.228,12 0,00 0,00 1.081,47 0,00 15.906,73 7.272,75 56.559,38 7.104,98 10.046,76 0,00 0,00 17.151,74 39.407,64 31/10/2023
514 386400 CEFAS AMORELI DE FIGUEIREDO OFICIAL DO MP CABO VERDE - COMARCA; CABO VERDE-PJ-SECRETARIA 7.506,70 2.252,01 0,00 0,00 0,00 0,00 0,00 2.105,00 11.863,71 1.342,34 1.429,54 0,00 0,00 2.771,88 9.091,83 31/10/2023
515 421000 CELINA BENEDITA DE SOUZA ALMEIDA OFICIAL DO MP CAMBUÍ - COMARCA; CAMBUI-PJ-01PJ 12.343,61 8.640,53 0,00 2.005,21 646,10 19.548,41 0,00 2.105,00 45.288,86 3.138,41 4.833,54 0,00 88,36 8.060,31 37.228,55 31/10/2023
516 252900 CELIO DE MELO CASTOR ANALISTA DO MP BELO HORIZONTE - COMARCA; DIVISAO FROTA 23.070,31 9.228,12 0,00 0,00 0,00 0,00 1.765,63 2.105,00 36.169,06 4.948,70 6.636,22 0,00 0,00 11.584,92 24.584,14 31/10/2023
517 395700 CELIO FERREIRA LIMA OFICIAL DO MP CONTAGEM - COMARCA; CONTAGEM-PJ-SECRETARIA 12.343,61 3.703,08 0,00 0,00 5.348,90 0,00 0,00 2.105,00 23.500,59 2.348,42 4.300,87 0,00 0,00 6.649,29 16.851,30 31/10/2023
518 281300 CELMA REGINA PEREIRA SANTOS ANALISTA DO MP BELO HORIZONTE - COMARCA; PROMOT ESTADUAL DE DEF PATRI CULT E TUR DE MG 23.070,31 6.921,09 0,00 0,00 0,00 0,00 0,00 2.105,00 32.096,40 4.579,57 6.103,29 0,00 0,00 10.682,86 21.413,54 31/10/2023
519 535600 CELSO MEDEIROS DE PAIVA OFICIAL DO MP RIO PRETO - COMARCA; RIO PRETO-PJ-SECRETARIA 7.506,70 1.501,34 0,00 0,00 0,00 0,00 0,00 2.105,00 11.113,04 1.222,23 1.204,00 0,00 0,00 2.426,23 8.686,81 31/10/2023
520 367000 CESAR NARVAES DE AVELAR OFICIAL DO MP BELO HORIZONTE - COMARCA; DIRET DE INFORMACAO E CONHECIMENTO-DINC/CEAF 12.343,61 3.703,08 0,00 0,00 0,00 0,00 0,00 2.105,00 18.151,69 2.348,42 2.882,06 0,00 0,00 5.230,48 12.921,21 31/10/2023
521 226500 CESAR SILVEIRA BARROUIN OFICIAL DO MP BELO HORIZONTE - COMARCA; DIRETORIA DE ADMINISTRACAO FINANCEIRA 18.130,77 9.065,39 0,00 0,00 886,43 0,00 8.849,51 3.427,05 40.359,15 5.528,87 7.717,60 0,00 0,00 13.246,47 27.112,68 31/10/2023
522 121400 CEZAR MORENO CONCEICAO TAVARES OFICIAL DO MP BELO HORIZONTE - COMARCA; COORD DE INCLUSAO E MOBILIZACAO SOCIAIS 23.070,31 18.456,25 0,00 0,00 0,00 5.795,34 0,00 3.055,00 50.376,90 5.795,34 9.348,00 3.936,60 0,00 19.079,94 31.296,96 31/10/2023
523 243800 CHARLES MARTINS MUNIZ OFICIAL DO MP BELO HORIZONTE - COMARCA; LAB TECNOLOGIA CONTRA LAVAGEM DINHEIRO 18.130,77 7.252,31 0,00 0,00 886,43 0,00 12.312,56 2.776,46 41.358,53 5.544,19 7.739,73 0,00 0,00 13.283,92 28.074,61 31/10/2023
524 193500 CHARLIN CESAR KOURLY OFICIAL DO MP ARAGUARI - COMARCA; ARAGUARI-PJ-07PJ 22.191,68 8.876,67 0,00 0,00 0,00 0,00 4.077,52 2.751,58 37.897,45 5.092,71 6.844,14 0,00 0,00 11.936,85 25.960,60 31/10/2023
525 385500 CHILLEN PEIXOTO DE MOURA OFICIAL DO MP BELO HORIZONTE - COMARCA; DIVISAO DE MATERIAIS 12.343,61 3.703,08 0,00 0,00 0,00 0,00 0,00 4.005,00 20.051,69 2.348,42 2.882,06 0,00 0,00 5.230,48 14.821,21 31/10/2023
526 534500 CHRISTIAN DOUGLAS BRITO RUAS OFICIAL DO MP BOCAIÚVA - COMARCA; BOCAIUVA-PJ-03PJ 7.506,70 1.501,34 0,00 0,00 0,00 0,00 0,00 2.105,00 11.113,04 1.222,23 1.256,14 0,00 0,00 2.478,37 8.634,67 31/10/2023
527 370600 CHRISTIAN KARINE FELIX PRATES ASSESSOR ADMINISTRATIVO IV BELO HORIZONTE - COMARCA; SUPRIN DE PLANEJAMENTO E COORDENACAO 0,00 0,00 14.488,22 0,00 0,00 0,00 0,00 2.105,00 16.593,22 876,95 3.270,64 0,00 0,00 4.147,59 12.445,63 31/10/2023
528 435800 CHRISTIANA BAHIA ANDRADE PINA ANALISTA DO MP BELO HORIZONTE - COMARCA; LABORATORIO TECNOLOGIA INTELIGENCIA 18.720,84 3.744,17 0,00 0,00 0,00 0,00 0,00 2.105,00 24.570,01 3.375,35 4.364,70 0,00 0,00 7.740,05 16.829,96 31/10/2023
529 516800 CHRISTIANE FERREIRA DO NASCIMENTO ANALISTA DO MP POUSO ALEGRE - COMARCA; POUSO ALEGRE-PJ-04PJ 12.343,61 2.468,72 0,00 0,00 0,00 0,00 0,00 2.105,00 16.917,33 2.150,92 2.596,93 0,00 0,00 4.747,85 12.169,48 31/10/2023
530 176000 CHRISTIANE JUNQUEIRA PULITI ANDRADE DE BARROS ASSESSOR ADM. ESPECIAL BELO HORIZONTE - COMARCA; PROCURADORIA-GERAL ADJUNTA INSTITUCIONAL 0,00 25.212,05 28.013,39 0,00 0,00 8.297,02 0,00 2.105,00 63.627,46 8.297,02 9.452,28 15.635,48 0,00 33.384,78 30.242,68 31/10/2023
531 319200 CHRISTIANE MARIA DE ASSIS RUSSO OFICIAL DO MP BELO HORIZONTE - COMARCA; CAO-ORDEM ECONOMICA E TRIBUTARIA-SECRETARIA 15.949,86 4.784,96 0,00 0,00 0,00 0,00 0,00 3.055,00 23.789,82 3.098,52 3.912,89 0,00 0,00 7.011,41 16.778,41 31/10/2023
532 510300 CHRISTIANE MARY DE CARVALHO FERREIRA ANALISTA DO MP BELO HORIZONTE - COMARCA; DIRETORIA DE SISTEMAS DE INFORMACAO 12.343,61 2.468,72 0,00 0,00 0,00 0,00 0,00 2.105,00 16.917,33 2.150,92 2.544,79 0,00 0,00 4.695,71 12.221,62 31/10/2023
533 424900 CHRISTIANE PEREIRA TURNER DE ARAUJO OFICIAL DO MP BELO HORIZONTE - COMARCA; CAO-PATRIMONIO PUBLICO 12.343,61 2.468,72 0,00 0,00 0,00 0,00 0,00 3.055,00 17.867,33 2.150,92 2.492,65 0,00 0,00 4.643,57 13.223,76 31/10/2023
534 731000 CHRISTIANE TEIXEIRA ANTUNA ASSESSOR ADMINISTRATIVO III BELO HORIZONTE - COMARCA; DIR CONTEUDO JORNALISTICO 0,00 0,00 10.858,90 0,00 0,00 0,00 0,00 2.105,00 12.963,90 876,95 2.272,58 0,00 0,00 3.149,53 9.814,37 31/10/2023
535 513700 CHRISTIANE VIEIRA SOARES PEDERSOLI COORDENADOR II BELO HORIZONTE - COMARCA; ASSESSORIA JURIDICA DO PROCON-MG 19.712,32 4.106,73 0,00 0,00 0,00 0,00 0,00 2.986,82 26.805,87 2.150,92 5.073,78 0,00 0,00 7.224,70 19.581,17 31/10/2023
536 412300 CHRYSTIAN MACHADO RIBEIRO ANALISTA DO MP VARGINHA - COMARCA; VARGINHA-PJ-04PJ 18.720,84 3.744,17 0,00 0,00 0,00 0,00 0,00 2.105,00 24.570,01 3.375,35 4.364,70 0,00 0,00 7.740,05 16.829,96 31/10/2023
537 513800 CHRYSTIANE DO NASCIMENTO DE MAGALHAES OFICIAL DO MP UBERLÂNDIA - COMARCA; UBERLANDIA-PJ-10PJ 10.516,49 2.103,30 0,00 0,00 0,00 0,00 0,00 2.105,00 14.724,79 1.800,11 1.986,18 0,00 0,00 3.786,29 10.938,50 31/10/2023
538 497900 CIBELE DE FREITAS SANCHES DIAS ANALISTA DO MP SABARÁ - COMARCA; SABARA-PJ-03PJ 12.343,61 2.468,72 0,00 0,00 0,00 0,00 0,00 2.105,00 16.917,33 982,16 2.715,54 0,00 0,00 3.697,70 13.219,63 31/10/2023
539 500900 CIBELLE SILVA PRADO ALVARENGA ANALISTA DO MP ITANHANDU - COMARCA; ITANHANDU-PJ-UNPJ 12.343,61 2.468,72 0,00 0,00 0,00 0,00 0,00 3.055,00 17.867,33 2.150,92 2.596,93 0,00 0,00 4.747,85 13.119,48 31/10/2023
540 296400 CINTIA APARECIDA MOREIRA NAVES E RODRIGUES ANALISTA DO MP CAMPO BELO - COMARCA; CAMPO BELO-PJ-01PJ 23.070,31 6.921,09 0,00 0,00 0,00 0,00 3.591,93 2.753,88 36.337,21 4.839,35 6.478,35 0,00 0,00 11.317,70 25.019,51 31/10/2023
541 407900 CINTIA NETO COMELLI ANALISTA DO MP BELO HORIZONTE - COMARCA; CENTRAL DE APOIO TECNICO-SETOR CONTABIL 18.720,84 3.744,17 0,00 0,00 0,00 0,00 0,00 2.105,00 24.570,01 3.375,35 4.312,56 0,00 0,00 7.687,91 16.882,10 31/10/2023
542 304700 CINTIA QUEIROZ OFICIAL DO MP BELO HORIZONTE - COMARCA; OUVIDORIA DO MPMG 12.343,61 3.703,08 0,00 0,00 0,00 0,00 0,00 2.105,00 18.151,69 2.348,42 2.882,06 0,00 0,00 5.230,48 12.921,21 31/10/2023
543 286100 CIRO CANGUSSU CORDEIRO OFICIAL DO MP IPATINGA - COMARCA; IPATINGA-PJ-09PJ 10.858,90 3.257,67 0,00 0,00 0,00 0,00 0,00 3.055,00 17.171,57 2.039,60 2.331,93 0,00 0,00 4.371,53 12.800,04 31/10/2023
544 689900 CISSA NOGUEIRA COLEN ASSESSOR PROCURADOR JUSTICA BELO HORIZONTE - COMARCA; GABINETE DE PROCURADOR DE JUSTIÇA - SALA 608 0,00 0,00 8.810,89 0,00 0,00 0,00 0,00 2.105,00 10.915,89 876,95 1.709,37 0,00 0,00 2.586,32 8.329,57 31/10/2023
545 681700 CLARA FERREIRA ALKIMIM ASSESSOR PROMOTOR JUSTICA PEDRA AZUL - COMARCA; PEDRA AZUL-PJ-02PJ 0,00 0,00 8.810,89 0,00 0,00 0,00 0,00 2.105,00 10.915,89 876,95 1.709,37 0,00 0,00 2.586,32 8.329,57 31/10/2023
546 715500 CLARA ISABELLE SOUSA FARIA ASSESSOR PROCURADOR JUSTICA BELO HORIZONTE - COMARCA; GABINETE DE PROCURADOR DE JUSTIÇA - SALA 712 0,00 0,00 8.810,89 0,00 0,00 0,00 0,00 2.105,00 10.915,89 876,95 1.709,37 0,00 0,00 2.586,32 8.329,57 31/10/2023
547 723100 CLARA PRADO CAMPOS ASSESSOR PROCURADOR JUSTICA BELO HORIZONTE - COMARCA; GABINETE DE PROCURADOR DE JUSTIÇA - SALA 1006 0,00 0,00 8.810,89 0,00 0,00 0,00 0,00 2.105,00 10.915,89 876,95 1.709,37 0,00 0,00 2.586,32 8.329,57 31/10/2023
548 695500 CLARA RODRIGUES BLACH ASSESSOR PROCURADOR JUSTICA BELO HORIZONTE - COMARCA; GABINETE DE PROCURADOR DE JUSTIÇA - SALA 1003 0,00 0,00 8.810,89 0,00 0,00 0,00 0,00 2.105,00 10.915,89 876,95 1.709,37 0,00 0,00 2.586,32 8.329,57 31/10/2023
549 412500 CLARICE GOMES MAROTTA ANALISTA DO MP BELO HORIZONTE - COMARCA; COORD ESTADUAL DE DEFESA DOS ANIMAIS 18.720,84 7.488,34 0,00 0,00 823,12 0,00 12.052,46 2.764,02 41.848,78 5.656,16 7.883,98 0,00 0,00 13.540,14 28.308,64 31/10/2023
550 605300 CLARISSA AZEVEDO ROCHA OFICIAL DO MP BELO HORIZONTE - COMARCA; BH-16PJ HABITACAO URBANISMO-GAB 117PJ 7.506,70 750,67 0,00 0,00 0,00 0,00 0,00 2.105,00 10.362,37 1.102,13 1.082,73 0,00 0,00 2.184,86 8.177,51 31/10/2023
551 308100 CLARISSA DUARTE BELLONI DIRETOR-GERAL BELO HORIZONTE - COMARCA; DIRETORIA-GERAL 34.667,33 10.400,20 0,00 0,00 0,00 0,00 0,00 4.955,00 50.022,53 4.579,57 8.088,62 7.477,57 0,00 20.145,76 29.876,77 31/10/2023
552 730500 CLARISSA FERNANDES ABREU ASSESSOR PROMOTOR JUSTICA SANTOS DUMONT - COMARCA; SANTOS DUMONT-PJ-02PJ 0,00 0,00 8.810,89 0,00 0,00 0,00 0,00 2.105,00 10.915,89 876,95 1.709,37 0,00 0,00 2.586,32 8.329,57 31/10/2023
553 743200 CLARISSA GODINHO PRATES ASSESSOR ADMINISTRATIVO I GOVERNADOR VALADARES - COMARCA; COOR REG APOIO COM INC MOB VALE DO RIO DOCE 0,00 0,00 4.872,71 0,00 0,00 0,00 0,00 2.105,00 6.977,71 718,08 670,06 0,00 0,00 1.388,14 5.589,57 31/10/2023
554 497100 CLARISSA ROCHA GUIDI ANALISTA DO MP BELO HORIZONTE - COMARCA; BH-02PJ FAMILIA-SECRETARIA 15.447,01 3.089,40 0,00 0,00 0,00 0,00 0,00 4.005,00 22.541,41 2.746,77 3.405,05 0,00 0,00 6.151,82 16.389,59 31/10/2023
555 641800 CLARISSE TAVARES GONCALVES OFICIAL DO MP BELO HORIZONTE - COMARCA; BH-07PJ 01 TRIBUNAL JURI-SECRETARIA 7.506,70 750,67 0,00 0,00 0,00 0,00 0,00 2.105,00 10.362,37 982,16 1.115,72 0,00 0,00 2.097,88 8.264,49 31/10/2023
556 463700 CLAUDIA ADRIANA FERRAO DIAS ANALISTA DO MP SETE LAGOAS - COMARCA; SETE LAGOAS-PJ-06PJ 12.343,61 2.468,72 0,00 0,00 0,00 0,00 0,00 2.105,00 16.917,33 2.150,92 2.596,93 0,00 0,00 4.747,85 12.169,48 31/10/2023
557 415400 CLAUDIA ALMEIDA DE VASCONCELLOS BARROS OFICIAL DO MP BELO HORIZONTE - COMARCA; DIVISAO DE SERVICOS 11.212,54 2.242,51 4.020,58 0,00 0,00 0,00 0,00 2.105,00 19.580,63 1.933,76 3.389,05 0,00 0,00 5.322,81 14.257,82 31/10/2023
558 207000 CLAUDIA APARECIDA VILELA MACHADO ANALISTA DO MP BELO HORIZONTE - COMARCA; CENTRAL DE APOIO TECNICO-SETOR CONTABIL 23.070,31 11.535,16 0,00 0,00 487,20 0,00 13.769,68 3.302,94 52.165,29 7.154,66 9.798,64 0,00 0,00 16.953,30 35.211,99 31/10/2023
559 365700 CLAUDIA BREGUEZ CUNHA ANALISTA DO MP VARGINHA - COMARCA; VARGINHA-PJ-07PJ 21.346,53 6.403,96 0,00 0,00 10.212,72 0,00 13.156,51 3.055,00 54.174,72 6.069,14 11.062,36 0,00 0,00 17.131,50 37.043,22 31/10/2023
560 430500 CLAUDIA CECILIA SANTANA VENCESLAU OFICIAL DO MP BELO HORIZONTE - COMARCA; LAB TECNOLOGIA CONTRA LAVAGEM DINHEIRO 12.343,61 2.468,72 0,00 0,00 0,00 0,00 0,00 2.105,00 16.917,33 2.150,92 2.544,79 0,00 0,00 4.695,71 12.221,62 31/10/2023
561 213601 CLAUDIA GONCALVES CALIXTO ASSESSOR PROCURADOR JUSTICA BELO HORIZONTE - COMARCA; PROC. JUSTICA DIR. DIFUSOS E COLETIVOS-SEC 0,00 0,00 8.810,89 0,00 0,00 0,00 0,00 2.105,00 10.915,89 876,95 1.709,37 0,00 0,00 2.586,32 8.329,57 31/10/2023
562 480400 CLAUDIA GOULART DE SOUZA OFICIAL DO MP PASSOS - COMARCA; PASSOS-PJ-06PJ 10.858,90 3.257,67 0,00 0,00 0,00 0,00 0,00 2.105,00 16.221,57 2.039,60 2.436,21 0,00 0,00 4.475,81 11.745,76 31/10/2023
563 519800 CLAUDIA HELENA CORREA DE ALMEIDA ANALISTA DO MP BELO HORIZONTE - COMARCA; BH-12PJ JUIZO CRIMINAL-GAB 096PJ 12.343,61 2.468,72 0,00 0,00 0,00 0,00 0,00 2.105,00 16.917,33 2.150,92 2.596,93 0,00 0,00 4.747,85 12.169,48 31/10/2023
564 422100 CLAUDIA IACOMINI CABRAL ANALISTA DO MP BELO HORIZONTE - COMARCA; CENT DE APOIO TEC-SETOR DEF,IDOSO E INFANC 18.720,84 13.104,58 0,00 0,00 0,00 0,00 2.452,27 2.771,86 37.049,55 4.946,56 6.633,13 0,00 0,00 11.579,69 25.469,86 31/10/2023
565 258200 CLAUDIA LAGE MICHALAROS ANALISTA DO MP BELO HORIZONTE - COMARCA; CENTRAL DE APOIO TECN-SETOR DE MEIO AMBIENTE 23.070,31 18.456,25 0,00 0,00 0,00 5.795,34 0,00 2.105,00 49.426,90 5.795,34 9.452,28 3.936,60 0,00 19.184,22 30.242,68 31/10/2023
566 284600 CLAUDIA LENI DE FREITAS OFICIAL DO MP CONTAGEM - COMARCA; CONTAGEM-PJ-SECRETARIA 7.506,70 3.753,35 0,00 0,00 0,00 1.582,56 565,07 8.269,45 21.677,13 1.582,56 2.211,55 0,00 0,00 3.794,11 17.883,02 31/10/2023
567 433600 CLAUDIA LUIZA SANTIAGO FELICIO ANALISTA DO MP BELO HORIZONTE - COMARCA; CENT DE APOIO TEC-SETOR DEF,IDOSO E INFANC 18.720,84 3.744,17 0,00 0,00 0,00 0,00 494,23 7.496,60 30.455,84 3.375,35 4.260,42 0,00 0,00 7.635,77 22.820,07 31/10/2023
568 317000 CLAUDIA MACHADO ALVES OFICIAL DO MP BELO HORIZONTE - COMARCA; DIR GOVERNANCA TECNOLOGIA INFORMACAO 12.343,61 3.703,08 4.020,58 0,00 0,00 0,00 2.650,60 2.105,00 24.822,87 2.348,42 4.716,64 0,00 0,00 7.065,06 17.757,81 31/10/2023
569 155300 CLAUDIA MACIEL MIRANDA OFICIAL DO MP CONGONHAS - COMARCA; CONGONHAS-PJ-02PJ 23.070,31 16.149,22 0,00 0,00 1.479,44 0,00 6.140,94 8.119,39 54.959,30 6.842,79 9.673,38 1.629,57 0,00 18.145,74 36.813,56 31/10/2023
570 746300 CLAUDIA MAGDA SANTANA ANALISTA DO MP BELO HORIZONTE - COMARCA; DIRETORIA DE ADMINISTRACAO FINANCEIRA 7.040,78 0,00 0,00 0,00 0,00 0,00 5.397,16 2.105,00 14.542,94 909,81 2.285,28 0,00 0,00 3.195,09 11.347,85 31/10/2023
571 242200 CLAUDIA MICHELLE DIAS MUNIZ BALEEIRO OFICIAL DO MP MONTE AZUL - COMARCA; MONTE AZUL-PJ-SECRETARIA 18.130,77 9.065,39 0,00 0,00 0,00 0,00 1.725,43 2.105,00 31.026,59 4.768,85 6.530,94 0,00 0,00 11.299,79 19.726,80 31/10/2023
572 755900 CLAUDIA NATIVIDADE ASSESSOR ADMINISTRATIVO II BELO HORIZONTE - COMARCA; CENTRO ESTADUAL DE APOIO AS VITIMAS 0,00 0,00 5.504,91 0,00 0,00 0,00 0,00 1.764,09 7.269,00 758,86 738,95 0,00 0,00 1.497,81 5.771,19 31/10/2023
573 623000 CLAUDIA PATRICIA SILVA RODRIGUES RAPOSEIRAS OFICIAL DO MP BELO HORIZONTE - COMARCA; DIVISÃO DE EDUCAÇÃO PARA O CONSUMO 7.506,70 750,67 0,00 0,00 0,00 0,00 0,00 3.055,00 11.312,37 1.102,13 1.030,59 0,00 0,00 2.132,72 9.179,65 31/10/2023
574 418400 CLAUDIA REGINA MARTINS BONIFACIO OFICIAL DO MP ITUIUTABA - COMARCA; ITUIUTABA-PJ-06PJ 12.343,61 2.468,72 0,00 0,00 0,00 0,00 0,00 2.105,00 16.917,33 2.150,92 2.492,65 0,00 0,00 4.643,57 12.273,76 31/10/2023
575 498300 CLAUDIA SOUTO FARIAS BRAUN OFICIAL DO MP TEÓFILO OTONI - COMARCA; TEOFILO OTONI-PJ-SECRETARIA 7.506,70 1.501,34 0,00 0,00 0,00 0,00 0,00 2.105,00 11.113,04 1.222,23 1.151,86 0,00 0,00 2.374,09 8.738,95 31/10/2023
576 206500 CLAUDIA VALERIA FONSECA ANDRADE ANALISTA DO MP BELO HORIZONTE - COMARCA; BH-23PJ INF-FISC MED SOC FEC 23.070,31 16.149,22 0,00 0,00 0,00 5.795,34 0,00 2.105,00 47.119,87 5.795,34 9.452,28 1.629,57 0,00 16.877,19 30.242,68 31/10/2023
577 277500 CLAUDIO ANTONIO BORGES BRUNSWICK ALVARES OFICIAL DO MP BELO HORIZONTE - COMARCA; SUPER DE GESTAO DE PESSOAS-LOTACAO TEMPORARIA 12.343,61 3.703,08 0,00 0,00 0,00 0,00 0,00 2.105,00 18.151,69 2.348,42 2.882,06 0,00 0,00 5.230,48 12.921,21 31/10/2023
578 444800 CLAUDIO ARESIO DO CARMO ANALISTA DO MP SETE LAGOAS - COMARCA; SETE LAGOAS-PJ-01PJ 15.447,01 6.178,80 0,00 0,00 0,00 0,00 5.922,07 3.555,04 31.102,92 3.957,79 5.153,45 0,00 0,00 9.111,24 21.991,68 31/10/2023
579 545100 CLAUDIO HENRIQUE MACEDO DE SOUZA FRANSOZO ANALISTA DO MP OURO PRETO - COMARCA; OURO PRETO-PJ-03PJ 12.343,61 2.468,72 0,00 0,00 0,00 0,00 0,00 3.055,00 17.867,33 982,16 2.767,68 0,00 0,00 3.749,84 14.117,49 31/10/2023
580 353500 CLAUDIO HENRIQUE PEDRO DA ROCHA OFICIAL DO MP BELO HORIZONTE - COMARCA; DIVISAO TRANSPORTES 12.343,61 3.703,08 0,00 0,00 0,00 0,00 0,00 2.105,00 18.151,69 2.348,42 2.777,79 0,00 0,00 5.126,21 13.025,48 31/10/2023
581 265800 CLAUDIO KUPIDLOWSKY FERNANDES OFICIAL DO MP BELO HORIZONTE - COMARCA; SECRETARIA DO PROCON-MG 12.343,61 4.937,44 0,00 0,00 0,00 0,00 0,00 2.105,00 19.386,05 2.545,92 2.212,85 0,00 0,00 4.758,77 14.627,28 31/10/2023
582 193600 CLAUDIO LEITE FONTES OFICIAL DO MP ITUIUTABA - COMARCA; ITUIUTABA-PJ-02PJ 12.343,61 6.171,81 0,00 0,00 0,00 0,00 0,00 3.055,00 21.570,42 2.743,42 3.089,34 0,00 0,00 5.832,76 15.737,66 31/10/2023
583 329400 CLAUDIO MARCIO BERNARDES OFICIAL DO MP ITAÚNA - COMARCA; ITAUNA-PJ-03PJ 12.343,61 9.874,89 0,00 0,00 0,00 0,00 0,00 3.055,00 25.273,50 3.335,91 4.255,62 0,00 0,00 7.591,53 17.681,97 31/10/2023
584 270200 CLAUDIO RABELO ALVES OFICIAL DO MP FORMIGA - COMARCA; FORMIGA-PJ-03PJ 15.447,01 6.178,80 0,00 0,00 701,28 0,00 10.199,32 4.228,27 36.754,68 4.639,33 6.226,01 0,00 0,00 10.865,34 25.889,34 31/10/2023
585 264700 CLAUDIO ROBERTO KFURI DE ARAUJO ANALISTA DO MP BELO HORIZONTE - COMARCA; CENTRAL DE APOIO TECNICO-SETOR DE INFORMATICA 23.070,31 9.228,12 0,00 0,00 0,00 0,00 0,00 2.105,00 34.403,43 4.948,70 6.531,94 0,00 0,00 11.480,64 22.922,79 31/10/2023
586 543300 CLAUDIO SILVA DE CARVALHO ANALISTA DO MP CAMPO BELO - COMARCA; CAMPO BELO-PJ-03PJ 11.954,43 1.195,44 0,00 0,00 0,00 0,00 0,00 2.105,00 15.254,87 1.884,93 2.160,76 0,00 0,00 4.045,69 11.209,18 31/10/2023
587 160700 CLAUDIO VICENTE HESS ASSESSOR DE GABINETE I BELO HORIZONTE - COMARCA; CENTRAL DE APOIO TECNICO-SETOR DE INFORMATICA 0,00 9.065,39 18.130,77 0,00 0,00 0,00 0,00 2.105,00 29.301,16 876,95 6.661,05 0,00 0,00 7.538,00 21.763,16 31/10/2023
588 312900 CLAUDIO VIEIRA FIRPE OFICIAL DO MP BELO HORIZONTE - COMARCA; DIR RELACOES INSTITUCIONAIS 12.343,61 3.703,08 0,00 0,00 0,00 0,00 0,00 2.105,00 18.151,69 2.348,42 2.882,06 0,00 0,00 5.230,48 12.921,21 31/10/2023
589 634100 CLEA CRISTINA GUERRA DE FREITAS COSTA OFICIAL DO MP BELO HORIZONTE - COMARCA; BH-18PJ VIOLENCIA DOMESTICA-SECRETARIA 7.506,70 750,67 0,00 0,00 0,00 0,00 0,00 2.105,00 10.362,37 1.102,13 1.030,59 0,00 0,00 2.132,72 8.229,65 31/10/2023
590 459200 CLEIA ZILLE PEREIRA ANALISTA DO MP BELO HORIZONTE - COMARCA; BH-07PJ 01 TRIBUNAL DO JURI-GAB 059PJ 12.343,61 2.468,72 0,00 0,00 0,00 0,00 0,00 3.530,00 18.342,33 2.150,92 2.596,93 0,00 0,00 4.747,85 13.594,48 31/10/2023
591 481800 CLEIDE CARDOSO DA SILVA ANALISTA DO MP MANHUAÇU - COMARCA; MANHUACU-PJ-04PJ 12.343,61 2.468,72 0,00 0,00 0,00 0,00 0,00 2.105,00 16.917,33 2.150,92 2.492,65 0,00 0,00 4.643,57 12.273,76 31/10/2023
592 347600 CLEIDIMAR DE OLIVEIRA SILVA OFICIAL DO MP PATOS DE MINAS - COMARCA; PATOS DE MINAS-PJ-03PJ 12.343,61 4.937,44 0,00 0,00 0,00 0,00 0,00 2.105,00 19.386,05 2.545,92 2.958,65 0,00 0,00 5.504,57 13.881,48 31/10/2023
593 396500 CLEIDISON BATISTA DE ANDRADE OFICIAL DO MP RESPLENDOR - COMARCA; RESPLENDOR-PJ-UNPJ 11.577,56 3.473,27 0,00 0,00 0,00 0,00 0,00 2.105,00 17.155,83 2.189,08 2.547,75 0,00 0,00 4.736,83 12.419,00 31/10/2023
594 535100 CLEISON ALVES DA SILVA ANALISTA DO MP BOA ESPERANÇA - COMARCA; BOA ESPERANCA-PJ-01PJ 12.343,61 3.703,08 0,00 0,00 0,00 0,00 0,00 2.105,00 18.151,69 2.348,42 2.777,79 0,00 0,00 5.126,21 13.025,48 31/10/2023
595 298100 CLEONICE AUGUSTA BARROS DE OLIVEIRA ANALISTA DO MP JUIZ DE FORA - COMARCA; JUIZ DE FORA-PJ-08PJ 23.070,31 6.921,09 0,00 0,00 0,00 0,00 0,00 2.105,00 32.096,40 4.579,57 6.103,29 0,00 0,00 10.682,86 21.413,54 31/10/2023
596 114301 CLERES PEREIRA DA SILVA JUNIOR ASSESSOR ADMINISTRATIVO I BELO HORIZONTE - COMARCA; GAECO - SECRETARIA 0,00 2.436,35 4.872,71 0,00 0,00 0,00 0,00 2.105,00 9.414,06 876,95 836,98 0,00 0,00 1.713,93 7.700,13 31/10/2023
597 264100 CLETO HENRIQUE ANDRADE SILVA ANALISTA DO MP BELO HORIZONTE - COMARCA; DIRETORIA DE SISTEMAS DE INFORMACAO 23.070,31 9.228,12 0,00 0,00 0,00 0,00 473,71 7.272,75 40.044,89 4.948,70 6.531,94 0,00 0,00 11.480,64 28.564,25 31/10/2023
598 334400 CLEUBA DE OLIVEIRA BARCELOS GONCALVES OFICIAL DO MP DIVINÓPOLIS - COMARCA; COORD REG SAUDE MACRORREGIAO SANITARIA OESTE 12.343,61 3.703,08 0,00 0,00 0,00 0,00 0,00 2.105,00 18.151,69 2.348,42 2.829,93 0,00 0,00 5.178,35 12.973,34 31/10/2023
599 347500 CLEUSA CORDEIRO DA MATA PIMENTA OFICIAL DO MP CAMPO BELO - COMARCA; CAMPO BELO-PJ-01PJ 12.343,61 11.109,25 0,00 0,00 0,00 3.533,41 0,00 2.105,00 29.091,27 3.533,41 5.512,44 0,00 0,00 9.045,85 20.045,42 31/10/2023
600 510200 CLEZIO SALES SILVA OFICIAL DO MP BRASÓPOLIS - COMARCA; BRASOPOLIS-PJ-UNPJ 7.506,70 1.501,34 0,00 0,00 0,00 0,00 0,00 3.327,64 12.335,68 1.222,23 1.256,14 0,00 0,00 2.478,37 9.857,31 31/10/2023
601 323000 CLOTILDE DE PADUA VIEIRA OFICIAL DO MP BELO HORIZONTE - COMARCA; BH-19PJ SAUDE-SECRETARIA 129PJ 12.343,61 3.703,08 0,00 0,00 5.348,90 0,00 0,00 2.105,00 23.500,59 2.348,42 4.353,01 0,00 0,00 6.701,43 16.799,16 31/10/2023
602 285200 CLOVIS ANDRE LUDTKE OFICIAL DO MP BELO HORIZONTE - COMARCA; DIVISAO DE MANUTENCAO PREDIAL 13.588,97 4.076,69 0,00 0,00 0,00 0,00 0,00 2.105,00 19.770,66 2.607,45 3.256,05 0,00 0,00 5.863,50 13.907,16 31/10/2023
603 381100 CONCEICAO APARECIDA TEIXEIRA ARANTES ANALISTA DO MP BELO HORIZONTE - COMARCA; BH-23PJ INFRACIONAL-ASS JURIDICA 19.751,60 5.925,48 0,00 0,00 822,13 0,00 19.236,08 4.066,22 49.801,51 6.683,11 9.314,22 0,00 0,00 15.997,33 33.804,18 31/10/2023
604 249900 CONSTANTINO CEZAR GOMES MOTA OFICIAL DO MP MONTES CLAROS - COMARCA; COORD REG BACIA RIOS VERDE GRANDE E PARDO 12.343,61 4.937,44 0,00 0,00 0,00 0,00 0,00 4.005,00 21.286,05 2.545,92 3.062,93 0,00 0,00 5.608,85 15.677,20 31/10/2023
605 481000 CRISHMA ANALIA LOMBELLO ANALISTA DO MP JUIZ DE FORA - COMARCA; JUIZ DE FORA-PJ-13PJ 12.343,61 2.468,72 0,00 0,00 0,00 0,00 0,00 2.105,00 16.917,33 2.150,92 2.544,79 0,00 0,00 4.695,71 12.221,62 31/10/2023
606 523900 CRISTHYANE BAZOLI COSTA GUEDES COUTO OFICIAL DO MP BELO HORIZONTE - COMARCA; BH-04PJ JUIZO REG PÚBLICOS-SECRETARIA 10.516,49 2.103,30 0,00 0,00 0,00 0,00 0,00 2.105,00 14.724,79 1.800,11 2.090,45 0,00 0,00 3.890,56 10.834,23 31/10/2023
607 187000 CRISTIAN DAYVSON EVANGELISTA OFICIAL DO MP JUIZ DE FORA - COMARCA; JUIZ DE FORA-PJ-13PJ 21.346,53 8.538,61 0,00 0,00 1.008,97 0,00 14.494,21 4.009,21 49.397,53 6.508,92 9.706,74 0,00 0,00 16.215,66 33.181,87 31/10/2023
608 682100 CRISTIAN TRISTAO DE ANDRADE ASSESSOR PROMOTOR JUSTICA TRÊS CORACOES - COMARCA; TRES CORACOES-PJ-04PJ 0,00 0,00 8.810,89 0,00 0,00 0,00 0,00 2.105,00 10.915,89 876,95 1.709,37 0,00 0,00 2.586,32 8.329,57 31/10/2023
609 319800 CRISTIANA GONCALVES DOS SANTOS GUSMAO OFICIAL DO MP SETE LAGOAS - COMARCA; SETE LAGOAS-PJ-04PJ 12.343,61 3.703,08 0,00 0,00 0,00 0,00 0,00 2.105,00 18.151,69 2.348,42 2.882,06 0,00 0,00 5.230,48 12.921,21 31/10/2023
610 520600 CRISTIANA JANAINA BARBOZA JUVENCIO DOS SANTOS ANALISTA DO MP BELO HORIZONTE - COMARCA; BH-02PJ FAMILIA-SECRETARIA 12.343,61 2.468,72 0,00 0,00 0,00 0,00 0,00 2.105,00 16.917,33 2.150,92 2.596,93 0,00 0,00 4.747,85 12.169,48 31/10/2023
611 195600 CRISTIANA SOARES HALABI OFICIAL DO MP UBERABA - COMARCA; UBERABA-PJ-01PJ 23.070,31 9.228,12 0,00 0,00 0,00 0,00 3.779,87 2.726,96 38.805,26 5.246,37 7.065,99 0,00 0,00 12.312,36 26.492,90 31/10/2023
612 218900 CRISTIANE ALVES BELLES OFICIAL DO MP JUIZ DE FORA - COMARCA; JUIZ DE FORA-PJ-10PJ 7.506,70 3.002,68 0,00 0,00 0,00 0,00 0,00 3.530,00 14.039,38 1.462,45 1.498,67 0,00 0,00 2.961,12 11.078,26 31/10/2023
613 263600 CRISTIANE CARVALHO COUTINHO OFICIAL DO MP BELO HORIZONTE - COMARCA; BH-23PJ INFRACIONAL-SEC EXP 14.960,00 5.984,00 0,00 0,00 0,00 0,00 0,00 2.105,00 23.049,00 3.131,99 3.961,21 0,00 0,00 7.093,20 15.955,80 31/10/2023
614 541000 CRISTIANE COELHO ALVES OFICIAL DO MP ITABIRA - COMARCA; ITABIRA-PJ-03PJ 7.506,70 1.501,34 0,00 0,00 0,00 0,00 0,00 2.105,00 11.113,04 1.222,23 1.204,00 0,00 0,00 2.426,23 8.686,81 31/10/2023
615 441700 CRISTIANE CORRADO DE ANDRADE ANALISTA DO MP BELO HORIZONTE - COMARCA; DIRETORIA DE SISTEMAS DE INFORMACAO 18.720,84 3.744,17 4.020,58 0,00 0,00 0,00 0,00 2.105,00 28.590,59 3.375,35 5.470,36 0,00 0,00 8.845,71 19.744,88 31/10/2023
616 375100 CRISTIANE DAS DORES ERCIO DE LIMA OFICIAL DO MP GOVERNADOR VALADARES - COMARCA; COOR REG APOIO COM INC MOB VALE DO RIO DOCE 11.954,43 3.586,33 0,00 0,00 0,00 0,00 0,00 2.105,00 17.645,76 2.267,47 2.765,19 0,00 0,00 5.032,66 12.613,10 31/10/2023
617 178800 CRISTIANE DE LIMA HOSKEN OFICIAL DO MP BELO HORIZONTE - COMARCA; BH-14PJ DEFESA CONSUMIDOR-GAB 110PJ 22.191,68 8.876,67 0,00 0,00 0,00 0,00 4.544,79 2.751,58 38.364,72 5.171,34 6.905,52 0,00 0,00 12.076,86 26.287,86 31/10/2023
618 494000 CRISTIANE DE MELO MARQUEZ OLIVEIRA ANALISTA DO MP UBERLÂNDIA - COMARCA; UBERLANDIA-PJ-06PJ 15.949,86 4.146,96 0,00 0,00 0,00 0,00 0,00 3.055,00 23.151,82 2.996,44 3.817,64 0,00 0,00 6.814,08 16.337,74 31/10/2023
619 266100 CRISTIANE DE OLIVEIRA CASTRO OFICIAL DO MP BELO HORIZONTE - COMARCA; BH-14PJ DEFESA CONSUMIDOR-SECRETARIA 18.130,77 7.252,31 0,00 0,00 1.738,16 0,00 13.459,69 2.105,00 42.685,93 5.505,20 8.511,41 0,00 0,00 14.016,61 28.669,32 31/10/2023
620 329500 CRISTIANE DOS REIS SILVA OFICIAL DO MP ARAXÁ - COMARCA; ARAXA-PJ-04PJ 12.343,61 3.703,08 0,00 0,00 0,00 0,00 0,00 2.105,00 18.151,69 2.348,42 2.777,79 0,00 0,00 5.126,21 13.025,48 31/10/2023
621 301600 CRISTIANE GODINHO PIRES ANALISTA DO MP BETIM - COMARCA; BETIM-PJ-06PJ 23.070,31 6.921,09 0,00 0,00 0,00 0,00 0,00 2.105,00 32.096,40 4.579,57 6.103,29 0,00 0,00 10.682,86 21.413,54 31/10/2023
622 406100 CRISTIANE GONCALVES CHAVES ANALISTA DO MP BELO HORIZONTE - COMARCA; BH-06PJ JUIZO CIVEL-SECRETARIA 20.533,67 8.213,47 0,00 0,00 0,00 0,00 527,03 7.854,43 37.128,60 4.380,49 5.815,87 0,00 0,00 10.196,36 26.932,24 31/10/2023
623 487600 CRISTIANE LOPES DE OLIVEIRA OFICIAL DO MP DIVINÓPOLIS - COMARCA; DIVINOPOLIS-PJ-03PJ 9.097,81 1.819,56 0,00 0,00 0,00 0,00 0,00 2.105,00 13.022,37 1.527,73 1.697,19 0,00 0,00 3.224,92 9.797,45 31/10/2023
624 502500 CRISTIANE MACIEL DE OLIVEIRA GOMES ANALISTA DO MP JUIZ DE FORA - COMARCA; JUIZ DE FORA-PJ-02PJ 12.343,61 2.468,72 0,00 0,00 0,00 0,00 0,00 3.055,00 17.867,33 2.150,92 2.596,93 0,00 0,00 4.747,85 13.119,48 31/10/2023
625 285500 CRISTIANE MAGALHAES LOURENCO ANALISTA DO MP BELO HORIZONTE - COMARCA; CENTRAL DE APOIO TECNICO-SETOR CONTABIL 23.070,31 6.921,09 0,00 0,00 0,00 0,00 3.209,29 2.753,88 35.954,57 4.778,44 6.338,26 0,00 0,00 11.116,70 24.837,87 31/10/2023
626 536500 CRISTIANE MICHELE DE SOUZA ANALISTA DO MP BARÃO DE COCAIS - COMARCA; BARAO DE COCAIS-PJ-UNPJ 12.343,61 2.468,72 0,00 0,00 0,00 0,00 0,00 2.105,00 16.917,33 2.150,92 2.492,65 0,00 0,00 4.643,57 12.273,76 31/10/2023
627 346600 CRISTIANE NOGUEIRA ANDRADE ANALISTA DO MP BELO HORIZONTE - COMARCA; CENTRAL DE APOIO TECNICO-SETOR CONTABIL 22.191,68 6.657,50 0,00 0,00 0,00 0,00 1.653,77 2.105,00 32.607,95 4.396,82 5.839,44 0,00 0,00 10.236,26 22.371,69 31/10/2023
628 234000 CRISTIANE OLIVEIRA TOSTES OFICIAL DO MP JUIZ DE FORA - COMARCA; JUIZ DE FORA-PJ-08PJ 20.533,67 8.213,47 0,00 0,00 849,92 0,00 12.365,83 3.055,00 45.017,89 6.116,98 8.556,65 0,00 0,00 14.673,63 30.344,26 31/10/2023
629 445800 CRISTIANE ORZIL COSTA OFICIAL DO MP SANTA LUZIA - COMARCA; SANTA LUZIA-PJ-05PJ 10.015,59 2.003,12 0,00 0,00 0,00 0,00 0,00 3.055,00 15.073,71 1.703,94 1.951,60 0,00 0,00 3.655,54 11.418,17 31/10/2023
630 616100 CRISTIANE PAES RODRIGUES MARCICANO ANALISTA DO MP CATAGUASES - COMARCA; CATAGUASES-PJ-05PJ 11.577,56 1.157,76 0,00 0,00 0,00 0,00 0,00 3.055,00 15.790,32 1.818,60 2.117,14 0,00 0,00 3.935,74 11.854,58 31/10/2023
631 612300 CRISTIANE RIBEIRO DOS REIS ARCANJO OFICIAL DO MP BELO HORIZONTE - COMARCA; DIRETORIA DE PAGAMENTO DE PESSOAL-DPAG 7.506,70 750,67 0,00 0,00 0,00 0,00 0,00 0,00 8.257,37 1.717,06 809,35 0,00 0,00 2.526,41 5.730,96 31/10/2023
632 257700 CRISTIANE RODRIGUES PAES NUNES ANALISTA DO MP BELO HORIZONTE - COMARCA; BH-22PJ PES COM DEF E IDOSOS-ORIENTACAO PSIC 23.070,31 9.228,12 0,00 0,00 0,00 0,00 0,00 3.055,00 35.353,43 4.948,70 6.584,08 0,00 0,00 11.532,78 23.820,65 31/10/2023
633 510800 CRISTIANE SANTOS FERNANDES ORNELES ANALISTA DO MP BELO HORIZONTE - COMARCA; BH-03PJ EMPRESARIAL-SECRETARIA 12.343,61 2.468,72 0,00 0,00 0,00 0,00 0,00 2.105,00 16.917,33 2.150,92 2.596,93 0,00 0,00 4.747,85 12.169,48 31/10/2023
634 535701 CRISTIANE SANTOS MIRANDA ANALISTA DO MP CONTAGEM - COMARCA; CONTAGEM-PJ-03PJ 11.212,54 1.794,00 0,00 0,00 0,00 0,00 0,00 2.105,00 15.111,54 1.861,99 2.179,79 0,00 0,00 4.041,78 11.069,76 31/10/2023
635 536200 CRISTIANO DE OLIVEIRA ANALISTA DO MP CONCEIÇÃO DO MATO DENTRO - COMARCA; CONCEICAO DO MATO DENTRO-PJ-UNPJ 12.343,61 2.468,72 0,00 0,00 0,00 0,00 0,00 4.005,00 18.817,33 2.150,92 2.492,65 0,00 0,00 4.643,57 14.173,76 31/10/2023
636 477400 CRISTIANO SOARES ELEUTERIO ANALISTA DO MP BELO HORIZONTE - COMARCA; GABINETE DE PROCURADOR DE JUSTIÇA - SALA 812 15.949,86 3.189,97 0,00 0,00 0,00 0,00 0,00 2.105,00 21.244,83 2.843,32 3.596,58 0,00 0,00 6.439,90 14.804,93 31/10/2023
637 449400 CRISTIANO TEIXEIRA RODRIGUES LANA ANALISTA DO MP BELO HORIZONTE - COMARCA; BH-18PJ VIOLENCIA DOMESTICA-SECRETARIA 14.960,00 3.889,60 0,00 0,00 0,00 0,00 0,00 2.105,00 20.954,60 2.796,88 3.529,54 0,00 0,00 6.326,42 14.628,18 31/10/2023
638 239400 CRISTINA DE FATIMA CRUZ E SILVA OFICIAL DO MP MONTE SANTO DE MINAS - COMARCA; MONTE SANTO DE MINAS-PJ-SECRETARIA 18.130,77 7.252,31 0,00 693,60 747,69 7.610,45 7.849,88 2.105,00 44.389,70 5.098,22 8.629,77 0,00 0,00 13.727,99 30.661,71 31/10/2023
639 544000 CRISTINA DE OLIVEIRA TERRA ANALISTA DO MP BELO HORIZONTE - COMARCA; BH-18PJ VIOLENCIA DOMESTICA-SECRETARIA 12.343,61 2.468,72 0,00 0,00 0,00 0,00 0,00 2.105,00 16.917,33 2.150,92 2.596,93 0,00 0,00 4.747,85 12.169,48 31/10/2023
640 356800 CRISTINA DE PINHO BARROSO OFICIAL DO MP SABINÓPOLIS - COMARCA; SABINOPOLIS-PJ-UNPJ 11.424,48 4.631,02 0,00 0,00 0,00 0,00 0,00 3.055,00 19.110,50 2.374,32 2.773,09 0,00 0,00 5.147,41 13.963,09 31/10/2023
641 649500 CRISTINA DO DIVINO ESPIRITO SANTOS OFICIAL DO MP DIVINÓPOLIS - COMARCA; DIVINOPOLIS-PJ-12PJ 7.270,07 727,01 0,00 0,00 0,00 0,00 0,00 2.105,00 10.102,08 1.060,48 1.022,61 0,00 0,00 2.083,09 8.018,99 31/10/2023
642 727100 CRISTINA DORNELLES CLARET ASSESSOR ADMINISTRATIVO III BELO HORIZONTE - COMARCA; CAO-MEIO AMBIENTE 0,00 0,00 10.858,90 0,00 0,00 0,00 0,00 2.105,00 12.963,90 876,95 2.272,58 0,00 0,00 3.149,53 9.814,37 31/10/2023
643 348201 CRISTINA MARIA DA SILVA ANALISTA DO MP BELO HORIZONTE - COMARCA; CENT ESTAD COOPERACAO TECNICO-JURIDICA 12.343,61 2.468,72 0,00 0,00 0,00 0,00 0,00 3.530,00 18.342,33 2.150,92 2.596,93 0,00 0,00 4.747,85 13.594,48 31/10/2023
644 434900 CRISTINA MELO DE MADUREIRA ANALISTA DO MP BELO HORIZONTE - COMARCA; BH-07PJ 01 TRIBUNAL JURI-SECRETARIA 18.720,84 3.744,17 0,00 0,00 0,00 0,00 0,00 2.105,00 24.570,01 3.375,35 4.364,70 0,00 0,00 7.740,05 16.829,96 31/10/2023
645 307700 CRISTINA TEIXEIRA MARQUES OFICIAL DO MP BELO HORIZONTE - COMARCA; CENTRAL DE APOIO TECNICO-SETOR CONTABIL 12.343,61 3.703,08 0,00 0,00 0,00 0,00 0,00 2.105,00 18.151,69 2.348,42 2.882,06 0,00 0,00 5.230,48 12.921,21 31/10/2023
646 743100 CRISTOVAO JOSE DOS SANTOS JUNIOR ANALISTA DO MP BELO HORIZONTE - COMARCA; CGMP-DIR ESTAGIO PROBATORIO E ORIENT 7.040,78 0,00 0,00 0,00 0,00 0,00 0,00 2.105,00 9.145,78 909,81 801,06 0,00 0,00 1.710,87 7.434,91 31/10/2023
647 265300 CRISTOVAO SANCHES DE MEDEIROS ANALISTA DO MP BELO HORIZONTE - COMARCA; DIRETORIA DE CONTABILIDADE 23.070,31 9.228,12 0,00 0,00 0,00 0,00 2.573,33 2.105,00 36.976,76 5.084,69 6.832,55 0,00 0,00 11.917,24 25.059,52 31/10/2023
648 349800 CROZEIR LUIZ DA SILVA OFICIAL DO MP UNAÍ - COMARCA; UNAI-PJ-SECRETARIA 12.343,61 3.703,08 0,00 0,00 0,00 0,00 0,00 4.005,00 20.051,69 2.348,42 2.829,93 0,00 0,00 5.178,35 14.873,34 31/10/2023
649 490500 CYNTHIA CRISTINA DE SOUZA OLIVEIRA VALENTE ANALISTA DO MP BELO HORIZONTE - COMARCA; BH-09PJ AUDITORIA MILITAR-SECRETARIA 12.343,61 2.468,72 0,00 0,00 0,00 0,00 0,00 2.105,00 16.917,33 2.150,92 2.596,93 0,00 0,00 4.747,85 12.169,48 31/10/2023
650 389800 CYNTHIA GARIGLIO DOS SANTOS OFICIAL DO MP PERDIZES - COMARCA; PERDIZES-PJ-SECRETARIA 11.212,54 3.363,76 0,00 0,00 0,00 0,00 0,00 2.105,00 16.681,30 2.113,16 2.385,99 0,00 0,00 4.499,15 12.182,15 31/10/2023
651 335101 CYNTHIA GONTIJO D ASSUNCAO ANALISTA DO MP BELO HORIZONTE - COMARCA; FEPDC-SECRETARIA EXECUTIVA 12.343,61 3.703,08 4.020,58 0,00 0,00 0,00 0,00 3.055,00 23.122,27 2.348,42 3.987,72 0,00 0,00 6.336,14 16.786,13 31/10/2023
652 269700 CYNTIA ROCHA CAVALCANTI OFICIAL DO MP UBERLÂNDIA - COMARCA; UBERLANDIA-PJ-06PJ 18.130,77 7.252,31 0,00 0,00 747,69 0,00 9.016,24 5.129,26 40.276,27 5.027,53 6.955,64 0,00 0,00 11.983,17 28.293,10 31/10/2023
653 278000 DAIRTON LOPES MARTINS FILHO COORDENADOR II BELO HORIZONTE - COMARCA; DIRETORIA DE SISTEMAS DE INFORMACAO 20.533,67 8.213,47 0,00 0,00 0,00 0,00 2.053,37 2.105,00 32.905,51 2.874,46 6.794,70 0,00 0,00 9.669,16 23.236,35 31/10/2023
654 392700 DALIANA CHAVES IBRAIM MARINHO OFICIAL DO MP ITAÚNA - COMARCA; ITAUNA-PJ-04PJ 10.341,72 2.068,34 0,00 0,00 0,00 0,00 0,00 2.105,00 14.515,06 1.766,56 2.042,00 0,00 0,00 3.808,56 10.706,50 31/10/2023
655 558101 DALLEY TASSIA SILVA ANALISTA DO MP MORADA NOVA DE MINAS - COMARCA; MORADA NOVA DE MINAS-PJ-UNPJ 12.343,61 1.234,36 0,00 0,00 4.525,99 0,00 0,00 3.055,00 21.158,96 1.953,42 3.452,16 0,00 0,00 5.405,58 15.753,38 31/10/2023
656 476700 DALTON DAUD ANALISTA DO MP ARAGUARI - COMARCA; ARAGUARI-PJ-05PJ 12.343,61 2.468,72 0,00 0,00 0,00 0,00 0,00 2.105,00 16.917,33 2.150,92 2.492,65 0,00 0,00 4.643,57 12.273,76 31/10/2023
657 750500 DANIEL ALMEIDA RIBEIRO OFICIAL DO MP ESPERA FELIZ - COMARCA; ESPERA FELIZ-PJ-UNPJ 4.570,25 0,00 0,00 0,00 0,00 0,00 1.371,08 5.087,27 11.028,60 739,39 545,57 0,00 0,00 1.284,96 9.743,64 31/10/2023
658 426900 DANIEL ALVES DA SILVA OFICIAL DO MP BELO HORIZONTE - COMARCA; DIVISÃO DE FISCALIZAÇÃO DAS RELAÇÕES DE CONSU 7.506,70 1.501,34 0,00 0,00 0,00 0,00 1.771,66 2.105,00 12.884,70 1.222,23 1.639,07 0,00 0,00 2.861,30 10.023,40 31/10/2023
659 536302 DANIEL BATISTA MARIANO OFICIAL DO MP LAGOA SANTA - COMARCA; LAGOA SANTA-PJ-SECRETARIA 4.570,25 0,00 0,00 0,00 0,00 0,00 0,00 2.105,00 6.675,25 526,88 257,78 0,00 0,00 784,66 5.890,59 31/10/2023
660 714000 DANIEL FERREIRA CAMARA ASSESSOR PROMOTOR JUSTICA RIBEIRÃO DAS NEVES - COMARCA; RIBEIRAO DAS NEVES-PJ-12PJ 0,00 0,00 8.810,89 0,00 2.936,96 0,00 0,00 2.105,00 13.852,85 876,95 2.517,04 0,00 0,00 3.393,99 10.458,86 31/10/2023
661 411000 DANIEL FERREIRA DA SILVA ANALISTA DO MP GOVERNADOR VALADARES - COMARCA; GOVERNADOR VALADARES-PJ-15PJ 18.130,77 7.252,31 0,00 0,00 823,12 0,00 2.787,06 5.692,87 34.686,13 4.270,38 5.674,71 0,00 0,00 9.945,09 24.741,04 31/10/2023
662 703500 DANIEL FILIPE DE DEUS SOARES ASSESSOR PROMOTOR JUSTICA ITABIRITO - COMARCA; ITABIRITO-PJ-02PJ 0,00 0,00 8.810,89 0,00 0,00 0,00 0,00 2.105,00 10.915,89 876,95 1.709,37 0,00 0,00 2.586,32 8.329,57 31/10/2023
663 309000 DANIEL GOMES DOS SANTOS ANALISTA DO MP POÇOS DE CALDAS - COMARCA; POCOS DE CALDAS-PJ-05PJ 23.070,31 6.921,09 0,00 0,00 0,00 0,00 5.228,03 3.005,79 38.225,22 5.098,68 6.852,75 0,00 0,00 11.951,43 26.273,79 31/10/2023
664 554500 DANIEL GOMES PEREIRA OFICIAL DO MP NANUQUE - COMARCA; NANUQUE-PJ-02PJ 7.506,70 1.501,34 0,00 0,00 0,00 0,00 0,00 2.105,00 11.113,04 1.222,23 1.256,14 0,00 0,00 2.478,37 8.634,67 31/10/2023
665 453000 DANIEL GONCALVES PEREIRA ANALISTA DO MP UNAÍ - COMARCA; UNAI-PJ-02PJ 12.343,61 3.209,34 0,00 0,00 0,00 0,00 0,00 4.480,00 20.032,95 2.269,42 2.768,01 0,00 0,00 5.037,43 14.995,52 31/10/2023
666 495500 DANIEL GUIMARAES CABRAL OFICIAL DO MP BELO HORIZONTE - COMARCA; BH-17PJ PATRIMONIO PUBLICO-SECRETARIA 10.341,72 2.068,34 0,00 0,00 0,00 0,00 0,00 3.055,00 15.465,06 1.766,56 2.042,00 0,00 0,00 3.808,56 11.656,50 31/10/2023
667 442900 DANIEL GUIMARAES GONCALVES ANALISTA DO MP UBERLÂNDIA - COMARCA; UBERLANDIA-PJ-03PJ 18.130,77 4.714,00 0,00 0,00 759,80 0,00 8.999,43 4.019,69 36.623,69 982,16 6.924,23 0,00 0,00 7.906,39 28.717,30 31/10/2023
668 655900 DANIEL LUIZ DA SILVA ASSESSOR ADMINISTRATIVO II BELO HORIZONTE - COMARCA; DIV FISCAL ADM CONT TERCEIRIZACAO 0,00 0,00 7.506,70 0,00 0,00 0,00 0,00 2.105,00 9.611,70 876,95 1.350,72 0,00 0,00 2.227,67 7.384,03 31/10/2023
669 464600 DANIEL PIACENTINI STIVANIN ANALISTA DO MP ANDRADAS - COMARCA; ANDRADAS-PJ-02PJ 12.343,61 2.468,72 0,00 0,00 0,00 0,00 0,00 2.105,00 16.917,33 2.150,92 2.596,93 0,00 0,00 4.747,85 12.169,48 31/10/2023
670 417000 DANIEL QUEIROZ FERREIRA ANALISTA DO MP PASSOS - COMARCA; PASSOS-PJ-06PJ 18.130,77 3.626,15 0,00 0,00 682,96 0,00 3.736,30 4.331,46 30.507,64 982,16 5.301,84 0,00 0,00 6.284,00 24.223,64 31/10/2023
671 396700 DANIEL SILVA CARNEVALLI SUPERINTENDENTE BELO HORIZONTE - COMARCA; SUPERINTENDENCIA DE TECNOLOGIA DA INFORMACAO 28.013,39 8.404,02 0,00 0,00 0,00 0,00 2.253,82 3.055,00 41.726,23 4.051,95 8.015,54 0,00 0,00 12.067,49 29.658,74 31/10/2023
672 489300 DANIEL TABOZA ROCHA ANALISTA DO MP IPATINGA - COMARCA; IPATINGA-PJ-08PJ 12.343,61 2.468,72 0,00 0,00 0,00 0,00 0,00 3.055,00 17.867,33 982,16 2.617,01 0,00 0,00 3.599,17 14.268,16 31/10/2023
673 414100 DANIEL TARDELI VALADAO ANALISTA DO MP TRÊS CORACOES - COMARCA; TRES CORACOES-PJ-02PJ 18.130,77 3.626,15 0,00 0,00 759,80 0,00 8.117,07 4.005,00 34.638,79 982,16 6.274,07 0,00 0,00 7.256,23 27.382,56 31/10/2023
674 731800 DANIEL VASCONCELOS ARAUJO SILVA ASSESSOR ADMINISTRATIVO IV BELO HORIZONTE - COMARCA; DIRETORIA DE REDES E BANCOS DE DADOS 0,00 0,00 14.488,22 0,00 0,00 0,00 0,00 2.105,00 16.593,22 876,95 3.270,64 0,00 0,00 4.147,59 12.445,63 31/10/2023
675 446601 DANIEL VIEIRA BUENO ANALISTA DO MP SÃO DOMINGOS DO PRATA - COMARCA; SAO DOMINGOS DO PRATA-PJ-UNPJ 12.343,61 2.468,72 0,00 0,00 0,00 0,00 0,00 3.055,00 17.867,33 2.150,92 2.544,79 0,00 0,00 4.695,71 13.171,62 31/10/2023
676 253200 DANIELA BATISTA LIMA BARBOSA ASSESSOR ADMINISTRATIVO II BELO HORIZONTE - COMARCA; CENTRAL DE APOIO TECN-SETOR DE MEIO AMBIENTE 0,00 3.002,68 7.506,70 0,00 0,00 0,00 0,00 2.105,00 12.614,38 876,95 2.176,46 0,00 0,00 3.053,41 9.560,97 31/10/2023
677 505800 DANIELA BORGES DE MATTOS RESENDE ANALISTA DO MP JUIZ DE FORA - COMARCA; JUIZ DE FORA-PJ-20PJ 12.343,61 2.468,72 0,00 0,00 0,00 0,00 0,00 2.105,00 16.917,33 2.150,92 2.596,93 0,00 0,00 4.747,85 12.169,48 31/10/2023
678 478000 DANIELA CARVALHO SOARES ANALISTA DO MP SÃO JOÃO DEL REI - COMARCA; SAO JOAO DEL REI-PJ-01PJ 12.343,61 2.468,72 0,00 0,00 0,00 0,00 0,00 2.105,00 16.917,33 2.150,92 2.596,93 0,00 0,00 4.747,85 12.169,48 31/10/2023
679 275900 DANIELA CHAGAS SODRE ANALISTA DO MP BELO HORIZONTE - COMARCA; CENTRAL DE APOIO TECNICO-SETOR CONTABIL 23.070,31 9.228,12 0,00 0,00 0,00 0,00 5.077,29 2.105,00 39.480,72 5.428,88 7.336,14 0,00 0,00 12.765,02 26.715,70 31/10/2023
680 234301 DANIELA CRUZ SOARES ANALISTA DO MP BELO HORIZONTE - COMARCA; LABORATORIO TECNOLOGIA INTELIGENCIA 23.070,31 9.228,12 0,00 0,00 0,00 0,00 0,00 2.105,00 34.403,43 4.948,70 6.636,22 0,00 0,00 11.584,92 22.818,51 31/10/2023
681 638000 DANIELA DE ALMEIDA BATISTA ANALISTA DO MP ANDRELÂNDIA - COMARCA; ANDRELANDIA-PJ-UNPJ 11.577,56 1.157,76 0,00 0,00 0,00 0,00 0,00 3.055,00 15.790,32 982,16 2.347,16 0,00 0,00 3.329,32 12.461,00 31/10/2023
682 301000 DANIELA DE ALMEIDA E OLIVEIRA ANALISTA DO MP BELO HORIZONTE - COMARCA; DIRETORIA DE SISTEMAS DE INFORMACAO 23.070,31 6.921,09 0,00 0,00 0,00 4.634,89 1.819,82 2.105,00 38.551,11 4.579,57 7.362,68 0,00 0,00 11.942,25 26.608,86 31/10/2023
683 296000 DANIELA DE AZEVEDO SILVA ANALISTA DO MP BRASÓPOLIS - COMARCA; BRASOPOLIS-PJ-UNPJ 23.070,31 9.228,12 0,00 0,00 0,00 0,00 0,00 2.105,00 34.403,43 4.948,70 6.636,22 0,00 0,00 11.584,92 22.818,51 31/10/2023
684 453500 DANIELA DE CASTRO SOUSA BARBOSA ANALISTA DO MP BELO HORIZONTE - COMARCA; BH-08PJ JUIZADO ESPECIAL-SECRETARIA 14.960,00 3.889,60 0,00 0,00 0,00 0,00 0,00 2.105,00 20.954,60 2.796,88 3.529,54 0,00 0,00 6.326,42 14.628,18 31/10/2023
685 506000 DANIELA DE OLIVEIRA CAVALIERI ANALISTA DO MP BELO HORIZONTE - COMARCA; BH-14PJ DEFESA CONSUMIDOR-GAB 005PJ 12.343,61 2.468,72 0,00 0,00 0,00 0,00 0,00 2.105,00 16.917,33 2.150,92 2.596,93 0,00 0,00 4.747,85 12.169,48 31/10/2023
686 546200 DANIELA DE VILHENA LEMES GONCALVES OFICIAL DO MP TRÊS CORACOES - COMARCA; TRES CORACOES-PJ-05PJ 7.506,70 750,67 0,00 0,00 0,00 0,00 0,00 2.105,00 10.362,37 1.102,13 978,46 0,00 0,00 2.080,59 8.281,78 31/10/2023
687 356400 DANIELA LEAL FERRAZ ANALISTA DO MP MONTES CLAROS - COMARCA; COORD REG PJ DEF EDUC DIR CRIANCA ADOL NORTE 21.346,53 6.403,96 0,00 0,00 877,58 0,00 13.147,90 5.134,12 46.910,09 6.028,35 8.436,31 0,00 0,00 14.464,66 32.445,43 31/10/2023
688 501000 DANIELA LOURENCO SANTOS DA SILVA GUIMARAES ANALISTA DO MP BELO HORIZONTE - COMARCA; BH-12PJ JUIZO CRIMINAL-GAB 095PJ 12.343,61 2.468,72 0,00 0,00 0,00 0,00 0,00 2.105,00 16.917,33 2.150,92 2.544,79 0,00 0,00 4.695,71 12.221,62 31/10/2023
689 195801 DANIELA MARIA DE OLIVEIRA QUEIROZ ANALISTA DO MP ARAGUARI - COMARCA; ARAGUARI-PJ-06PJ 18.720,84 7.488,34 0,00 0,00 0,00 0,00 0,00 2.105,00 28.314,18 3.974,42 5.229,60 0,00 0,00 9.204,02 19.110,16 31/10/2023
690 511400 DANIELA MARIA LARA DE OLIVEIRA ANALISTA DO MP BOA ESPERANÇA - COMARCA; BOA ESPERANCA-PJ-02PJ 12.343,61 3.703,08 0,00 0,00 0,00 0,00 0,00 3.055,00 19.101,69 2.348,42 2.829,93 0,00 0,00 5.178,35 13.923,34 31/10/2023
691 252101 DANIELA PAULA ALVES PENA ANALISTA DO MP CONTAGEM - COMARCA; CONTAGEM-PJ-APO TECNICO 20.533,67 8.213,47 0,00 0,00 0,00 0,00 0,00 2.105,00 30.852,14 4.380,49 5.815,87 0,00 0,00 10.196,36 20.655,78 31/10/2023
692 604700 DANIELA PEIXOTO NOGUEIRA COORDENADOR II BELO HORIZONTE - COMARCA; DIRET DE FORMACAO, APERFEIC. E POS-GRADUACAO 20.533,67 2.053,37 0,00 0,00 0,00 0,00 0,00 3.055,00 25.642,04 1.102,13 5.023,39 0,00 0,00 6.125,52 19.516,52 31/10/2023
693 755700 DANIELA PIMENTEL PEREIRA ASSESSOR ADMINISTRATIVO I BELO HORIZONTE - COMARCA; DIRET DE ESTAGIOS E CONVENIOS ACADEMICOS 0,00 0,00 4.710,29 0,00 0,00 0,00 0,00 2.105,00 6.815,29 695,34 631,65 0,00 0,00 1.326,99 5.488,30 31/10/2023
694 662000 DANIELA RIBAS DE AVILA ASSESSOR ADMINISTRATIVO III BELO HORIZONTE - COMARCA; JUNTA RECURSAL DO PROCON ESTADUAL 0,00 0,00 10.858,90 0,00 0,00 0,00 0,00 2.105,00 12.963,90 876,95 2.272,58 0,00 0,00 3.149,53 9.814,37 31/10/2023
695 462000 DANIELA SOUSA GOMES DO AMARAL ANALISTA DO MP BETIM - COMARCA; BETIM-PJ-04PJ 15.447,01 3.089,40 0,00 0,00 0,00 0,00 0,00 2.105,00 20.641,41 2.746,77 3.457,19 0,00 0,00 6.203,96 14.437,45 31/10/2023
696 427000 DANIELA TEIXEIRA DINIZ ANDRADE ANALISTA DO MP BELO HORIZONTE - COMARCA; DIRETORIA DE PROJETOS DE EDIFICACOES 13.588,97 2.717,79 4.020,58 0,00 0,00 0,00 2.678,27 7.796,66 30.802,27 2.390,03 4.588,71 0,00 0,00 6.978,74 23.823,53 31/10/2023
697 337200 DANIELA TOLEDO SENIUK ANALISTA DO MP BELO HORIZONTE - COMARCA; GABINETE DE PROCURADOR DE JUSTIÇA - SALA 412 23.070,31 6.921,09 0,00 0,00 1.081,47 0,00 5.753,98 2.105,00 38.931,85 5.500,21 7.729,87 0,00 0,00 13.230,08 25.701,77 31/10/2023
698 605600 DANIELE ALZIRA SILVA CABRAL MOREIRA OFICIAL DO MP BELO HORIZONTE - COMARCA; BH-10PJ EXECUÇÃO PENAL-SECRETARIA 7.506,70 750,67 0,00 0,00 0,00 0,00 0,00 2.105,00 10.362,37 1.102,13 1.082,73 0,00 0,00 2.184,86 8.177,51 31/10/2023
699 195500 DANIELE CHAVES FONSECA OFICIAL DO MP BELO HORIZONTE - COMARCA; CGMP-DIR INSP CORR PROCED PROC DISC 23.070,31 9.228,12 0,00 0,00 0,00 0,00 6.091,14 3.348,92 41.738,49 5.608,75 7.589,16 0,00 0,00 13.197,91 28.540,58 31/10/2023
700 323400 DANIELE MEGALE SANTINI OFICIAL DO MP BELO HORIZONTE - COMARCA; CGMP-DIR INSP CORR PROCED PROC DISC 14.960,00 4.488,00 0,00 0,00 0,00 0,00 0,00 2.105,00 21.553,00 2.892,63 3.615,63 0,00 0,00 6.508,26 15.044,74 31/10/2023
701 357900 DANIELE REJANE PINTO VERSIEUX OFICIAL DO MP BELO HORIZONTE - COMARCA; BH-12PJ JUIZO CRIMINAL-SECRETARIA 12.343,61 3.703,08 0,00 0,00 0,00 0,00 0,00 2.105,00 18.151,69 2.348,42 2.882,06 0,00 0,00 5.230,48 12.921,21 31/10/2023
702 389500 DANIELE VASCONCELOS AMORIM OFICIAL DO MP SÃO SEBASTIÃO DO PARAÍSO - COMARCA; SAO SEBASTIAO DO PARAISO-PJ-04PJ 12.343,61 3.703,08 0,00 0,00 5.348,90 0,00 0,00 2.105,00 23.500,59 2.348,42 4.353,01 0,00 0,00 6.701,43 16.799,16 31/10/2023
703 629700 DANIELLA BASTOS MARTINS BICALHO OFICIAL DO MP GOVERNADOR VALADARES - COMARCA; GOVERNADOR VALADARES-PJ-16PJ 7.506,70 750,67 0,00 0,00 0,00 0,00 0,00 2.105,00 10.362,37 1.102,13 1.082,73 0,00 0,00 2.184,86 8.177,51 31/10/2023
704 725500 DANIELLE CAMILE OLIVEIRA FONSECA ASSESSOR PROCURADOR JUSTICA BELO HORIZONTE - COMARCA; GABINETE DE PROCURADOR DE JUSTIÇA - SALA 501 0,00 0,00 8.810,89 0,00 0,00 0,00 0,00 2.105,00 10.915,89 876,95 1.709,37 0,00 0,00 2.586,32 8.329,57 31/10/2023
705 265000 DANIELLE CASTANHEIRA SCALABRINI OFICIAL DO MP BELO HORIZONTE - COMARCA; JUNTA RECURSAL DO PROCON ESTADUAL 12.343,61 4.937,44 0,00 0,00 0,00 0,00 0,00 2.105,00 19.386,05 2.545,92 3.115,06 0,00 0,00 5.660,98 13.725,07 31/10/2023
706 490100 DANIELLE DE AVILA SILVA LOPES ANALISTA DO MP BELO HORIZONTE - COMARCA; PROC. JUSTICA DIR. DIFUSOS E COLETIVOS-SEC 12.343,61 4.937,44 0,00 0,00 0,00 0,00 0,00 3.055,00 20.336,05 2.545,92 3.167,20 0,00 0,00 5.713,12 14.622,93 31/10/2023
707 549600 DANIELLE GOMES LOPES RODRIGUES OFICIAL DO MP BELO HORIZONTE - COMARCA; COORD DE GABINETE DO PGJ 7.506,70 1.501,34 0,00 0,00 0,00 0,00 0,00 2.105,00 11.113,04 1.222,23 1.256,14 0,00 0,00 2.478,37 8.634,67 31/10/2023
708 613000 DANIELLE SILVA OLIVEIRA FRANKLIN COORDENADOR II BELO HORIZONTE - COMARCA; DIRETORIA DE ADMINISTRACAO FINANCEIRA 20.533,67 2.053,37 0,00 0,00 0,00 0,00 0,00 3.055,00 25.642,04 1.235,43 4.986,73 0,00 0,00 6.222,16 19.419,88 31/10/2023
709 722800 DANIELLE VALENTIM SOUZA ASSESSOR PROCURADOR JUSTICA BELO HORIZONTE - COMARCA; GABINETE DE PROCURADOR DE JUSTIÇA - SALA 606 0,00 0,00 8.810,89 0,00 0,00 0,00 0,00 2.105,00 10.915,89 876,95 1.709,37 0,00 0,00 2.586,32 8.329,57 31/10/2023
710 736400 DANIELLY VITORIA MARIA RUELA ASSESSOR PROMOTOR JUSTICA PARACATU - COMARCA; COORD REG PP NOROESTE MINAS GERAIS PARACATU 0,00 0,00 8.810,89 0,00 0,00 0,00 0,00 2.105,00 10.915,89 876,95 1.709,37 0,00 0,00 2.586,32 8.329,57 31/10/2023
711 380800 DANILLO RIBEIRO ANTUNES ANALISTA DO MP MONTES CLAROS - COMARCA; MONTES CLAROS-PJ-SECRETARIA 20.533,67 6.160,10 0,00 0,00 0,00 0,00 2.293,53 7.798,09 36.785,39 4.051,95 5.776,61 0,00 0,00 9.828,56 26.956,83 31/10/2023
712 453700 DANILO BOTELHO DE CARVALHO SUPERINTENDENTE BELO HORIZONTE - COMARCA; SUPERINTENDENCIA DE FINANCAS 28.013,39 5.602,68 0,00 0,00 0,00 0,00 0,00 2.105,00 35.721,07 3.262,06 7.462,39 0,00 0,00 10.724,45 24.996,62 31/10/2023
713 391200 DANILO D'AVILA MENDES ANALISTA DO MP MONTES CLAROS - COMARCA; GAECO REGIONAL DE MONTES CLAROS 20.533,67 6.160,10 0,00 0,00 0,00 0,00 0,00 3.055,00 29.748,77 4.051,95 5.341,54 0,00 0,00 9.393,49 20.355,28 31/10/2023
714 710900 DANILO DE SOUZA RODRIGUES ASSESSOR PROMOTOR JUSTICA IPANEMA - COMARCA; IPANEMA-PJ-01PJ 0,00 0,00 8.810,89 0,00 0,00 0,00 0,00 2.105,00 10.915,89 876,95 1.709,37 0,00 0,00 2.586,32 8.329,57 31/10/2023
715 494900 DANILO GAVIAO AVELINO DE MELLO ANALISTA DO MP POUSO ALEGRE - COMARCA; GAECO REGIONAL DE POUSO ALEGRE 12.343,61 2.468,72 0,00 0,00 0,00 0,00 0,00 2.105,00 16.917,33 2.150,92 2.596,93 0,00 0,00 4.747,85 12.169,48 31/10/2023
716 604300 DANILO NASCIMENTO SALGADO ANALISTA DO MP JANAÚBA - COMARCA; JANAUBA-PJ-01PJ 12.343,61 1.234,36 0,00 0,00 0,00 0,00 0,00 2.105,00 15.682,97 1.953,42 2.311,79 0,00 0,00 4.265,21 11.417,76 31/10/2023
717 298300 DANUZA MONICA DE SOUZA DINIZ ANALISTA DO MP BELO HORIZONTE - COMARCA; CAO-FUNDACOES-ASSESSORIA JURIDICA 23.070,31 6.921,09 0,00 0,00 0,00 0,00 2.532,61 2.729,17 35.253,18 4.681,68 6.198,57 0,00 0,00 10.880,25 24.372,93 31/10/2023
718 398700 DARCY LUIZ MILEO GREGATTI OFICIAL DO MP LAMBARI - COMARCA; LAMBARI-PJ-SECRETARIA 12.343,61 3.703,08 0,00 0,00 0,00 0,00 0,00 2.105,00 18.151,69 2.348,42 2.882,06 0,00 0,00 5.230,48 12.921,21 31/10/2023
719 406200 DARIANA AUGUSTA DE TOLEDO PATROCINIO RUIZ COORDENADOR II BELO HORIZONTE - COMARCA; DIRETORIA GESTAO COMPRAS LICITACOES 20.533,67 6.160,10 0,00 0,00 0,00 0,00 0,00 3.055,00 29.748,77 2.348,42 5.810,01 0,00 0,00 8.158,43 21.590,34 31/10/2023
720 586901 DARIO VITORINO DE CARVALHO SILVA ASSESSOR ADM. ESPECIAL BELO HORIZONTE - COMARCA; NUCLEO DE OPERACOES DE SEGURANCA DE PESSOAL 0,00 0,00 28.013,39 0,00 0,00 0,00 670,00 2.105,00 30.788,39 876,95 6.937,92 0,00 0,00 7.814,87 22.973,52 31/10/2023
721 305000 DARLI LEITE DE OLIVEIRA OFICIAL DO MP ARAÇUAÍ - COMARCA; ARACUAI-PJ-01PJ 7.506,70 2.252,01 0,00 0,00 0,00 0,00 0,00 2.105,00 11.863,71 1.342,34 1.273,13 0,00 0,00 2.615,47 9.248,24 31/10/2023
722 729400 DAVI PIMENTA ASSESSOR PROMOTOR JUSTICA CANDEIAS - COMARCA; CANDEIAS-PJ-UNPJ 0,00 0,00 8.810,89 0,00 0,00 0,00 0,00 2.105,00 10.915,89 876,95 1.709,37 0,00 0,00 2.586,32 8.329,57 31/10/2023
723 122200 DAVID RIBEIRO DOS SANTOS ANALISTA DO MP BORDA DA MATA - COMARCA; BORDA DA MATA-PJ-UNPJ 23.070,31 23.070,31 0,00 0,00 0,00 5.795,34 0,00 2.105,00 54.040,96 5.795,34 9.452,28 8.550,66 0,00 23.798,28 30.242,68 31/10/2023
724 389400 DAWSON CANEDO MARQUES OFICIAL DO MP POUSO ALEGRE - COMARCA; POUSO ALEGRE-PJ-08PJ 12.343,61 3.703,08 0,00 0,00 0,00 0,00 0,00 3.055,00 19.101,69 2.348,42 1.139,66 0,00 0,00 3.488,08 15.613,61 31/10/2023
725 537200 DAYANE TEIXEIRA DE OLIVEIRA CASELLI ANALISTA DO MP BELO HORIZONTE - COMARCA; ASSESS TECNICO-JUR JUNTO AS PROC. DE JUST 11.212,54 1.121,25 0,00 0,00 0,00 0,00 0,00 2.105,00 14.438,79 1.754,35 2.024,39 0,00 0,00 3.778,74 10.660,05 31/10/2023
726 256100 DAYSE ROSALY PEREIRA BATISTA OFICIAL DO MP BELO HORIZONTE - COMARCA; BH-08PJ JUIZADO ESPECIAL-SECRETARIA 12.343,61 4.937,44 0,00 0,00 0,00 0,00 0,00 2.105,00 19.386,05 2.545,92 3.167,20 0,00 0,00 5.713,12 13.672,93 31/10/2023
727 311901 DEBORA APARECIDA DA SILVA ASSESSOR ADMINISTRATIVO I BELO HORIZONTE - COMARCA; BH-23PJ CIVEL-SETOR JURIDICO 0,00 0,00 4.872,71 0,00 0,00 0,00 0,00 2.105,00 6.977,71 876,95 626,37 0,00 0,00 1.503,32 5.474,39 31/10/2023
728 194301 DEBORA APARECIDA DOS SANTOS ANALISTA DO MP UBERLÂNDIA - COMARCA; UBERLANDIA-PJ-SEC FAMILIA 23.070,31 9.228,12 0,00 0,00 0,00 0,00 0,00 2.105,00 34.403,43 4.948,70 6.636,22 0,00 0,00 11.584,92 22.818,51 31/10/2023
729 518800 DEBORA CARVALHO FIORATTO COORDENADOR II BELO HORIZONTE - COMARCA; DIRETORIA MATERIAIS E SERVICOS 20.533,67 4.106,73 0,00 0,00 0,00 0,00 0,00 2.105,00 26.745,40 1.800,11 5.396,12 0,00 0,00 7.196,23 19.549,17 31/10/2023
730 444900 DEBORA CLAUDIA PEREIRA ALVES ANALISTA DO MP BELO HORIZONTE - COMARCA; BH-08PJ JUIZADO ESPECIAL-SECRETARIA 14.960,00 2.992,00 0,00 0,00 0,00 0,00 0,00 2.105,00 20.057,00 2.653,27 3.322,19 0,00 0,00 5.975,46 14.081,54 31/10/2023
731 617700 DEBORA COMANDUCI SCHREIDER ANALISTA DO MP BICAS - COMARCA; BICAS-PJ-UNPJ 12.343,61 1.234,36 0,00 0,00 0,00 0,00 0,00 2.105,00 15.682,97 1.953,42 2.259,65 0,00 0,00 4.213,07 11.469,90 31/10/2023
732 555700 DEBORA CRISTINA BUITRAGO PEREIRA ANALISTA DO MP BELO HORIZONTE - COMARCA; DIRETORIA GESTAO CONTRATOS CONVENIOS 12.343,61 2.468,72 4.020,58 0,00 6.277,64 0,00 552,43 9.081,53 34.744,51 2.150,92 5.428,94 0,00 0,00 7.579,86 27.164,65 31/10/2023
733 513100 DEBORA CRISTINA PEREIRA DE OLIVEIRA ANALISTA DO MP BELO HORIZONTE - COMARCA; BH-23PJ CIVEL-SETOR JURIDICO 14.960,00 2.992,00 0,00 0,00 0,00 0,00 0,00 3.530,00 21.482,00 2.653,27 3.322,19 0,00 0,00 5.975,46 15.506,54 31/10/2023
734 612100 DEBORA DUARTE SILVA DE SOUZA OFICIAL DO MP BELO HORIZONTE - COMARCA; BH-12PJ JUIZO CRIMINAL-SECRETARIA 7.506,70 3.002,68 0,00 0,00 0,00 0,00 0,00 2.105,00 12.614,38 1.462,45 1.498,67 0,00 0,00 2.961,12 9.653,26 31/10/2023
735 717500 DEBORA ENDREFFY ORSI PARENZI ASSESSOR PROMOTOR JUSTICA MATEUS LEME - COMARCA; MATEUS LEME-PJ-01PJ 0,00 0,00 8.810,89 0,00 0,00 0,00 0,00 2.105,00 10.915,89 876,95 1.709,37 0,00 0,00 2.586,32 8.329,57 31/10/2023
736 539700 DEBORA SALES CARVALHO ANALISTA DO MP PATOS DE MINAS - COMARCA; COORD REG PJ DEF EDU DIR CRI ADO AL PAR NOROE 12.343,61 2.468,72 0,00 0,00 0,00 0,00 0,00 2.105,00 16.917,33 982,16 2.767,68 0,00 0,00 3.749,84 13.167,49 31/10/2023
737 424100 DEBORA SANTOS E ALVES ANALISTA DO MP JANUÁRIA - COMARCA; JANUARIA-PJ-01PJ 18.720,84 3.744,17 0,00 0,00 0,00 0,00 0,00 4.005,00 26.470,01 3.375,35 4.364,70 0,00 0,00 7.740,05 18.729,96 31/10/2023
738 426301 DEBORA SCUCATO MACHADO SOARES OFICIAL DO MP ITABIRA - COMARCA; ITABIRA-PJ-01PJ 7.506,70 1.501,34 0,00 0,00 0,00 0,00 0,00 3.055,00 12.063,04 1.222,23 1.256,14 0,00 0,00 2.478,37 9.584,67 31/10/2023
739 678100 DEBORA SOUZA COSTA ASSESSOR PROMOTOR JUSTICA BOTELHOS - COMARCA; BOTELHOS-PJ-UNPJ 0,00 0,00 8.810,89 0,00 0,00 0,00 0,00 2.105,00 10.915,89 876,95 1.657,24 0,00 0,00 2.534,19 8.381,70 31/10/2023
740 550200 DEBORA TRINDADE LEITE ANALISTA DO MP MANHUAÇU - COMARCA; MANHUACU-PJ-05PJ 12.343,61 2.468,72 0,00 0,00 0,00 0,00 0,00 2.105,00 16.917,33 2.150,92 2.492,65 0,00 0,00 4.643,57 12.273,76 31/10/2023
741 438000 DEBORAH COSTA LAGE ANALISTA DO MP BELO HORIZONTE - COMARCA; PROC JUST ATUACAO TRIBUNAIS SUPERIORES-GAB006 18.720,84 3.744,17 0,00 0,00 0,00 0,00 0,00 2.105,00 24.570,01 3.375,35 4.364,70 0,00 0,00 7.740,05 16.829,96 31/10/2023
742 613700 DEISER MARIA FERREIRA ROSCOE OFICIAL DO MP BELO HORIZONTE - COMARCA; DIVISÃO DE EDUCAÇÃO PARA O CONSUMO 7.506,70 750,67 0,00 0,00 0,00 0,00 0,00 2.105,00 10.362,37 1.102,13 1.082,73 0,00 0,00 2.184,86 8.177,51 31/10/2023
743 753300 DEISIANE MARA DE OLIVEIRA OFICIAL DO MP CONSELHEIRO PENA - COMARCA; CONSELHEIRO PENA-PJ-01PJ 4.570,25 0,00 0,00 0,00 0,00 0,00 1.371,08 3.187,27 9.128,60 739,39 545,57 0,00 0,00 1.284,96 7.843,64 31/10/2023
744 551900 DEISY ROCHA DA SILVA ANALISTA DO MP CARMO DO PARANAÍBA - COMARCA; CARMO DO PARANAIBA-PJ-01PJ 12.343,61 2.468,72 0,00 0,00 0,00 0,00 0,00 2.105,00 16.917,33 2.150,92 2.544,79 0,00 0,00 4.695,71 12.221,62 31/10/2023
745 736800 DELANZIA APARECIDA JUNHO ASSESSOR DE CAO BELO HORIZONTE - COMARCA; CAO-FUNDACOES 0,00 0,00 7.506,70 0,00 0,00 0,00 0,00 2.105,00 9.611,70 876,95 1.350,72 0,00 0,00 2.227,67 7.384,03 31/10/2023
746 501900 DELI RAQUEL RODRIGUES ANALISTA DO MP ITUIUTABA - COMARCA; ITUIUTABA-PJ-04PJ 12.343,61 2.468,72 0,00 0,00 0,00 0,00 0,00 2.105,00 16.917,33 2.150,92 2.596,93 0,00 0,00 4.747,85 12.169,48 31/10/2023
747 378600 DELIANE LOPES VIEIRA BREIJAO ANALISTA DO MP JUIZ DE FORA - COMARCA; JUIZ DE FORA-PJ-14PJ 20.533,67 6.160,10 0,00 0,00 0,00 0,00 0,00 2.105,00 28.798,77 4.051,95 5.289,40 0,00 0,00 9.341,35 19.457,42 31/10/2023
748 730100 DELIENE FRACETE GUTIERREZ ASSESSOR ADMINISTRATIVO I TEÓFILO OTONI - COMARCA; COORD REG APOIO COM INC MOB SOC VALE MUCURI 0,00 0,00 4.872,71 0,00 0,00 0,00 0,00 2.105,00 6.977,71 876,95 626,37 0,00 0,00 1.503,32 5.474,39 31/10/2023
749 487700 DENIA FERREIRA MAIA SILVA OFICIAL DO MP TRÊS CORACOES - COMARCA; TRES CORACOES-PJ-04PJ 8.264,07 1.652,81 0,00 0,00 0,00 0,00 0,00 2.105,00 12.021,88 1.367,65 1.361,80 0,00 0,00 2.729,45 9.292,43 31/10/2023
750 726300 DENILZA RODRIGUES MORAES ASSESSOR ADMINISTRATIVO I BELO HORIZONTE - COMARCA; CENT DE ATENDIMENTO AS PROMOTORIAS DE JUSTICA 0,00 0,00 4.872,71 0,00 0,00 0,00 0,00 2.105,00 6.977,71 718,08 670,06 0,00 0,00 1.388,14 5.589,57 31/10/2023
751 424800 DENIS APARECIDO CAMPOS DELFINO ANALISTA DO MP LUZ - COMARCA; LUZ-PJ-UNPJ 18.130,77 3.626,15 0,00 0,00 0,00 0,00 6.000,89 3.599,86 31.357,67 3.991,46 5.045,66 0,00 0,00 9.037,12 22.320,55 31/10/2023
752 381400 DENISE ANGELICA MELLO DE PAULA OFICIAL DO MP BELO HORIZONTE - COMARCA; BH-18PJ DIREITOS HUMANOS-SECRETARIA 12.343,61 3.703,08 4.346,47 0,00 0,00 0,00 523,42 8.765,08 29.681,66 2.348,42 4.077,34 0,00 0,00 6.425,76 23.255,90 31/10/2023
753 702100 DENISE CANDIDO LIMA MACEDO KATOPODIS ASSESSOR PROCURADOR JUSTICA BELO HORIZONTE - COMARCA; GABINETE DE PROCURADOR DE JUSTIÇA - SALA 306 0,00 0,00 8.810,89 0,00 2.936,96 0,00 0,00 2.105,00 13.852,85 876,95 2.517,04 0,00 0,00 3.393,99 10.458,86 31/10/2023
754 196300 DENISE DE ALMEIDA VILELA FURTADO OFICIAL DO MP BELO HORIZONTE - COMARCA; CENTRAL DE APOIO TECNICO-SECRETARIA 21.346,53 8.538,61 0,00 0,00 945,09 0,00 13.962,73 3.530,00 48.322,96 6.508,92 9.148,69 0,00 0,00 15.657,61 32.665,35 31/10/2023
755 271100 DENISE ELOY PEIXOTO OFICIAL DO MP BELO HORIZONTE - COMARCA; DIRETORIA DE INTELIGENCIA 18.130,77 7.252,31 5.538,92 0,00 747,69 0,00 9.048,24 4.179,26 44.897,19 5.027,53 8.478,85 0,00 0,00 13.506,38 31.390,81 31/10/2023
756 385400 DENISE FREITAS DE ASSIS OFICIAL DO MP CARATINGA - COMARCA; CARATINGA-PJ-SECRETARIA 12.343,61 3.703,08 3.004,68 0,00 0,00 0,00 0,00 2.105,00 21.156,37 2.348,42 3.708,35 0,00 0,00 6.056,77 15.099,60 31/10/2023
757 437100 DENISE NOGUEIRA MAGRI MENDES ANALISTA DO MP BELO HORIZONTE - COMARCA; LAB TECNOLOGIA CONTRA LAVAGEM DINHEIRO 18.720,84 7.488,34 0,00 0,00 0,00 0,00 670,00 2.105,00 28.984,18 3.974,42 5.125,32 0,00 0,00 9.099,74 19.884,44 31/10/2023
758 524700 DENISE RAMOS GUIMARAES OFICIAL DO MP BELO HORIZONTE - COMARCA; BH-07PJ 01 TRIBUNAL JURI-SECRETARIA 7.506,70 1.501,34 0,00 0,00 0,00 0,00 0,00 2.105,00 11.113,04 1.222,23 1.256,14 0,00 0,00 2.478,37 8.634,67 31/10/2023
759 239100 DENISE RIBEIRO DOS SANTOS CAETANO OFICIAL DO MP ITANHANDU - COMARCA; ITANHANDU-PJ-SECRETARIA 18.130,77 7.252,31 0,00 0,00 644,42 0,00 2.243,06 2.105,00 30.375,56 4.535,83 6.356,98 0,00 0,00 10.892,81 19.482,75 31/10/2023
760 325500 DENISE ROSA TORRES OFICIAL DO MP BELO HORIZONTE - COMARCA; DIRETORIA DE PESSOAL ADMINISTRATIVO - DPAD 14.960,00 4.488,00 0,00 0,00 0,00 0,00 0,00 2.105,00 21.553,00 2.892,63 3.667,77 0,00 0,00 6.560,40 14.992,60 31/10/2023
761 437200 DENISE VIVIANE DOS SANTOS ANALISTA DO MP BELO HORIZONTE - COMARCA; CGMP-DIR ESTAGIO PROBATORIO E ORIENT 15.949,86 3.189,97 0,00 0,00 0,00 0,00 0,00 3.530,00 22.669,83 2.843,32 3.544,44 0,00 0,00 6.387,76 16.282,07 31/10/2023
762 267900 DENISIA ALMEIDA SALES OFICIAL DO MP BELO HORIZONTE - COMARCA; BH-18PJ DIREITOS HUMANOS-SECRETARIA 12.343,61 4.937,44 0,00 0,00 0,00 0,00 0,00 2.105,00 19.386,05 2.545,92 3.115,06 0,00 0,00 5.660,98 13.725,07 31/10/2023
763 755500 DENNER GUEDES NEIVA ASSESSOR PROMOTOR JUSTICA NOVO CRUZEIRO - COMARCA; NOVO CRUZEIRO-PJ-UNPJ 0,00 0,00 8.810,89 0,00 0,00 0,00 881,09 2.914,55 12.606,53 876,95 2.007,92 0,00 0,00 2.884,87 9.721,66 31/10/2023
764 355300 DEYSE CRISTINA MORAIS OFICIAL DO MP PASSOS - COMARCA; PASSOS-PJ-02PJ 12.343,61 3.703,08 0,00 0,00 0,00 0,00 0,00 2.105,00 18.151,69 2.348,42 2.882,06 0,00 0,00 5.230,48 12.921,21 31/10/2023
765 523700 DIANA CAMPOS RESENDE OFICIAL DO MP SÃO JOÃO DEL REI - COMARCA; SAO JOAO DEL REI-PJ-04PJ 10.516,49 7.361,54 0,00 0,00 0,00 0,00 146,48 2.105,00 20.129,51 2.641,43 3.252,97 0,00 0,00 5.894,40 14.235,11 31/10/2023
766 241900 DIANA CARDOSO MARTINS OFICIAL DO MP BELO HORIZONTE - COMARCA; CAO-DH CONT EXT ATIV POLIC E AP COMUNIT 12.343,61 4.937,44 0,00 0,00 0,00 0,00 0,00 2.105,00 19.386,05 2.545,92 3.167,20 0,00 0,00 5.713,12 13.672,93 31/10/2023
767 410100 DIANA GORDILHO SILVEIRA SENA ANALISTA DO MP BELO HORIZONTE - COMARCA; BH-14PJ DEFESA CONSUMIDOR-GAB 112PJ 18.720,84 3.744,17 0,00 0,00 0,00 0,00 0,00 2.105,00 24.570,01 3.375,35 4.364,70 0,00 0,00 7.740,05 16.829,96 31/10/2023
768 553000 DIANA MARIA MARQUES ANALISTA DO MP BETIM - COMARCA; BETIM-PJ-07PJ 12.343,61 2.468,72 0,00 0,00 0,00 0,00 0,00 2.105,00 16.917,33 2.150,92 2.544,79 0,00 0,00 4.695,71 12.221,62 31/10/2023
769 520000 DIARLE TOSTE DOS SANTOS ANALISTA DO MP RIO POMBA - COMARCA; RIO POMBA-PJ-UNPJ 12.343,61 2.468,72 0,00 0,00 0,00 0,00 0,00 2.105,00 16.917,33 2.150,92 1.870,93 0,00 0,00 4.021,85 12.895,48 31/10/2023
770 539800 DIEGO CAMARGOS RODRIGUES OFICIAL DO MP CONTAGEM - COMARCA; CONTAGEM-PJ-05PJ 7.506,70 1.501,34 0,00 0,00 3.002,68 0,00 561,50 8.230,47 20.802,69 1.222,23 2.081,87 0,00 0,00 3.304,10 17.498,59 31/10/2023
771 607300 DIEGO CERVEIRA DE SOUZA ANALISTA DO MP PATOS DE MINAS - COMARCA; COORD REG BACIAS PARACATU,URUCUIA E ABAETE 12.343,61 1.234,36 0,00 0,00 0,00 0,00 0,00 2.105,00 15.682,97 982,16 2.453,68 0,00 0,00 3.435,84 12.247,13 31/10/2023
772 446900 DIEGO DE FREITAS OFICIAL DO MP UBERABA - COMARCA; UBERABA-PJ-06PJ 11.577,56 2.315,51 0,00 0,00 0,00 0,00 0,00 2.105,00 15.998,07 2.003,84 2.384,58 0,00 0,00 4.388,42 11.609,65 31/10/2023
773 288800 DILENE NEPOMUCENO ALVES OFICIAL DO MP BELO HORIZONTE - COMARCA; DIRETORIA DE PESSOAL ADMINISTRATIVO - DPAD 12.343,61 3.703,08 0,00 0,00 0,00 0,00 0,00 2.105,00 18.151,69 2.348,42 2.882,06 0,00 0,00 5.230,48 12.921,21 31/10/2023
774 681200 DILLIANY PAULA LOPES SERRANO ASSESSOR PROMOTOR JUSTICA RESPLENDOR - COMARCA; RESPLENDOR-PJ-UNPJ 0,00 0,00 8.810,89 0,00 0,00 0,00 0,00 4.005,00 12.815,89 876,95 1.709,37 0,00 0,00 2.586,32 10.229,57 31/10/2023
775 270101 DILSON DO AMARAL ANALISTA DO MP RIO CASCA - COMARCA; RIO CASCA-PJ-UNPJ 12.343,61 3.703,08 0,00 0,00 0,00 0,00 0,00 2.105,00 18.151,69 2.348,42 2.882,06 0,00 0,00 5.230,48 12.921,21 31/10/2023
776 466000 DIMITRI GUDE MARCIAL ANALISTA DO MP NANUQUE - COMARCA; NANUQUE-PJ-02PJ 12.343,61 2.468,72 0,00 0,00 0,00 0,00 0,00 4.005,00 18.817,33 2.150,92 2.440,52 0,00 0,00 4.591,44 14.225,89 31/10/2023
777 516300 DINORA APARECIDA MACEDO BRANDAO ANALISTA DO MP BELO HORIZONTE - COMARCA; BH-19PJ SAUDE-SECRETARIA 150PJ 12.343,61 2.468,72 0,00 0,00 0,00 0,00 0,00 2.105,00 16.917,33 2.150,92 2.596,93 0,00 0,00 4.747,85 12.169,48 31/10/2023
778 511700 DIOGENES HENRIQUES PEREIRA LOURENCO ANALISTA DO MP BELO HORIZONTE - COMARCA; BH-03PJ EMPRESARIAL-SECRETARIA 12.343,61 2.468,72 0,00 0,00 0,00 0,00 0,00 3.055,00 17.867,33 982,16 2.767,68 0,00 0,00 3.749,84 14.117,49 31/10/2023
779 604100 DIOGO CESAR DE OLIVEIRA HONORIO ASSESSOR ADMINISTRATIVO III PIUMHI - COMARCA; PIUMHI-PJ-02PJ 0,00 0,00 10.858,90 0,00 3.619,63 0,00 0,00 2.105,00 16.583,53 876,95 3.267,97 0,00 0,00 4.144,92 12.438,61 31/10/2023
780 259600 DIOGO MESQUITA MAIA ANALISTA DO MP BELO HORIZONTE - COMARCA; DIRET DE APOIO AS PROCURADORIAS DE JUSTICA 23.070,31 20.763,28 0,00 0,00 0,00 5.795,34 0,00 2.105,00 51.733,93 5.795,34 9.400,14 6.243,63 0,00 21.439,11 30.294,82 31/10/2023
781 386700 DIRCIMAR FERNANDES CARNEIRO OFICIAL DO MP BELO HORIZONTE - COMARCA; BH-16PJ HABITACAO URBANISMO-GAB 117PJ 12.343,61 9.874,89 0,00 0,00 0,00 0,00 5.354,67 3.557,82 31.130,99 3.961,39 5.210,80 0,00 0,00 9.172,19 21.958,80 31/10/2023
782 216700 DOMICIO VALDETE PEREIRA OFICIAL DO MP TEÓFILO OTONI - COMARCA; COORD REG PJ DEF EDU DIR CRIAN ADOL JEQUI MUC 21.346,53 8.538,61 0,00 0,00 945,09 0,00 13.896,10 3.348,92 48.075,25 6.508,92 9.044,42 0,00 0,00 15.553,34 32.521,91 31/10/2023
783 192701 DONIZETTI APARECIDO AMORIM ANALISTA DO MP PRATÁPOLIS - COMARCA; PRATAPOLIS-PJ-UNPJ 12.262,69 4.937,44 0,00 0,00 0,00 0,00 0,00 2.105,00 19.305,13 2.545,92 3.092,81 0,00 0,00 5.638,73 13.666,40 31/10/2023
784 558700 DORCILIA FATIMA DE OLIVEIRA OFICIAL DO MP DIVINÓPOLIS - COMARCA; DIVINOPOLIS-PJ-02PJ 7.506,70 1.501,34 0,00 0,00 0,00 1.222,23 0,00 2.105,00 12.335,27 1.222,23 1.540,11 0,00 0,00 2.762,34 9.572,93 31/10/2023
785 555300 DOUGLAS CUNHA DE SOUZA ANALISTA DO MP VARZEA DA PALMA - COMARCA; VARZEA DA PALMA-PJ-01PJ 12.343,61 2.468,72 0,00 0,00 0,00 0,00 0,00 3.055,00 17.867,33 982,16 2.767,68 0,00 0,00 3.749,84 14.117,49 31/10/2023
786 265900 DOUGLAS GOMES MOREIRA ANALISTA DO MP BELO HORIZONTE - COMARCA; CENTRAL DE APOIO TECNICO-SETOR DE ENGENHARIA 23.070,31 9.228,12 0,00 0,00 10.766,14 0,00 0,00 2.105,00 45.169,57 4.948,70 9.596,90 0,00 0,00 14.545,60 30.623,97 31/10/2023
787 241000 DOUGLAS MEIRELLES DE CASTRO OFICIAL DO MP CONCEIÇÃO DO RIO VERDE - COMARCA; CONCEICAO DO RIO VERDE-PJ-UNPJ 18.130,77 9.065,39 0,00 0,00 886,43 0,00 12.099,75 2.105,00 42.287,34 5.834,29 8.106,42 0,00 0,00 13.940,71 28.346,63 31/10/2023
788 534900 DOUGLAS SILVA E SOUZA ANALISTA DO MP CAMPOS GERAIS - COMARCA; CAMPOS GERAIS-PJ-01PJ 12.343,61 2.468,72 0,00 0,00 0,00 0,00 0,00 2.105,00 16.917,33 982,16 2.715,54 0,00 0,00 3.697,70 13.219,63 31/10/2023
789 638900 DOUGLAS WALLAS CONCEICAO NEVES OFICIAL DO MP RIBEIRÃO DAS NEVES - COMARCA; RIBEIRAO DAS NEVES-PJ-03PJ 6.818,83 681,88 0,00 0,00 0,00 0,00 0,00 2.105,00 9.605,71 981,10 907,93 0,00 0,00 1.889,03 7.716,68 31/10/2023
790 146800 DUCINALVA AMARAL LOPES REIS OFICIAL DO MP PARAISÓPOLIS - COMARCA; PARAISOPOLIS-PJ-UNPJ 23.070,31 18.456,25 0,00 0,00 0,00 5.795,34 477,24 7.311,24 55.110,38 5.795,34 9.348,00 3.936,60 0,00 19.079,94 36.030,44 31/10/2023
791 122500 DUILIO CARLOS FERREIRA UTSCH OFICIAL DO MP CONCEIÇÃO DO MATO DENTRO - COMARCA; CONCEICAO DO MATO DENTRO-PJ-UNPJ 21.346,53 19.211,88 0,00 1.149,54 295,57 8.918,07 17.206,71 7.311,24 75.439,54 6.746,82 11.535,16 16.975,33 0,00 35.257,31 40.182,23 31/10/2023
792 201800 DULCINEIA ANDRE DE SOUZA OFICIAL DO MP JEQUITINHONHA - COMARCA; JEQUITINHONHA-PJ-SECRETARIA 21.346,53 8.538,61 0,00 0,00 945,09 0,00 14.001,26 3.348,92 48.180,41 6.508,92 8.992,28 0,00 0,00 15.501,20 32.679,21 31/10/2023
793 395800 DUVIDIER MEDIRCIO JUNIOR ANALISTA DO MP BELO HORIZONTE - COMARCA; CAO-PATRIMONIO PUBLICO 20.533,67 6.160,10 0,00 0,00 0,00 0,00 0,00 2.105,00 28.798,77 4.051,95 5.341,54 0,00 0,00 9.393,49 19.405,28 31/10/2023
794 604800 ECIA RAMILIS ISSA DE ABREU ANALISTA DO MP BRASÍLIA DE MINAS - COMARCA; BRASILIA DE MINAS-PJ-01PJ 12.343,61 1.234,36 0,00 0,00 0,00 0,00 0,00 3.055,00 16.632,97 1.953,42 2.311,79 0,00 0,00 4.265,21 12.367,76 31/10/2023
795 273000 EDELFINA APARECIDA GUIMARAES OFICIAL DO MP CACHOEIRA DE MINAS - COMARCA; CACHOEIRA DE MINAS-PJ-UNPJ 14.960,00 11.968,00 0,00 0,00 0,00 0,00 0,00 2.105,00 29.033,00 4.089,43 5.343,51 0,00 0,00 9.432,94 19.600,06 31/10/2023
796 523300 EDER DOS SANTOS PATRICIO ANALISTA DO MP NOVA SERRANA - COMARCA; NOVA SERRANA-PJ-03PJ 12.343,61 2.468,72 0,00 0,00 0,00 0,00 0,00 3.055,00 17.867,33 982,16 2.715,54 0,00 0,00 3.697,70 14.169,63 31/10/2023
797 356700 EDER JOSE PACHECO OFICIAL DO MP CAMPO BELO - COMARCA; CAMPO BELO-PJ-04PJ 12.343,61 3.703,08 0,00 0,00 0,00 0,00 1.771,66 2.105,00 19.923,35 2.348,42 3.317,13 0,00 0,00 5.665,55 14.257,80 31/10/2023
798 507900 EDERSON SILVA LOPES OFICIAL DO MP BELO HORIZONTE - COMARCA; LABORATORIO TECNOLOGIA INTELIGENCIA 10.015,59 2.003,12 0,00 0,00 0,00 0,00 0,00 2.105,00 14.123,71 1.703,94 1.847,33 0,00 0,00 3.551,27 10.572,44 31/10/2023
799 296200 EDGARD GOULART MATOSINHO DE LAET JR ANALISTA DO MP GOVERNADOR VALADARES - COMARCA; GOVERNADOR VALADARES-PJ-12PJ 23.070,31 6.921,09 0,00 0,00 1.040,28 0,00 7.045,66 3.353,34 41.430,68 5.377,39 7.436,94 0,00 0,00 12.814,33 28.616,35 31/10/2023
800 295000 EDILA MARIA DA SILVEIRA OFICIAL DO MP FORMIGA - COMARCA; FORMIGA-PJ-01PJ 12.343,61 3.703,08 0,00 42,05 0,00 3.164,91 0,00 2.105,00 21.358,65 2.348,42 3.685,27 0,00 0,00 6.033,69 15.324,96 31/10/2023
801 332300 EDILA MARILAC MIRANDA PRADO OFICIAL DO MP DIAMANTINA - COMARCA; DIAMANTINA-PJ-01PJ 12.343,61 8.640,53 0,00 0,00 411,45 0,00 3.043,52 9.515,56 33.954,67 3.533,41 4.601,76 0,00 0,00 8.135,17 25.819,50 31/10/2023
802 376600 EDILANE CONSOLACAO ROSA NAZARETH ANALISTA DO MP BETIM - COMARCA; BETIM-PJ-10PJ 20.533,67 6.160,10 0,00 0,00 0,00 0,00 76,57 2.105,00 28.875,34 982,16 5.790,02 0,00 0,00 6.772,18 22.103,16 31/10/2023
803 309800 EDILZA DOS REIS OFICIAL DO MP UBERLÂNDIA - COMARCA; UBERLANDIA-PJ-03PJ 12.343,61 3.703,08 0,00 0,00 0,00 0,00 0,00 2.105,00 18.151,69 2.348,42 2.829,93 0,00 0,00 5.178,35 12.973,34 31/10/2023
804 200500 EDINEIA MARIA DE OLIVEIRA ANTUNES OFICIAL DO MP MONTES CLAROS - COMARCA; MONTES CLAROS-PJ-10PJ 21.346,53 10.673,27 0,00 0,00 0,00 0,00 2.221,29 2.105,00 36.346,09 5.259,52 7.084,97 0,00 0,00 12.344,49 24.001,60 31/10/2023
805 427700 EDISANGELA SOARES LOPES OFICIAL DO MP PIRAPORA - COMARCA; PIRAPORA-PJ-02PJ 7.506,70 1.501,34 0,00 0,00 0,00 0,00 0,00 2.105,00 11.113,04 1.222,23 1.256,14 0,00 0,00 2.478,37 8.634,67 31/10/2023
806 555400 EDISON MONTEIRO SAMPAIO NETO ANALISTA DO MP BELO HORIZONTE - COMARCA; BH-12PJ JUIZO CRIMINAL-GAB 094PJ 12.343,61 2.468,72 0,00 0,00 0,00 0,00 0,00 2.105,00 16.917,33 2.150,92 2.596,93 0,00 0,00 4.747,85 12.169,48 31/10/2023
807 517700 EDMILSON TADEU FERNANDES OFICIAL DO MP POUSO ALEGRE - COMARCA; GAECO REGIONAL DE POUSO ALEGRE 9.699,77 1.939,95 0,00 0,00 0,00 0,00 0,00 3.055,00 14.694,72 1.643,30 1.864,06 0,00 0,00 3.507,36 11.187,36 31/10/2023
808 358400 EDNA APARECIDA SILVA FERREIRA OFICIAL DO MP CORONEL FABRICIANO - COMARCA; CORONEL FABRICIANO-PJ-02PJ 14.960,00 4.488,00 0,00 0,00 0,00 0,00 0,00 2.105,00 21.553,00 2.892,63 3.563,49 0,00 0,00 6.456,12 15.096,88 31/10/2023
809 331800 EDNA MARCIA CAMILO DA SILVA OFICIAL DO MP SETE LAGOAS - COMARCA; SETE LAGOAS-PJ-SEC CRIMINAIS 12.343,61 3.703,08 0,00 0,00 0,00 0,00 0,00 2.105,00 18.151,69 2.348,42 2.829,93 0,00 0,00 5.178,35 12.973,34 31/10/2023
810 327900 EDRIEL SANTANA PEREIRA OFICIAL DO MP TUPACIGUARA - COMARCA; TUPACIGUARA-PJ-02PJ 12.343,61 3.703,08 0,00 0,00 0,00 0,00 0,00 3.055,00 19.101,69 2.348,42 2.882,06 0,00 0,00 5.230,48 13.871,21 31/10/2023
811 482400 EDSON GARCIA OFICIAL DO MP MACHADO - COMARCA; MACHADO-PJ-02PJ 7.506,70 1.501,34 0,00 0,00 0,00 0,00 0,00 2.105,00 11.113,04 1.222,23 1.151,86 0,00 0,00 2.374,09 8.738,95 31/10/2023
812 225601 EDSON LABRE FILHO ANALISTA DO MP VARGINHA - COMARCA; VARGINHA-PJ-01PJ 23.070,31 9.228,12 0,00 0,00 1.120,30 0,00 12.804,59 3.449,36 49.672,68 6.977,71 9.821,56 0,00 0,00 16.799,27 32.873,41 31/10/2023
813 602700 EDSON NOGUEIRA BUENO OFICIAL DO MP PITANGUI - COMARCA; PITANGUI-PJ-02PJ 7.506,70 750,67 0,00 0,00 0,00 0,00 0,00 2.105,00 10.362,37 1.102,13 1.082,73 0,00 0,00 2.184,86 8.177,51 31/10/2023
814 716500 EDUARDA CORREA MOREIRA ASSESSOR ADMINISTRATIVO I BELO HORIZONTE - COMARCA; DIRET DE FORMACAO, APERFEIC. E POS-GRADUACAO 0,00 0,00 4.872,71 0,00 0,00 0,00 0,00 3.055,00 7.927,71 718,08 670,06 0,00 0,00 1.388,14 6.539,57 31/10/2023
815 414400 EDUARDO ABRANTES CAMPOS ANALISTA DO MP SÃO JOÃO DEL REI - COMARCA; SAO JOAO DEL REI-PJ-02PJ 18.720,84 3.744,17 0,00 0,00 0,00 0,00 0,00 2.105,00 24.570,01 3.375,35 4.364,70 0,00 0,00 7.740,05 16.829,96 31/10/2023
816 476800 EDUARDO ALVES DE MOURA ANALISTA DO MP UBERLÂNDIA - COMARCA; UBERLANDIA-PJ-01PJ 12.343,61 2.468,72 0,00 0,00 0,00 0,00 0,00 3.055,00 17.867,33 982,16 2.611,26 0,00 0,00 3.593,42 14.273,91 31/10/2023
817 390800 EDUARDO AMORIM PETTERSEN OFICIAL DO MP CARANGOLA - COMARCA; CARANGOLA-PJ-SECRETARIA 12.343,61 3.703,08 0,00 0,00 0,00 0,00 0,00 2.105,00 18.151,69 2.348,42 2.882,06 0,00 0,00 5.230,48 12.921,21 31/10/2023
818 461600 EDUARDO ANTONIO DE ASSIS FARIA ASSESSOR ADMINISTRATIVO III BELO HORIZONTE - COMARCA; ASSESS EXECUTIVA DO CONSELHO SUPERIOR DO MP 0,00 0,00 10.858,90 0,00 0,00 0,00 670,00 2.105,00 13.633,90 876,95 2.220,44 0,00 0,00 3.097,39 10.536,51 31/10/2023
819 248800 EDUARDO DE CASTRO AMORIM ANALISTA DO MP BELO HORIZONTE - COMARCA; SUPER DE GESTAO DE PESSOAS-LOTACAO TEMPORARIA 23.070,31 9.228,12 0,00 0,00 0,00 0,00 4.446,89 2.803,80 39.549,12 5.323,26 7.176,99 0,00 0,00 12.500,25 27.048,87 31/10/2023
820 209100 EDUARDO DE SOUZA MAIA ANALISTA DO MP BELO HORIZONTE - COMARCA; SUPER DE GESTAO DE PESSOAS-LOTACAO TEMPORARIA 23.070,31 9.228,12 0,00 0,00 0,00 0,00 0,00 2.105,00 34.403,43 4.948,70 6.531,94 0,00 0,00 11.480,64 22.922,79 31/10/2023
821 633900 EDUARDO GONCALVES PIRES OFICIAL DO MP BELO HORIZONTE - COMARCA; DIRETORIA DE PAGAMENTO DE PESSOAL-DPAG 9.097,81 3.639,12 0,00 0,00 0,00 0,00 0,00 2.105,00 14.841,93 1.818,86 2.117,51 0,00 0,00 3.936,37 10.905,56 31/10/2023
822 350500 EDUARDO GONCALVES RIBEIRO OFICIAL DO MP VESPASIANO - COMARCA; VESPASIANO-PJ-SECRETARIA 12.343,61 3.703,08 3.004,68 0,00 0,00 0,00 0,00 2.105,00 21.156,37 2.348,42 3.708,35 0,00 0,00 6.056,77 15.099,60 31/10/2023
823 115800 EDUARDO HENRIQUE DE CAMPOS MAIA OFICIAL DO MP BELO HORIZONTE - COMARCA; DIV FISCAL ADM CONT TERCEIRIZACAO 23.070,31 16.149,22 0,00 0,00 1.760,44 0,00 17.240,24 2.686,60 60.906,81 7.507,31 10.657,92 6.156,77 0,00 24.322,00 36.584,81 31/10/2023
824 392600 EDUARDO HENRIQUE DOS SANTOS COSTA ELIAZAR OFICIAL DO MP MATOZINHOS - COMARCA; MATOZINHOS-PJ-01PJ 11.212,54 3.363,76 0,00 0,00 0,00 0,00 0,00 2.105,00 16.681,30 2.113,16 2.438,13 0,00 0,00 4.551,29 12.130,01 31/10/2023
825 99101 EDUARDO JOSE DE FREITAS NUNES ASSESSOR ADMINISTRATIVO II BELO HORIZONTE - COMARCA; JUNTA RECURSAL DO PROCON ESTADUAL 0,00 3.753,35 7.506,70 0,00 0,00 0,00 0,00 2.105,00 13.365,05 876,95 2.382,89 0,00 0,00 3.259,84 10.105,21 31/10/2023
826 407500 EDUARDO MASCARENHAS CURI AZEVEDO ANALISTA DO MP BELO HORIZONTE - COMARCA; DIR CONTEUDO JORNALISTICO 12.343,61 2.468,72 0,00 0,00 0,00 0,00 0,00 3.055,00 17.867,33 2.150,92 2.596,93 0,00 0,00 4.747,85 13.119,48 31/10/2023
827 754700 EDUARDO NOBRE LEITE OFICIAL DO MP MANGA - COMARCA; MANGA-PJ-02PJ 4.570,25 0,00 0,00 0,00 0,00 0,00 1.371,08 3.187,27 9.128,60 739,39 545,57 0,00 0,00 1.284,96 7.843,64 31/10/2023
828 752000 EDUARDO SOUZA PRADO JUNIOR OFICIAL DO MP ITAMONTE - COMARCA; ITAMONTE-PJ-UNPJ 4.570,25 0,00 0,00 0,00 0,00 0,00 1.371,08 3.187,27 9.128,60 739,39 545,57 0,00 0,00 1.284,96 7.843,64 31/10/2023
829 257600 EDUARDO VALADARES CABRAL ANALISTA DO MP BELO HORIZONTE - COMARCA; COORD DE INCLUSAO E MOBILIZACAO SOCIAIS 23.070,31 9.228,12 0,00 0,00 0,00 0,00 0,00 2.105,00 34.403,43 4.948,70 6.636,22 0,00 0,00 11.584,92 22.818,51 31/10/2023
830 746800 EDUARDO XAVIER ARAUJO OFICIAL DO MP RIBEIRÃO DAS NEVES - COMARCA; RIBEIRAO DAS NEVES-PJ-02PJ 4.570,25 0,00 0,00 0,00 0,00 0,00 0,00 2.105,00 6.675,25 526,88 257,78 0,00 0,00 784,66 5.890,59 31/10/2023
831 545700 EDVAIR FERREIRA DE CARVALHO OFICIAL DO MP ARAGUARI - COMARCA; ARAGUARI-PJ-06PJ 7.506,70 1.501,34 0,00 0,00 0,00 0,00 0,00 2.105,00 11.113,04 1.222,23 1.204,00 0,00 0,00 2.426,23 8.686,81 31/10/2023
832 401700 EDWANIA AMORIM DO CARMO OFICIAL DO MP BELO HORIZONTE - COMARCA; BH-12PJ JUIZO CRIMINAL-SECRETARIA 12.343,61 3.703,08 0,00 0,00 0,00 0,00 0,00 2.105,00 18.151,69 2.348,42 2.882,06 0,00 0,00 5.230,48 12.921,21 31/10/2023
833 303600 EFIGENIO SARAIVA LOPES ANALISTA DO MP BELO HORIZONTE - COMARCA; DIRETORIA DE PAGAMENTO DE PESSOAL-DPAG 23.070,31 6.921,09 5.538,92 0,00 0,00 0,00 0,00 2.105,00 37.635,32 4.579,57 7.574,36 0,00 0,00 12.153,93 25.481,39 31/10/2023
834 286000 ELAINE APARECIDA SILVA BERZOINI OFICIAL DO MP JUIZ DE FORA - COMARCA; JUIZ DE FORA-PJ-07PJ 12.343,61 3.703,08 0,00 0,00 0,00 0,00 235,35 4.672,47 20.954,51 2.348,42 2.882,06 0,00 0,00 5.230,48 15.724,03 31/10/2023
835 509000 ELAINE CANDIDA PONTES OFICIAL DO MP BELO HORIZONTE - COMARCA; BH-02PJ FAMILIA-SECRETARIA 10.516,49 2.103,30 0,00 0,00 0,00 0,00 0,00 2.105,00 14.724,79 1.800,11 2.090,45 0,00 0,00 3.890,56 10.834,23 31/10/2023
836 283601 ELAINE CRISTINA MEQUELINO DUARTE ANALISTA DO MP ALFENAS - COMARCA; ALFENAS-PJ-02PJ 20.533,67 7.392,12 0,00 0,00 0,00 0,00 0,00 2.105,00 30.030,79 4.249,07 5.521,86 0,00 0,00 9.770,93 20.259,86 31/10/2023
837 535500 ELAINE DE OLIVEIRA CAMPOS REIS OFICIAL DO MP SANTA LUZIA - COMARCA; SANTA LUZIA-PJ-SECRETARIA 7.506,70 1.501,34 0,00 0,00 0,00 0,00 0,00 2.105,00 11.113,04 1.222,23 1.256,14 0,00 0,00 2.478,37 8.634,67 31/10/2023
838 455700 ELAINE DE OLIVEIRA CASTRO ANALISTA DO MP POMPÉU - COMARCA; POMPEU-PJ-UNPJ 12.343,61 2.468,72 0,00 0,00 0,00 0,00 0,00 3.055,00 17.867,33 2.150,92 2.492,65 0,00 0,00 4.643,57 13.223,76 31/10/2023
839 367200 ELAINE MUNIZ BARBOSA ANALISTA DO MP BELO HORIZONTE - COMARCA; DIRETORIA DE SISTEMAS DE INFORMACAO 21.346,53 6.403,96 0,00 0,00 962,56 0,00 13.177,54 3.055,00 44.945,59 6.069,14 8.466,43 0,00 0,00 14.535,57 30.410,02 31/10/2023
840 679200 ELAINE RIBEIRO CHAVES ASSESSOR PROCURADOR JUSTICA BELO HORIZONTE - COMARCA; GABINETE DE PROCURADOR DE JUSTIÇA - SALA 614 0,00 0,00 8.810,89 0,00 0,00 0,00 0,00 2.105,00 10.915,89 876,95 1.657,24 0,00 0,00 2.534,19 8.381,70 31/10/2023
841 176900 ELAINE RIBEIRO TAVEIRA OFICIAL DO MP BELO HORIZONTE - COMARCA; DIVISAO FROTA 18.720,84 7.488,34 0,00 0,00 0,00 0,00 0,00 2.105,00 28.314,18 3.974,42 5.229,60 0,00 0,00 9.204,02 19.110,16 31/10/2023
842 496200 ELAINE SABRINA MOREIRA SCHUWARTEN ANALISTA DO MP CORONEL FABRICIANO - COMARCA; CORONEL FABRICIANO-PJ-SECRETARIA 14.960,00 2.992,00 0,00 0,00 0,00 0,00 0,00 2.105,00 20.057,00 2.653,27 3.322,19 0,00 0,00 5.975,46 14.081,54 31/10/2023
843 489200 ELAINE VICENTINO ANALISTA DO MP BELO HORIZONTE - COMARCA; CENTRAL DE APOIO TECNICO-SETOR CONTABIL 12.343,61 4.937,44 0,00 0,00 0,00 0,00 0,00 2.105,00 19.386,05 2.545,92 3.062,93 0,00 0,00 5.608,85 13.777,20 31/10/2023
844 731400 ELBERT MENDES PINHEIRO ASSESSOR PROMOTOR JUSTICA BELO HORIZONTE - COMARCA; COORD ESTADUAL DAS PJS DE HAB. E URBANISMO 0,00 0,00 8.810,89 0,00 2.936,96 0,00 0,00 2.105,00 13.852,85 876,95 2.517,04 0,00 0,00 3.393,99 10.458,86 31/10/2023
845 244500 ELCI ALVES DE SOUZA ASSESSOR ADMINISTRATIVO II BELO HORIZONTE - COMARCA; CAO-CONFLITOS AGRARIOS-SECRETARIA 0,00 3.002,68 7.506,70 0,00 0,00 0,00 0,00 2.105,00 12.614,38 876,95 2.124,32 0,00 0,00 3.001,27 9.613,11 31/10/2023
846 472500 ELCI VAZ DE OLIVEIRA FILHO ANALISTA DO MP PIUMHI - COMARCA; PIUMHI-PJ-02PJ 12.343,61 6.171,81 0,00 0,00 0,00 0,00 0,00 2.105,00 20.620,42 2.743,42 3.452,34 0,00 0,00 6.195,76 14.424,66 31/10/2023
847 385200 ELCI VIANA REIS OFICIAL DO MP RIO PARDO DE MINAS - COMARCA; RIO PARDO DE MINAS-PJ-SECRETARIA 12.343,61 6.171,81 0,00 0,00 667,66 0,00 8.038,94 4.107,97 31.329,99 3.811,67 5.178,23 0,00 0,00 8.989,90 22.340,09 31/10/2023
848 289801 ELCIO JOSE DOS SANTOS ANALISTA DO MP BELO HORIZONTE - COMARCA; DIVISAO DE SERVICOS 12.343,61 3.703,08 5.538,92 0,00 0,00 0,00 0,00 2.105,00 23.690,61 2.348,42 4.405,27 0,00 0,00 6.753,69 16.936,92 31/10/2023
849 319600 ELEN TULER DE ALBERGARIA ANALISTA DO MP BELO HORIZONTE - COMARCA; BH-19PJ SAUDE-SECRETARIA 130PJ 23.070,31 11.535,16 0,00 0,00 0,00 0,00 0,00 2.105,00 36.710,47 5.317,82 7.169,14 0,00 0,00 12.486,96 24.223,51 31/10/2023
850 205500 ELIANA ALVES DE SOUSA OFICIAL DO MP GOVERNADOR VALADARES - COMARCA; GOVERNADOR VALADARES-PJ-07PJ 12.343,61 4.937,44 0,00 0,00 0,00 0,00 0,00 2.105,00 19.386,05 2.545,92 3.167,20 0,00 0,00 5.713,12 13.672,93 31/10/2023
851 628800 ELIANA APARECIDA PEREIRA ANALISTA DO MP EXTREMA - COMARCA; EXTREMA-PJ-01PJ 11.577,56 1.157,76 0,00 0,00 0,00 0,00 0,00 2.105,00 14.840,32 1.818,60 2.065,00 0,00 0,00 3.883,60 10.956,72 31/10/2023
852 301700 ELIANA DA SILVEIRA ANALISTA DO MP BELO HORIZONTE - COMARCA; BH-11PJ COMB CRIME ORGANIZ-GAB 081PJ 22.191,68 6.657,50 0,00 0,00 9.616,39 0,00 1.766,21 2.105,00 42.336,78 4.396,82 8.483,95 0,00 0,00 12.880,77 29.456,01 31/10/2023
853 251500 ELIANA DE LIMA MILAGRES FONSECA ANALISTA DO MP CONTAGEM - COMARCA; CONTAGEM-PJ-16PJ 23.070,31 9.228,12 0,00 0,00 0,00 0,00 2.171,84 2.803,80 37.274,07 4.972,58 6.618,56 0,00 0,00 11.591,14 25.682,93 31/10/2023
854 503900 ELIANA DIAS DUTRA FERREIRA OFICIAL DO MP BELO HORIZONTE - COMARCA; DIRETORIA GESTAO COMPRAS LICITACOES 10.858,90 2.171,78 0,00 0,00 0,00 0,00 0,00 2.105,00 15.135,68 1.865,86 2.133,23 0,00 0,00 3.999,09 11.136,59 31/10/2023
855 413900 ELIANA PINTO DE OLIVEIRA NEVES ANALISTA DO MP CAMPO BELO - COMARCA; CAMPO BELO-PJ-04PJ 18.130,77 3.626,15 0,00 0,00 0,00 0,00 4.268,29 3.381,46 29.406,67 3.717,45 4.858,60 0,00 0,00 8.576,05 20.830,62 31/10/2023
856 228200 ELIANA RODRIGUES DA CUNHA PINHEIRO OFICIAL DO MP BELO HORIZONTE - COMARCA; DIRETORIA DE PROJETOS DE EDIFICACOES 18.130,77 7.252,31 0,00 351,75 0,00 7.664,75 1.725,43 2.105,00 37.230,01 4.453,01 7.367,59 0,00 0,00 11.820,60 25.409,41 31/10/2023
857 386600 ELIANA SABINO CHAVES PESSOA ANALISTA DO MP CARATINGA - COMARCA; CARATINGA-PJ-06PJ 18.130,77 12.691,55 0,00 0,00 0,00 5.872,39 7.899,77 3.386,46 47.980,94 5.630,71 9.117,19 0,00 0,00 14.747,90 33.233,04 31/10/2023
858 677500 ELIANA SILVA ANDRADE ASSESSOR PROMOTOR JUSTICA TRÊS CORACOES - COMARCA; TRES CORACOES-PJ-06PJ 0,00 0,00 8.810,89 0,00 0,00 0,00 0,00 2.105,00 10.915,89 876,95 1.709,37 0,00 0,00 2.586,32 8.329,57 31/10/2023
859 297400 ELIANE AUGUSTA RIBEIRO COSTA ANALISTA DO MP CONSELHEIRO LAFAIETE - COMARCA; CONSELHEIRO LAFAIETE-PJ-05PJ 23.070,31 6.921,09 0,00 0,00 0,00 0,00 1.901,66 2.699,02 34.592,08 4.579,57 5.999,02 0,00 0,00 10.578,59 24.013,49 31/10/2023
860 510600 ELIANE CAROLINA MAIA ANALISTA DO MP IGARAPÉ - COMARCA; IGARAPE-PJ-03PJ 12.343,61 3.703,08 0,00 0,00 0,00 0,00 0,00 2.105,00 18.151,69 2.348,42 2.725,65 0,00 0,00 5.074,07 13.077,62 31/10/2023
861 262600 ELIANE FERREIRA SOARES ASSESSOR ADMINISTRATIVO II BELO HORIZONTE - COMARCA; BH-18PJ DIREITOS HUMANOS-SECRETARIA 0,00 3.753,35 7.506,70 0,00 3.753,35 0,00 0,00 2.105,00 17.118,40 876,95 3.415,06 0,00 0,00 4.292,01 12.826,39 31/10/2023
862 204400 ELIANE GLAUCE DE QUEIROS MAIA OFICIAL DO MP GUANHÃES - COMARCA; GUANHAES-PJ-02PJ 21.346,53 8.538,61 0,00 0,00 1.890,18 0,00 11.785,03 2.726,96 46.287,31 6.439,05 9.307,72 0,00 0,00 15.746,77 30.540,54 31/10/2023
863 91800 ELIANE KAPLER ALVES OFICIAL DO MP BELO HORIZONTE - COMARCA; DIVISAO DE CONTROLE IMOBILIARIO 23.070,31 16.149,22 0,00 0,00 0,00 5.795,34 0,00 2.105,00 47.119,87 5.795,34 9.348,00 1.629,57 0,00 16.772,91 30.346,96 31/10/2023
864 334200 ELIANE MARCIA DE OLIVEIRA BRITO OFICIAL DO MP BELO HORIZONTE - COMARCA; BH-08PJ JUIZADO ESPECIAL-SECRETARIA 7.506,70 2.252,01 0,00 0,00 0,00 0,00 0,00 2.105,00 11.863,71 1.342,34 1.429,54 0,00 0,00 2.771,88 9.091,83 31/10/2023
865 365900 ELIANE MARIA DE OLIVEIRA FERREIRA OFICIAL DO MP SETE LAGOAS - COMARCA; SETE LAGOAS-PJ-SEC CRIMINAIS 12.343,61 8.640,53 0,00 0,00 6.994,71 0,00 0,00 2.105,00 30.083,85 3.138,41 5.946,16 0,00 0,00 9.084,57 20.999,28 31/10/2023
866 320600 ELIANE STADLER DE SOUZA OFICIAL DO MP MONTES CLAROS - COMARCA; MONTES CLAROS-PJ-13PJ 11.954,43 3.586,33 0,00 0,00 0,00 0,00 0,00 2.105,00 17.645,76 2.267,47 2.713,06 0,00 0,00 4.980,53 12.665,23 31/10/2023
867 448900 ELIAS PEREIRA OTONI ASSESSOR ADMINISTRATIVO II BELO HORIZONTE - COMARCA; BH-18PJ DIREITOS HUMANOS-SECRETARIA 0,00 0,00 7.506,70 0,00 0,00 0,00 0,00 2.105,00 9.611,70 876,95 1.246,45 0,00 0,00 2.123,40 7.488,30 31/10/2023
868 495400 ELICA SOUZA GASPARONI MATTOS OFICIAL DO MP UBÁ - COMARCA; UBA-PJ-06PJ 10.858,90 2.171,78 0,00 0,00 0,00 0,00 0,00 2.105,00 15.135,68 1.865,86 2.185,37 0,00 0,00 4.051,23 11.084,45 31/10/2023
869 86600 ELIENE FERREIRA DA SILVA OFICIAL DO MP BELO HORIZONTE - COMARCA; BH-22PJ PES COM DEF E IDOSOS-SECRETARIA 25.920,35 20.736,29 0,00 0,00 0,00 5.795,34 0,00 2.105,00 54.556,98 5.795,34 9.295,87 9.066,68 0,00 24.157,89 30.399,09 31/10/2023
870 183800 ELIENE MARIA CUNHA OFICIAL DO MP BELO HORIZONTE - COMARCA; DIRETORIA DE PESSOAL ADMINISTRATIVO - DPAD 22.191,68 8.876,67 0,00 0,00 0,00 0,00 5.189,19 2.786,84 39.044,38 5.269,15 7.046,73 0,00 0,00 12.315,88 26.728,50 31/10/2023
871 172300 ELINA APARECIDA SILVA ASSESSOR ADMINISTRATIVO I BELO HORIZONTE - COMARCA; BH-19PJ SAUDE-SECRETARIA 130PJ 0,00 1.949,08 4.872,71 0,00 0,00 0,00 0,00 2.105,00 8.926,79 876,95 1.110,23 0,00 0,00 1.987,18 6.939,61 31/10/2023
872 492501 ELINE CAMPOS DA FONSECA CUNHA ANALISTA DO MP PONTE NOVA - COMARCA; PONTE NOVA-PJ-05PJ 12.343,61 2.468,72 0,00 0,00 0,00 0,00 0,00 2.105,00 16.917,33 2.150,92 2.596,93 0,00 0,00 4.747,85 12.169,48 31/10/2023
873 618900 ELISA MOURA VIEIRA MARCATTI OFICIAL DO MP BELO HORIZONTE - COMARCA; GRUPO ESP PROM JUST DEF PROB ADM PAT PUB 7.506,70 750,67 0,00 0,00 0,00 0,00 0,00 3.055,00 11.312,37 1.102,13 1.082,73 0,00 0,00 2.184,86 9.127,51 31/10/2023
874 256500 ELISABETE NOGUEIRA ANALISTA DO MP RIBEIRÃO DAS NEVES - COMARCA; RIBEIRAO NEVES-SEC PJ EXECUCAO PENAL 18.720,84 9.360,42 0,00 0,00 0,00 0,00 0,00 2.105,00 30.186,26 4.273,95 5.453,50 0,00 0,00 9.727,45 20.458,81 31/10/2023
875 355000 ELISANGELA DARLANTONI RIBEIRO OFICIAL DO MP ARAXÁ - COMARCA; ARAXA-PJ-05PJ 12.343,61 3.703,08 0,00 0,00 0,00 0,00 0,00 2.105,00 18.151,69 2.348,42 2.829,93 0,00 0,00 5.178,35 12.973,34 31/10/2023
876 604400 ELISANGELA DEMASI FERREIRA MOREIRA ANALISTA DO MP CABO VERDE - COMARCA; CABO VERDE-PJ-UNPJ 12.343,61 1.234,36 0,00 0,00 0,00 0,00 0,00 2.105,00 15.682,97 982,16 2.453,68 0,00 0,00 3.435,84 12.247,13 31/10/2023
877 323800 ELISANGELA GONCALVES DE JESUS OFICIAL DO MP BELO HORIZONTE - COMARCA; DIRETORIA DE PESSOAL ADMINISTRATIVO - DPAD 12.343,61 3.703,08 0,00 0,00 0,00 0,00 0,00 2.105,00 18.151,69 2.348,42 2.829,93 0,00 0,00 5.178,35 12.973,34 31/10/2023
878 507400 ELISANGELA MIGUEL DA ROCHA SILVA ASSESSOR ADMINISTRATIVO II BELO HORIZONTE - COMARCA; CGMP-DIR INSP CORR PROCED PROC DISC 0,00 0,00 7.506,70 0,00 0,00 0,00 670,00 2.105,00 10.281,70 876,95 1.298,58 0,00 0,00 2.175,53 8.106,17 31/10/2023
879 261400 ELISANGELA REZENDE MENDES OFICIAL DO MP POUSO ALEGRE - COMARCA; POUSO ALEGRE-PJ-05PJ 12.343,61 4.937,44 0,00 0,00 0,00 0,00 0,00 2.105,00 19.386,05 2.545,92 3.167,20 0,00 0,00 5.713,12 13.672,93 31/10/2023
880 534100 ELISANGELA ROSINE SILVA OFICIAL DO MP UBERABA - COMARCA; UBERABA-PJ-06PJ 7.506,70 1.501,34 0,00 0,00 0,00 0,00 0,00 2.105,00 11.113,04 1.222,23 1.256,14 0,00 0,00 2.478,37 8.634,67 31/10/2023
881 634300 ELIUDE GRACA DAMASIO ROSARIO FRANCELINO OFICIAL DO MP BELO HORIZONTE - COMARCA; BH-18PJ VIOLENCIA DOMESTICA-SECRETARIA 6.818,83 681,88 0,00 0,00 0,00 0,00 0,00 4.005,00 11.505,71 981,10 907,93 0,00 0,00 1.889,03 9.616,68 31/10/2023
882 461700 ELIZABETH ALEIXO DA PAZ ANALISTA DO MP JUIZ DE FORA - COMARCA; JUIZ DE FORA-PJ-18PJ 12.343,61 2.468,72 0,00 0,00 0,00 0,00 0,00 2.105,00 16.917,33 2.150,92 2.596,93 0,00 0,00 4.747,85 12.169,48 31/10/2023
883 227300 ELIZABETH COIMBRA FELIX OFICIAL DO MP JABOTICATUBAS - COMARCA; JABOTICATUBAS-PJ-UNPJ 18.720,84 9.360,42 0,00 0,00 915,30 0,00 11.297,31 4.176,20 44.470,07 5.780,27 7.984,24 0,00 0,00 13.764,51 30.705,56 31/10/2023
884 354800 ELIZABETH DOS REIS OFICIAL DO MP BELO HORIZONTE - COMARCA; DIVISAO DE MATERIAIS 12.343,61 3.703,08 0,00 0,00 0,00 0,00 0,00 2.105,00 18.151,69 2.348,42 2.829,93 0,00 0,00 5.178,35 12.973,34 31/10/2023
885 612000 ELIZABETH MARIA DE QUEIROZ TANIGUCHI OFICIAL DO MP BELO HORIZONTE - COMARCA; SUPERINTENDENCIA GESTÃO DE PESSOAS 7.506,70 750,67 0,00 0,00 0,00 0,00 0,00 2.105,00 10.362,37 1.102,13 1.082,73 0,00 0,00 2.184,86 8.177,51 31/10/2023
886 452800 ELIZANGELA MARIA DAVI OFICIAL DO MP ARCOS - COMARCA; ARCOS-PJ-01PJ 7.506,70 1.501,34 0,00 0,00 0,00 0,00 0,00 2.105,00 11.113,04 1.222,23 1.204,00 0,00 0,00 2.426,23 8.686,81 31/10/2023
887 496300 ELIZANGELA MARQUES PINTO COELHO OFICIAL DO MP BELO HORIZONTE - COMARCA; DIRETORIA DE PESSOAL ADMINISTRATIVO - DPAD 10.858,90 2.171,78 0,00 0,00 0,00 0,00 0,00 2.105,00 15.135,68 1.865,86 2.185,37 0,00 0,00 4.051,23 11.084,45 31/10/2023
888 422500 ELIZETE FORTES DA CUNHA ANALISTA DO MP RIBEIRÃO DAS NEVES - COMARCA; RIBEIRAO DAS NEVES-PJ-07PJ 18.720,84 3.744,17 0,00 0,00 0,00 0,00 0,00 2.105,00 24.570,01 3.375,35 4.312,56 0,00 0,00 7.687,91 16.882,10 31/10/2023
889 506100 ELLEM CRISTINA ROCHA FONSECA BOWEN ANALISTA DO MP GOVERNADOR VALADARES - COMARCA; COORD REG PJ DEF EDU DIR CRIANCA ADOL RIODOCE 12.343,61 2.468,72 0,00 0,00 0,00 0,00 0,00 3.055,00 17.867,33 2.150,92 2.596,93 0,00 0,00 4.747,85 13.119,48 31/10/2023
890 468200 ELLEN CRISTINA BERNARDES DARE ANALISTA DO MP TRÊS PONTAS - COMARCA; TRES PONTAS-PJ-02PJ 12.343,61 2.468,72 0,00 0,00 0,00 0,00 0,00 3.055,00 17.867,33 2.150,92 2.544,79 0,00 0,00 4.695,71 13.171,62 31/10/2023
891 418800 ELLEN CRISTINA DE QUEIROZ FERREIRA ANALISTA DO MP BELO HORIZONTE - COMARCA; CENTRAL DE APOIO TECNICO-SETOR CONTABIL 18.130,77 3.626,15 0,00 0,00 759,80 0,00 8.351,19 5.444,69 36.312,60 982,16 6.482,62 0,00 0,00 7.464,78 28.847,82 31/10/2023
892 328401 ELLEN CRISTINA FERREIRA MORAIS MONTEIRO ANALISTA DO MP CAMANDUCAIA - COMARCA; CAMANDUCAIA-PJ-UNPJ 18.130,77 4.714,00 0,00 0,00 618,60 0,00 8.120,23 2.105,00 33.688,60 4.530,22 6.097,89 0,00 0,00 10.628,11 23.060,49 31/10/2023
893 556100 ELLEN CRISTINE BIANCHIN DA SILVA OFICIAL DO MP SÃO GONÇALO DO SAPUCAÍ - COMARCA; SAO GONCALO DO SAPUCAI-PJ-02PJ 7.506,70 1.501,34 0,00 0,00 0,00 0,00 0,00 2.105,00 11.113,04 1.222,23 1.204,00 0,00 0,00 2.426,23 8.686,81 31/10/2023
894 714500 ELLEN PROENCA CARVALHO DE ARAUJO ASSESSOR PROMOTOR JUSTICA MARIANA - COMARCA; MARIANA-PJ-02PJ 0,00 0,00 8.810,89 0,00 2.936,96 0,00 0,00 2.105,00 13.852,85 876,95 2.517,04 0,00 0,00 3.393,99 10.458,86 31/10/2023
895 447100 ELLEN ROSANA DE MACEDO BORGES OFICIAL DO MP UBERLÂNDIA - COMARCA; UBERLANDIA-PJ-17PJ 11.212,54 2.242,51 0,00 0,00 0,00 0,00 0,00 2.105,00 15.560,05 1.933,76 2.283,39 0,00 0,00 4.217,15 11.342,90 31/10/2023
896 477700 ELMA JACOB OFICIAL DO MP BELO HORIZONTE - COMARCA; COORD DE GABINETE DO PGJ 10.858,90 8.687,12 0,00 0,00 253,08 3.376,93 3.429,72 3.417,97 30.023,72 3.235,96 5.122,93 0,00 0,00 8.358,89 21.664,83 31/10/2023
897 123300 ELMA PAULA DOS SANTOS COELHO OFICIAL DO MP BELO HORIZONTE - COMARCA; BH-19PJ SAUDE-SECRETARIA 130PJ 23.070,31 23.070,31 0,00 0,00 0,00 5.795,34 0,00 2.105,00 54.040,96 5.795,34 9.452,28 8.550,66 0,00 23.798,28 30.242,68 31/10/2023
898 728200 ELMITA XISTO DO VALLE ASSESSOR ADMINISTRATIVO I BELO HORIZONTE - COMARCA; DIRET DE FORMACAO, APERFEIC. E POS-GRADUACAO 0,00 0,00 4.872,71 0,00 0,00 0,00 0,00 2.105,00 6.977,71 718,08 670,06 0,00 0,00 1.388,14 5.589,57 31/10/2023
899 356500 ELOISA CARDOSO SILVA FRANCA OFICIAL DO MP PEÇANHA - COMARCA; PECANHA-PJ-SECRETARIA 7.506,70 2.252,01 0,00 0,00 3.252,90 0,00 0,00 2.105,00 15.116,61 1.342,34 2.271,95 0,00 0,00 3.614,29 11.502,32 31/10/2023
900 251901 ELOISA COSTA E SILVA ANALISTA DO MP BELO HORIZONTE - COMARCA; CENT ESTAD COOPERACAO TECNICO-JURIDICA 12.343,61 4.937,44 0,00 0,00 0,00 0,00 0,00 2.105,00 19.386,05 2.545,92 3.115,06 0,00 0,00 5.660,98 13.725,07 31/10/2023
901 400400 ELOIZA MARIA FERRI PIRES DA SILVA OFICIAL DO MP BELO HORIZONTE - COMARCA; ASSESSORIA DE COMUNICACAO INTEGRADA 11.212,54 3.363,76 4.020,58 0,00 0,00 0,00 0,00 2.105,00 20.701,88 2.113,16 3.648,06 0,00 0,00 5.761,22 14.940,66 31/10/2023
902 258000 ELSO CECIANO PALMEIRA OFICIAL DO MP BELO HORIZONTE - COMARCA; DIRET DE PESSOAL DO MINISTERIO PUBLICO - DPMP 17.559,01 14.047,21 5.928,90 0,00 0,00 0,00 7.219,07 3.488,48 48.242,67 5.513,02 9.287,19 0,00 0,00 14.800,21 33.442,46 31/10/2023
903 206900 ELVIRA RITA DOS SANTOS ANALISTA DO MP BELO HORIZONTE - COMARCA; CENTRAL DE APOIO TECNICO-SETOR CONTABIL 23.070,31 9.228,12 0,00 0,00 0,00 4.948,70 546,29 8.064,54 45.857,96 4.948,70 7.997,11 0,00 0,00 12.945,81 32.912,15 31/10/2023
904 506800 ELVIS FERREIRA DA SILVA ANALISTA DO MP BELO HORIZONTE - COMARCA; DIRETORIA DE SISTEMAS DE INFORMACAO 12.343,61 2.468,72 0,00 0,00 0,00 0,00 0,00 3.055,00 17.867,33 2.150,92 2.440,52 0,00 0,00 4.591,44 13.275,89 31/10/2023
905 602400 ELZA MARIA MOREIRA MUNIZ ANALISTA DO MP RIO PARANAÍBA - COMARCA; RIO PARANAIBA-PJ-UNPJ 12.343,61 3.703,08 0,00 0,00 0,00 0,00 1.234,36 2.105,00 19.386,05 2.545,92 3.062,93 0,00 0,00 5.608,85 13.777,20 31/10/2023
906 368401 ELZIRA SIMOES DOS SANTOS ASSESSOR DE GABINETE I BELO HORIZONTE - COMARCA; ASSESSORIA DE COMUNICACAO INTEGRADA 0,00 7.252,31 18.130,77 0,00 0,00 0,00 0,00 2.105,00 27.488,08 876,95 6.266,73 0,00 0,00 7.143,68 20.344,40 31/10/2023
907 437400 EMANOELLE DA SILVA RODRIGUES OFICIAL DO MP UNAÍ - COMARCA; UNAI-PJ-03PJ 10.341,72 2.068,34 0,00 0,00 0,00 0,00 0,00 3.055,00 15.465,06 1.766,56 1.989,87 0,00 0,00 3.756,43 11.708,63 31/10/2023
908 458900 EMANUELLE CONRAD SILVA FREDERICO NAVES ANALISTA DO MP ALFENAS - COMARCA; ALFENAS-PJ-05PJ 18.130,77 3.626,15 0,00 0,00 0,00 0,00 3.561,00 3.252,76 28.570,68 3.626,76 4.675,53 0,00 0,00 8.302,29 20.268,39 31/10/2023
909 284100 EMERSON MAGNO ALMEIDA PEDROSA DA FONSECA ANALISTA DO MP BELO HORIZONTE - COMARCA; CENTRAL DE APOIO TECNICO-SETOR CONTABIL 23.070,31 6.921,09 0,00 0,00 0,00 0,00 3.993,23 3.703,88 37.688,51 4.898,28 4.554,37 0,00 0,00 9.452,65 28.235,86 31/10/2023
910 179900 EMERSON MORAIS DIAS OFICIAL DO MP BELO HORIZONTE - COMARCA; SUPERINTENDÊNCIA DE ENGENHARIA E ARQUITETURA 22.191,68 11.095,84 0,00 0,00 1.077,64 0,00 8.798,80 4.044,74 47.208,70 6.163,99 8.687,14 0,00 0,00 14.851,13 32.357,57 31/10/2023
911 488700 EMERSON SIQUEIRA DE SOUSA TEIXEIRA ANALISTA DO MP ITANHOMI - COMARCA; ITANHOMI-PJ-UNPJ 12.343,61 3.209,34 0,00 0,00 0,00 0,00 0,00 2.105,00 17.657,95 2.269,42 2.611,60 0,00 0,00 4.881,02 12.776,93 31/10/2023
912 194200 EMILIA ALVES FERREIRA RAMOS OFICIAL DO MP UBERLÂNDIA - COMARCA; UBERLANDIA-PJ-SEC CIVEIS CRIMINAIS 15.447,01 6.178,80 0,00 0,00 0,00 0,00 6.642,47 4.280,06 32.548,34 4.052,53 5.342,37 0,00 0,00 9.394,90 23.153,44 31/10/2023
913 679500 EMILY DIAS LEMOS E SILVA ASSESSOR PROCURADOR JUSTICA BELO HORIZONTE - COMARCA; GABINETE DE PROCURADOR DE JUSTIÇA - SALA 307 0,00 0,00 8.810,89 0,00 0,00 0,00 670,00 3.055,00 12.535,89 876,95 1.605,10 0,00 0,00 2.482,05 10.053,84 31/10/2023
914 620700 EMILY FONTANA DE SIQUEIRA ANALISTA DO MP BELO HORIZONTE - COMARCA; BH-18PJ VIOLENCIA DOMESTICA-SECRETARIA 12.343,61 1.234,36 0,00 0,00 0,00 0,00 0,00 3.055,00 16.632,97 1.953,42 2.259,65 0,00 0,00 4.213,07 12.419,90 31/10/2023
915 755400 EMMANUELLE PINHEIRO PAIVA QUINTAS ASSESSOR PROMOTOR JUSTICA SABARÁ - COMARCA; SABARA-PJ-03PJ 0,00 0,00 8.810,89 0,00 0,00 0,00 881,09 2.982,72 12.674,70 876,95 2.026,67 0,00 0,00 2.903,62 9.771,08 31/10/2023
916 297000 ENEIDA SOARES COSTA MELO ANALISTA DO MP PIUMHI - COMARCA; PIUMHI-PJ-01PJ 23.070,31 6.921,09 0,00 0,00 0,00 0,00 3.209,29 2.753,88 35.954,57 4.778,44 6.390,40 0,00 0,00 11.168,84 24.785,73 31/10/2023
917 276000 ENEZIO RODRIGUES DE SOUZA FILHO OFICIAL DO MP UBERLÂNDIA - COMARCA; UBERLANDIA-PJ-10PJ 12.343,61 4.937,44 0,00 0,00 0,00 0,00 1.234,36 2.105,00 20.620,41 2.743,41 3.452,34 0,00 0,00 6.195,75 14.424,66 31/10/2023
918 387700 ENI MARIA DOS REIS OFICIAL DO MP POUSO ALEGRE - COMARCA; POUSO ALEGRE-PJ-07PJ 12.343,61 3.703,08 0,00 0,00 5.348,90 0,00 529,54 7.881,81 29.806,94 2.348,42 4.353,01 0,00 0,00 6.701,43 23.105,51 31/10/2023
919 605100 ENIA MAIA ASSESSOR ADMINISTRATIVO IV BELO HORIZONTE - COMARCA; DIRETORIA DE ORCAMENTO-DIOR/SPC 14.488,22 1.448,82 0,00 0,00 0,00 0,00 2.660,00 2.105,00 20.702,04 1.102,13 3.926,14 0,00 0,00 5.028,27 15.673,77 31/10/2023
920 612200 ENILDO GOMES MEIRA FILHO ANALISTA DO MP BELO HORIZONTE - COMARCA; BH-23PJ INFRACIONAL-ASS JURIDICA 12.343,61 1.234,36 0,00 0,00 0,00 0,00 2.793,19 3.055,00 19.426,16 2.400,33 2.800,61 0,00 0,00 5.200,94 14.225,22 31/10/2023
921 553700 ENIVALDO NOVATO PUBLIO ANALISTA DO MP DIVINÓPOLIS - COMARCA; DIVINOPOLIS-PJ-09PJ 12.343,61 2.468,72 0,00 0,00 0,00 0,00 0,00 2.105,00 16.917,33 2.150,92 2.544,79 0,00 0,00 4.695,71 12.221,62 31/10/2023
922 680600 ENZO JOSE FERES SOUZA JABER ASSESSOR PROMOTOR JUSTICA ARAÇUAÍ - COMARCA; ARACUAI-PJ-02PJ 0,00 0,00 8.810,89 0,00 0,00 0,00 0,00 2.105,00 10.915,89 876,95 1.709,37 0,00 0,00 2.586,32 8.329,57 31/10/2023
923 417300 ERIC BARATTI DA SILVA ANALISTA DO MP FRUTAL - COMARCA; FRUTAL-PJ-02PJ 13.588,97 2.717,79 0,00 0,00 0,00 0,00 0,00 3.055,00 19.361,76 2.390,03 2.942,14 0,00 0,00 5.332,17 14.029,59 31/10/2023
924 637600 ERIC DA ROCHA CHEHUEN ANALISTA DO MP LIMA DUARTE - COMARCA; LIMA DUARTE-PJ-UNPJ 11.577,56 1.157,76 0,00 0,00 0,00 0,00 0,00 2.105,00 14.840,32 982,16 2.347,16 0,00 0,00 3.329,32 11.511,00 31/10/2023
925 398900 ERIC TEIXEIRA SILVA OFICIAL DO MP UBERLÂNDIA - COMARCA; UBERLANDIA-PJ-SEC CIVEIS CRIMINAIS 12.343,61 3.703,08 0,00 0,00 0,00 0,00 0,00 2.105,00 18.151,69 2.348,42 2.882,06 0,00 0,00 5.230,48 12.921,21 31/10/2023
926 751300 ERIC VINICIUS PONTES ALLGAYER OFICIAL DO MP RIO VERMELHO - COMARCA; RIO VERMELHO-PJ-UNPJ 4.570,25 0,00 0,00 0,00 0,00 0,00 1.371,08 3.187,27 9.128,60 739,39 545,57 0,00 0,00 1.284,96 7.843,64 31/10/2023
927 754300 ERICA APARECIDA FERREIRA OFICIAL DO MP BARÃO DE COCAIS - COMARCA; BARAO DE COCAIS-PJ-UNPJ 4.570,25 0,00 0,00 0,00 0,00 0,00 1.371,08 3.187,27 9.128,60 739,39 545,57 0,00 0,00 1.284,96 7.843,64 31/10/2023
928 703600 ERICA CORDEIRO SANTOS ASSESSOR PROMOTOR JUSTICA MINAS NOVAS - COMARCA; MINAS NOVAS-PJ-UNPJ 0,00 0,00 8.810,89 0,00 0,00 0,00 0,00 2.105,00 10.915,89 876,95 1.709,37 0,00 0,00 2.586,32 8.329,57 31/10/2023
929 274200 ERICA DE SOUZA ANDRADE OFICIAL DO MP CURVELO - COMARCA; CURVELO-PJ-03PJ 15.447,01 6.178,80 0,00 0,00 0,00 0,00 3.369,65 2.778,23 27.773,69 3.575,76 4.601,90 0,00 0,00 8.177,66 19.596,03 31/10/2023
930 225700 ERICA GOMES DO COUTO OFICIAL DO MP BELO HORIZONTE - COMARCA; BH-21PJ TUTELA FUNDACOES-SECRETARIA 20.533,67 8.213,47 0,00 0,00 0,00 0,00 6.856,25 3.055,00 38.658,39 5.230,68 7.043,33 0,00 0,00 12.274,01 26.384,38 31/10/2023
931 632600 ERICA LEONOR MARTINS OFICIAL DO MP RESENDE COSTA - COMARCA; RESENDE COSTA-PJ-UNPJ 7.506,70 750,67 0,00 0,00 0,00 0,00 0,00 2.105,00 10.362,37 1.102,13 1.082,73 0,00 0,00 2.184,86 8.177,51 31/10/2023
932 524800 ERICA MACHADO DA COSTA E SOUZA ANALISTA DO MP BELO HORIZONTE - COMARCA; ASSESS TECNICO-JUR JUNTO AS PROC. DE JUST 14.960,00 2.992,00 0,00 0,00 0,00 0,00 670,00 2.105,00 20.727,00 2.653,27 3.322,19 0,00 0,00 5.975,46 14.751,54 31/10/2023
933 249500 ERICA RODRIGUES ANDRADE OFICIAL DO MP SÃO FRANCISCO - COMARCA; SAO FRANCISCO-PJ-02PJ 12.343,61 4.937,44 0,00 0,00 0,00 0,00 0,00 2.105,00 19.386,05 2.545,92 3.115,06 0,00 0,00 5.660,98 13.725,07 31/10/2023
934 260800 ERICA VIANA GIARDINI DE OLIVEIRA OFICIAL DO MP BELO HORIZONTE - COMARCA; DIRETORIA GESTAO COMPRAS LICITACOES 13.588,97 5.435,59 4.940,75 0,00 0,00 0,00 0,00 2.105,00 26.070,31 2.824,88 4.928,66 0,00 0,00 7.753,54 18.316,77 31/10/2023
935 299800 ERICH DOUGLAS RIBEIRO GARCIA ANALISTA DO MP BELO HORIZONTE - COMARCA; CENTRAL DE APOIO TECNICO-SETOR CONTABIL 23.070,31 6.921,09 0,00 0,00 0,00 0,00 6.239,23 3.353,34 39.583,97 5.257,39 7.081,88 0,00 0,00 12.339,27 27.244,70 31/10/2023
936 365000 ERICK EDUARDO JOSE DA SILVA OFICIAL DO MP JUIZ DE FORA - COMARCA; JUIZ DE FORA-PJ-12PJ 7.506,70 2.252,01 0,00 0,00 0,00 0,00 572,51 8.350,57 18.681,79 1.342,34 1.429,54 0,00 0,00 2.771,88 15.909,91 31/10/2023
937 227400 ERIKA DE LAET GOULART BOECHAT OFICIAL DO MP BELO HORIZONTE - COMARCA; BH-17PJ PATRIMONIO PUBLICO-SECRETARIA 20.533,67 8.213,47 0,00 0,00 849,92 0,00 11.047,86 4.097,78 44.742,70 5.865,33 8.141,20 0,00 0,00 14.006,53 30.736,17 31/10/2023
938 681301 ERIKA FERNANDA ELISEU FERREIRA ASSESSOR PROCURADOR JUSTICA BELO HORIZONTE - COMARCA; GABINETE DE PROCURADOR DE JUSTIÇA - SALA 411 0,00 0,00 8.810,89 0,00 0,00 0,00 0,00 2.105,00 10.915,89 876,95 1.709,37 0,00 0,00 2.586,32 8.329,57 31/10/2023
939 285100 ERIKA FERREIRA DA SILVA OFICIAL DO MP JUIZ DE FORA - COMARCA; JUIZ DE FORA-PJ-11PJ 12.343,61 3.703,08 0,00 0,00 0,00 0,00 0,00 2.105,00 18.151,69 2.348,42 2.882,06 0,00 0,00 5.230,48 12.921,21 31/10/2023
940 420100 ERIKA JEANINE VERSIANI DE CASTRO ANALISTA DO MP BELO HORIZONTE - COMARCA; CAO-EDUCACAO 18.720,84 3.744,17 0,00 0,00 0,00 0,00 0,00 2.105,00 24.570,01 3.375,35 4.364,70 0,00 0,00 7.740,05 16.829,96 31/10/2023
941 677100 ERIKA LAYS CARDOSO FERNANDES ASSESSOR PROMOTOR JUSTICA GRAO MOGOL - COMARCA; GRAO MOGOL-PJ-UNPJ 0,00 0,00 8.810,89 0,00 0,00 0,00 0,00 2.105,00 10.915,89 876,95 1.709,37 0,00 0,00 2.586,32 8.329,57 31/10/2023
942 606900 ERIKA MARIA BARBOSA ANALISTA DO MP BELO HORIZONTE - COMARCA; CAO-SAUDE 11.954,43 1.195,44 0,00 0,00 0,00 0,00 0,00 2.105,00 15.254,87 1.884,93 2.160,76 0,00 0,00 4.045,69 11.209,18 31/10/2023
943 491000 ERIKA ROCHA PEREIRA E SILVA COORDENADOR II BELO HORIZONTE - COMARCA; DIR GOVERNANCA TECNOLOGIA INFORMACAO 20.533,67 4.106,73 0,00 0,00 0,00 0,00 0,00 2.105,00 26.745,40 2.390,03 5.233,89 0,00 0,00 7.623,92 19.121,48 31/10/2023
944 283201 ERIKA STEHLING COORDENADOR I BELO HORIZONTE - COMARCA; CENTRAL DE APOIO TECNICO-SETOR DE ENGENHARIA 16.469,17 4.940,75 0,00 0,00 0,00 0,00 0,00 2.105,00 23.514,92 2.348,42 4.356,95 0,00 0,00 6.705,37 16.809,55 31/10/2023
945 254000 ERLANDIA DA SILVA MENDES OFICIAL DO MP IPATINGA - COMARCA; IPATINGA-PJ-03PJ 18.130,77 9.065,39 0,00 360,45 0,00 8.417,05 517,92 2.105,00 38.596,58 4.575,65 7.439,07 0,00 0,00 12.014,72 26.581,86 31/10/2023
946 348500 ERNILANDIA DE OLIVEIRA DIAS OFICIAL DO MP MONTES CLAROS - COMARCA; MONTES CLAROS-PJ-16PJ 12.343,61 3.703,08 0,00 0,00 0,00 0,00 0,00 2.105,00 18.151,69 2.348,42 2.882,06 0,00 0,00 5.230,48 12.921,21 31/10/2023
947 199300 ERTON PORTINARI DE ANDRADE OFICIAL DO MP SETE LAGOAS - COMARCA; SETE LAGOAS-PJ-05PJ 21.346,53 10.673,27 0,00 0,00 0,00 0,00 0,00 2.105,00 34.124,80 5.310,19 6.955,17 0,00 0,00 12.265,36 21.859,44 31/10/2023
948 618800 ESLY DE CARLA AYALLA BARBOSA MENDES OFICIAL DO MP NOVA LIMA - COMARCA; NOVA LIMA-PJ-SECRETARIA 7.506,70 750,67 0,00 0,00 0,00 0,00 0,00 2.105,00 10.362,37 1.102,13 1.082,73 0,00 0,00 2.184,86 8.177,51 31/10/2023
949 537000 ESTANISLAU CORREIA ALMEIDA JUNIOR OFICIAL DO MP UBERLÂNDIA - COMARCA; UBERLANDIA-PJ-25PJ 7.506,70 1.501,34 0,00 0,00 0,00 0,00 0,00 2.105,00 11.113,04 1.222,23 1.256,14 0,00 0,00 2.478,37 8.634,67 31/10/2023
950 692100 ESTEFANIA FARIA FERREIRA ASSESSOR PROCURADOR JUSTICA BELO HORIZONTE - COMARCA; GABINETE DE PROCURADOR DE JUSTIÇA - SALA 814 0,00 0,00 10.310,89 0,00 0,00 0,00 0,00 1.555,00 11.865,89 876,95 1.709,37 0,00 0,00 2.586,32 9.279,57 31/10/2023
951 326900 ESTER ALICE PIMENTA OFICIAL DO MP BELO HORIZONTE - COMARCA; COORD DE INCLUSAO E MOBILIZACAO SOCIAIS 12.343,61 3.703,08 0,00 0,00 0,00 0,00 0,00 2.105,00 18.151,69 2.348,42 2.882,06 0,00 0,00 5.230,48 12.921,21 31/10/2023
952 503700 ESTHER GONCALVES FONSECA ANALISTA DO MP BELO HORIZONTE - COMARCA; DIR CRIACAO E MIDIAS 12.343,61 2.468,72 0,00 0,00 0,00 0,00 0,00 2.105,00 16.917,33 2.150,92 2.596,93 0,00 0,00 4.747,85 12.169,48 31/10/2023
953 475600 ETIENE DE FATIMA OLIVEIRA PEREIRA ANALISTA DO MP PATROCÍNIO - COMARCA; PATROCINIO-PJ-04PJ 12.343,61 2.468,72 0,00 0,00 0,00 0,00 0,00 2.105,00 16.917,33 982,16 2.703,58 0,00 0,00 3.685,74 13.231,59 31/10/2023
954 428800 EUGENIA RODRIGUES TRAJANO BORGES ANALISTA DO MP UBERABA - COMARCA; UBERABA-PJ-10PJ 18.130,77 3.626,15 0,00 0,00 8.012,11 0,00 9.650,99 10.058,70 49.478,72 4.481,84 8.165,52 0,00 0,00 12.647,36 36.831,36 31/10/2023
955 272700 EUGENIO DE BARCELOS FILHO OFICIAL DO MP FRUTAL - COMARCA; FRUTAL-PJ-SECRETARIA 12.343,61 4.937,44 0,00 0,00 0,00 0,00 0,00 2.105,00 19.386,05 2.545,92 3.167,20 0,00 0,00 5.713,12 13.672,93 31/10/2023
956 254100 EULALIA ALVES MIRANDA LUCAS OFICIAL DO MP ALMENARA - COMARCA; ALMENARA-PJ-02PJ 17.559,01 8.779,51 0,00 0,00 805,20 0,00 4.808,95 2.105,00 34.057,67 4.764,54 6.487,50 0,00 0,00 11.252,04 22.805,63 31/10/2023
957 641200 EUNICE ELVIRA DA SILVA MATOS OFICIAL DO MP BELO HORIZONTE - COMARCA; BH-14PJ DEFESA CONSUMIDOR-SECRETARIA 6.818,83 681,88 0,00 0,00 0,00 0,00 0,00 2.105,00 9.605,71 981,10 907,93 0,00 0,00 1.889,03 7.716,68 31/10/2023
958 557900 EURIPEDES JOSUE PERES OFICIAL DO MP IBIÁ - COMARCA; IBIA-PJ-UNPJ 7.506,70 1.501,34 0,00 0,00 0,00 0,00 0,00 2.105,00 11.113,04 1.222,23 1.256,14 0,00 0,00 2.478,37 8.634,67 31/10/2023
959 225800 EURO CESAR VIEIRA BARBOSA ANALISTA DO MP BELO HORIZONTE - COMARCA; BH-17PJ PATRIMONIO PUBLICO-SECRETARIA 23.070,31 9.228,12 0,00 0,00 0,00 0,00 0,00 2.105,00 34.403,43 4.948,70 6.531,94 0,00 0,00 11.480,64 22.922,79 31/10/2023
960 199400 EUSTAQUIO ADAILTON LIMA E SILVA OFICIAL DO MP MONTES CLAROS - COMARCA; MONTES CLAROS-PJ-15PJ 21.346,53 14.942,57 0,00 0,00 0,00 0,00 0,00 2.105,00 38.394,10 5.587,20 7.401,65 0,00 0,00 12.988,85 25.405,25 31/10/2023
961 548000 EVA VILMA LEAO REIS JULIO OFICIAL DO MP BELO HORIZONTE - COMARCA; BH-07PJ 01 TRIBUNAL JURI-SECRETARIA 7.506,70 3.002,68 0,00 0,00 0,00 0,00 0,00 2.105,00 12.614,38 1.462,45 1.602,95 0,00 0,00 3.065,40 9.548,98 31/10/2023
962 517000 EVALDO SENA COSTA FILHO ANALISTA DO MP BELO HORIZONTE - COMARCA; BH-08PJ JUIZADO ESPECIAL 12.343,61 4.937,44 0,00 0,00 0,00 0,00 0,00 2.105,00 19.386,05 2.545,92 3.062,93 0,00 0,00 5.608,85 13.777,20 31/10/2023
963 217500 EVELANGE LEAO RABELO ASSESSOR ADMINISTRATIVO II BELO HORIZONTE - COMARCA; CAO-PESSOAS IDOSAS E PESSOAS COM DEFICIENCIA 0,00 3.002,68 7.506,70 0,00 0,00 0,00 539,48 7.990,25 19.039,11 876,95 2.176,46 0,00 0,00 3.053,41 15.985,70 31/10/2023
964 679600 EVERTON BARBOSA DA SILVA ASSESSOR PROCURADOR JUSTICA BELO HORIZONTE - COMARCA; GABINETE DE PROCURADOR DE JUSTIÇA - SALA 510 0,00 0,00 8.810,89 0,00 0,00 0,00 0,00 2.105,00 10.915,89 876,95 1.709,37 0,00 0,00 2.586,32 8.329,57 31/10/2023
965 540400 EVIE SARAMELLA DE RESENDE OFICIAL DO MP BARBACENA - COMARCA; BARBACENA-PJ-08PJ 7.506,70 1.501,34 0,00 0,00 0,00 0,00 0,00 2.105,00 11.113,04 1.222,23 1.256,14 0,00 0,00 2.478,37 8.634,67 31/10/2023
966 469000 EWERTON CARDOSO DE SA RODRIGUES ANALISTA DO MP CAMPO BELO - COMARCA; CAMPO BELO-PJ-02PJ 12.343,61 2.468,72 0,00 0,00 0,00 0,00 0,00 2.105,00 16.917,33 2.150,92 2.492,65 0,00 0,00 4.643,57 12.273,76 31/10/2023
967 368900 FABIANA BARBOSA SIQUEIRA OFICIAL DO MP BELO HORIZONTE - COMARCA; CAO-ORDEM ECONOMICA E TRIBUTARIA-SECRETARIA 14.960,00 4.488,00 0,00 0,00 0,00 0,00 0,00 2.105,00 21.553,00 2.892,63 3.615,63 0,00 0,00 6.508,26 15.044,74 31/10/2023
968 273800 FABIANA CARNEIRO AMORIM OFICIAL DO MP BELO HORIZONTE - COMARCA; BH-23PJ CIVEL-COORD ADM CIVEL 15.949,86 6.379,94 4.346,47 0,00 0,00 0,00 0,00 2.105,00 28.781,27 3.353,72 5.476,60 0,00 0,00 8.830,32 19.950,95 31/10/2023
969 519300 FABIANA DE OLIVEIRA LOUREIRO ANALISTA DO MP BELO HORIZONTE - COMARCA; BH-09PJ AUDITORIA MILITAR-SECRETARIA 12.343,61 2.468,72 0,00 0,00 0,00 0,00 0,00 2.105,00 16.917,33 2.150,92 2.596,93 0,00 0,00 4.747,85 12.169,48 31/10/2023
970 363400 FABIANA DOURADO DUPIN VIEGAS ANALISTA DO MP BELO HORIZONTE - COMARCA; GABINETE DE PROCURADOR DE JUSTIÇA - SALA 705 22.191,68 6.657,50 0,00 0,00 0,00 0,00 135,88 2.105,00 31.090,06 4.396,82 5.787,30 0,00 0,00 10.184,12 20.905,94 31/10/2023
971 410800 FABIANA DUARTE QUITITE ANALISTA DO MP BELO HORIZONTE - COMARCA; BH-15PJ M AMB PAT HIST CULT-GAB 116PJ 18.720,84 3.744,17 0,00 0,00 0,00 0,00 0,00 2.105,00 24.570,01 3.375,35 4.364,70 0,00 0,00 7.740,05 16.829,96 31/10/2023
972 419500 FABIANA EULALIA DOS SANTOS ANALISTA DO MP SÃO JOÃO DEL REI - COMARCA; SAO JOAO DEL REI-PJ-01PJ 18.720,84 3.744,17 0,00 0,00 0,00 0,00 0,00 2.105,00 24.570,01 3.375,35 4.364,70 0,00 0,00 7.740,05 16.829,96 31/10/2023
973 725200 FABIANA LOPES DE JESUS ASSESSOR PROMOTOR JUSTICA CONTAGEM - COMARCA; CONTAGEM-PJ-01PJ 0,00 0,00 8.810,89 0,00 0,00 0,00 0,00 2.105,00 10.915,89 876,95 1.709,37 0,00 0,00 2.586,32 8.329,57 31/10/2023
974 700300 FABIANA MARCIA DE SOUZA ASSESSOR ADMINISTRATIVO II BELO HORIZONTE - COMARCA; DIRET DE CONTROLE E DE MANUTENCAO DE IMOVEIS 0,00 0,00 7.506,70 0,00 0,00 0,00 0,00 2.105,00 9.611,70 876,95 1.350,72 0,00 0,00 2.227,67 7.384,03 31/10/2023
975 331500 FABIANA PACHECO OFICIAL DO MP GUAXUPÉ - COMARCA; GUAXUPE-PJ-01PJ 12.343,61 3.703,08 0,00 0,00 0,00 0,00 0,00 3.055,00 19.101,69 2.348,42 2.777,79 0,00 0,00 5.126,21 13.975,48 31/10/2023
976 510700 FABIANA PEREIRA SANTOS BORGES ANALISTA DO MP BELO HORIZONTE - COMARCA; DIRETORIA DE SISTEMAS DE INFORMACAO 12.343,61 2.468,72 5.538,92 0,00 6.783,75 0,00 0,00 2.105,00 29.240,00 2.150,92 5.933,52 0,00 0,00 8.084,44 21.155,56 31/10/2023
977 749400 FABIANA SANTOS DE OLIVEIRA CARVALHO ASSESSOR ADMINISTRATIVO I BELO HORIZONTE - COMARCA; CAO-CRIANCAS E ADOLESCENTES-ASS TECNICA 0,00 0,00 4.872,71 0,00 0,00 0,00 0,00 2.105,00 6.977,71 718,08 670,06 0,00 0,00 1.388,14 5.589,57 31/10/2023
978 181700 FABIANA SOUZA FERREIRA OFICIAL DO MP BELO HORIZONTE - COMARCA; BH-19PJ SAUDE-SECRETARIA 150PJ 7.506,70 3.002,68 0,00 0,00 0,00 0,00 0,00 2.105,00 12.614,38 1.462,45 1.498,67 0,00 0,00 2.961,12 9.653,26 31/10/2023
979 272900 FABIANA STOCKLER LEITE OFICIAL DO MP LAJINHA - COMARCA; LAJINHA-PJ-SECRETARIA 12.343,61 6.171,81 0,00 0,00 0,00 0,00 0,00 2.105,00 20.620,42 2.743,42 3.400,20 0,00 0,00 6.143,62 14.476,80 31/10/2023
980 225500 FABIANE DE FATIMA PORTELLA ANALISTA DO MP BELO HORIZONTE - COMARCA; BH-18PJ DIREITOS HUMANOS-SECRETARIA 23.070,31 9.228,12 0,00 0,00 0,00 0,00 6.413,42 2.105,00 40.816,85 5.662,03 7.666,09 0,00 0,00 13.328,12 27.488,73 31/10/2023
981 433800 FABIANE DINIZ MATTOS ANALISTA DO MP BELO HORIZONTE - COMARCA; BH-23PJ INFRACIONAL-ASS JURIDICA 18.720,84 3.744,17 0,00 0,00 0,00 0,00 3.960,26 9.396,60 35.821,87 3.929,91 5.165,35 0,00 0,00 9.095,26 26.726,61 31/10/2023
982 455000 FABIANO CARVALHO DA SILVA ANALISTA DO MP LAVRAS - COMARCA; LAVRAS-PJ-05PJ 12.343,61 2.468,72 0,00 0,00 0,00 0,00 0,00 2.105,00 16.917,33 2.150,92 2.596,93 0,00 0,00 4.747,85 12.169,48 31/10/2023
983 498800 FABIANO FURTADO PESSOA COELHO ANALISTA DO MP BELO HORIZONTE - COMARCA; DIRETORIA DE REDES E BANCOS DE DADOS 12.343,61 2.468,72 0,00 0,00 0,00 0,00 0,00 2.105,00 16.917,33 2.150,92 2.492,65 0,00 0,00 4.643,57 12.273,76 31/10/2023
984 663000 FABIANO MARQUES CORREA ASSESSOR ADMINISTRATIVO II BELO HORIZONTE - COMARCA; DIRETORIA DE SUPORTE E MANUTENCAO 0,00 0,00 7.506,70 0,00 2.502,23 0,00 0,00 2.105,00 12.113,93 876,95 2.038,83 0,00 0,00 2.915,78 9.198,15 31/10/2023
985 394600 FABIANO PALHARES SILVA ANALISTA DO MP BELO HORIZONTE - COMARCA; CENTRAL DE APOIO TECN-SETOR DE MEIO AMBIENTE 20.533,67 6.160,10 0,00 0,00 0,00 0,00 0,00 2.105,00 28.798,77 4.051,95 5.289,40 0,00 0,00 9.341,35 19.457,42 31/10/2023
986 676600 FABIANO RESENDE VELOSO ASSESSOR PROCURADOR JUSTICA BELO HORIZONTE - COMARCA; GABINETE DE PROCURADOR DE JUSTIÇA - SALA 1002 0,00 0,00 8.810,89 0,00 2.936,96 0,00 0,00 2.105,00 13.852,85 876,95 2.517,04 0,00 0,00 3.393,99 10.458,86 31/10/2023
987 444400 FABIANO SARAIVA MEDEIROS ANALISTA DO MP BETIM - COMARCA; BETIM-PJ-11PJ 18.130,77 3.626,15 0,00 0,00 0,00 0,00 5.939,78 2.801,02 30.497,72 3.991,46 5.149,94 0,00 0,00 9.141,40 21.356,32 31/10/2023
988 408700 FABIANO SOARES PORTILHO ANALISTA DO MP JUIZ DE FORA - COMARCA; GAECO REGIONAL DA ZONA DA MATA-JUIZ DE FORA 18.720,84 3.744,17 0,00 0,00 0,00 0,00 0,00 2.105,00 24.570,01 3.375,35 4.364,70 0,00 0,00 7.740,05 16.829,96 31/10/2023
989 442600 FABIO CARVALHO VIEIRA ANALISTA DO MP MONTES CLAROS - COMARCA; MONTES CLAROS-PJ-06PJ 12.343,61 2.468,72 0,00 0,00 0,00 0,00 0,00 2.105,00 16.917,33 2.150,92 2.596,93 0,00 0,00 4.747,85 12.169,48 31/10/2023
990 716601 FABIO DAMASCENA MONTEIRO DE CARVALHO OFICIAL DO MP JACINTO - COMARCA; JACINTO-PJ-UNPJ 4.570,25 0,00 0,00 0,00 0,00 0,00 1.371,08 3.187,27 9.128,60 739,39 545,57 0,00 0,00 1.284,96 7.843,64 31/10/2023
991 702700 FABIO JUNIOR COSTA BARREIROS ASSESSOR ADMINISTRATIVO II BELO HORIZONTE - COMARCA; DIVISAO DE MANUTENCAO PREDIAL 0,00 0,00 7.506,70 0,00 0,00 0,00 0,00 3.055,00 10.561,70 876,95 903,70 0,00 0,00 1.780,65 8.781,05 31/10/2023
992 240101 FABIO JUNQUEIRA DE ASSIS FONSECA OFICIAL DO MP BELO HORIZONTE - COMARCA; BH-17PJ PATRIMONIO PUBLICO-SECRETARIA 10.341,72 3.102,52 0,00 0,00 0,00 0,00 0,00 2.105,00 15.549,24 1.932,03 2.280,90 0,00 0,00 4.212,93 11.336,31 31/10/2023
993 271500 FABIO LUIZ VIEIRA OFICIAL DO MP SANTA VITÓRIA - COMARCA; SANTA VITORIA-PJ-UNPJ 12.343,61 4.937,44 0,00 0,00 0,00 0,00 0,00 2.150,81 19.431,86 2.545,92 3.115,06 0,00 0,00 5.660,98 13.770,88 31/10/2023
994 213100 FABIO PRATES GONCALVES ASSESSOR ADMINISTRATIVO IV BELO HORIZONTE - COMARCA; DIR RELACOES INSTITUCIONAIS 0,00 5.795,29 14.488,22 0,00 0,00 0,00 0,00 2.105,00 22.388,51 876,95 4.707,93 0,00 0,00 5.584,88 16.803,63 31/10/2023
995 436700 FABIO SANTIAGO DE CARVALHO OFICIAL DO MP POÇO FUNDO - COMARCA; POCO FUNDO-PJ-UNPJ 12.343,61 2.468,72 0,00 0,00 0,00 0,00 0,00 2.105,00 16.917,33 2.150,92 2.596,93 0,00 0,00 4.747,85 12.169,48 31/10/2023
996 208400 FABIOLA DE SOUSA CARDOSO ANALISTA DO MP BELO HORIZONTE - COMARCA; CGMP-DIR ESTAGIO PROBATORIO E ORIENT 23.070,31 9.228,12 6.160,10 0,00 0,00 0,00 0,00 2.105,00 40.563,53 4.948,70 8.091,39 868,57 0,00 13.908,66 26.654,87 31/10/2023
997 392200 FABIOLA LEROY COSTA ANALISTA DO MP ESMERALDAS - COMARCA; ESMERALDAS-PJ-01PJ 12.343,61 3.703,08 0,00 0,00 0,00 0,00 0,00 4.005,00 20.051,69 2.348,42 2.882,06 0,00 0,00 5.230,48 14.821,21 31/10/2023
998 409000 FABIOLA MONTEIRO DE CARVALHO CASTRO ANALISTA DO MP BOM SUCESSO - COMARCA; BOM SUCESSO-PJ-UNPJ 15.949,86 3.189,97 0,00 0,00 0,00 0,00 0,00 2.105,00 21.244,83 2.843,32 3.596,58 0,00 0,00 6.439,90 14.804,93 31/10/2023
999 525800 FABRICIA ALVES DANTAS OFICIAL DO MP MONTES CLAROS - COMARCA; MONTES CLAROS-PJ-01PJ 10.516,49 2.103,30 0,00 0,00 0,00 0,00 0,00 2.105,00 14.724,79 1.800,11 2.038,31 0,00 0,00 3.838,42 10.886,37 31/10/2023
1000 263400 FABRICIA PINTO TEIXEIRA SANTIAGO OFICIAL DO MP BELO HORIZONTE - COMARCA; CAO-FUNDACOES-SECRETARIA 18.130,77 7.252,31 0,00 0,00 73,76 0,00 9.016,24 4.179,26 38.652,34 5.027,53 6.666,04 0,00 0,00 11.693,57 26.958,77 31/10/2023
1001 420800 FABRICIO BERNARDES DE OLIVEIRA OFICIAL DO MP ITURAMA - COMARCA; ITURAMA-PJ-02PJ 12.343,61 2.468,72 0,00 0,00 0,00 0,00 0,00 3.055,00 17.867,33 2.150,92 2.544,79 0,00 0,00 4.695,71 13.171,62 31/10/2023
1002 474000 FABRICIO DE FREITAS SALES ANALISTA DO MP MONTES CLAROS - COMARCA; COORD REG DEF ORDEM ECON TRIB MONTES CLAROS 12.343,61 2.468,72 0,00 0,00 0,00 0,00 0,00 2.105,00 16.917,33 2.150,92 2.596,93 0,00 0,00 4.747,85 12.169,48 31/10/2023
1003 510100 FABRICIO FURTADO ASSIS DO CARMO ANALISTA DO MP BELO HORIZONTE - COMARCA; SERVICO MEDICO-DEPTO PERIC MEDICA SAUDE OCUP 12.343,61 2.468,72 0,00 0,00 0,00 0,00 1.181,10 4.005,00 19.998,43 2.150,92 2.921,73 0,00 0,00 5.072,65 14.925,78 31/10/2023
1004 519600 FABRICIO GONTIJO SALVATI ANALISTA DO MP BELO HORIZONTE - COMARCA; CENTRAL DE APOIO TECNICO-SETOR CONTABIL 12.343,61 2.468,72 0,00 0,00 0,00 0,00 0,00 2.105,00 16.917,33 2.150,92 2.596,93 0,00 0,00 4.747,85 12.169,48 31/10/2023
1005 637400 FABRICIO HENRIQUE DA SILVA PASSOS ANALISTA DO MP BELO HORIZONTE - COMARCA; DIR CRIACAO E MIDIAS 12.343,61 1.234,36 4.020,58 0,00 0,00 0,00 0,00 2.105,00 19.703,55 1.953,42 3.417,45 0,00 0,00 5.370,87 14.332,68 31/10/2023
1006 428200 FABRICIO ORZIL VIANA ANALISTA DO MP SANTA LUZIA - COMARCA; SANTA LUZIA-PJ-04PJ 12.343,61 2.468,72 0,00 0,00 0,00 0,00 0,00 3.055,00 17.867,33 2.150,92 2.596,93 0,00 0,00 4.747,85 13.119,48 31/10/2023
1007 455600 FABRICIO PAIVA DA ROCHA ANALISTA DO MP SÃO JOÃO DEL REI - COMARCA; SAO JOAO DEL REI-PJ-06PJ 12.343,61 2.468,72 0,00 0,00 0,00 0,00 0,00 3.055,00 17.867,33 2.150,92 2.544,79 0,00 0,00 4.695,71 13.171,62 31/10/2023
1008 511500 FABRICIO RENE CARDOSO DE PADUA ANALISTA DO MP SÃO SEBASTIÃO DO PARAÍSO - COMARCA; SAO SEBASTIAO DO PARAISO-PJ-03PJ 12.343,61 2.468,72 0,00 0,00 0,00 0,00 0,00 2.105,00 16.917,33 2.150,92 2.596,93 0,00 0,00 4.747,85 12.169,48 31/10/2023
1009 496100 FABRICIO RESENDE GONCALVES OFICIAL DO MP ENTRE-RIOS DE MINAS - COMARCA; ENTRE RIOS DE MINAS-PJ-UNPJ 10.516,49 2.103,30 0,00 0,00 4.206,60 0,00 0,00 2.105,00 18.931,39 1.800,11 3.247,27 0,00 0,00 5.047,38 13.884,01 31/10/2023
1010 650300 FABRICIO ROBERTO AZEVEDO OFICIAL DO MP NOVA SERRANA - COMARCA; NOVA SERRANA-PJ-04PJ 7.270,07 727,01 0,00 0,00 0,00 0,00 0,00 2.105,00 10.102,08 1.060,48 1.022,61 0,00 0,00 2.083,09 8.018,99 31/10/2023
1011 514900 FADUA MARIA DRUMOND CHEQUER ANALISTA DO MP BETIM - COMARCA; BETIM-PJ-12PJ 12.343,61 2.468,72 0,00 0,00 0,00 0,00 0,00 2.105,00 16.917,33 2.150,92 2.492,65 0,00 0,00 4.643,57 12.273,76 31/10/2023
1012 282500 FANNY FERREIRA MELO OFICIAL DO MP ARAXÁ - COMARCA; ARAXA-PJ-03PJ 13.588,97 4.076,69 0,00 0,00 0,00 0,00 0,00 2.105,00 19.770,66 2.607,45 3.256,05 0,00 0,00 5.863,50 13.907,16 31/10/2023
1013 692500 FARID JUNIOR NUNES DA SILVA ASSESSOR PROCURADOR JUSTICA BELO HORIZONTE - COMARCA; GABINETE DE PROCURADOR DE JUSTIÇA - SALA 912 0,00 0,00 8.810,89 0,00 0,00 0,00 0,00 2.105,00 10.915,89 876,95 1.605,10 0,00 0,00 2.482,05 8.433,84 31/10/2023
1014 744000 FARLEY LOPES DE ALCANTARA OFICIAL DO MP RIBEIRÃO DAS NEVES - COMARCA; RIBEIRAO DAS NEVES-PJ-SEC CIVEL 4.570,25 0,00 0,00 0,00 0,00 0,00 0,00 3.055,00 7.625,25 526,88 257,78 0,00 0,00 784,66 6.840,59 31/10/2023
1015 382800 FATIMA DE OLIVEIRA COELHO E SILVA OFICIAL DO MP BELO HORIZONTE - COMARCA; DIRETORIA DE ADMINISTRACAO FINANCEIRA 12.343,61 4.937,44 4.020,58 0,00 0,00 0,00 0,00 2.105,00 23.406,63 2.545,92 4.220,72 0,00 0,00 6.766,64 16.639,99 31/10/2023
1016 398601 FELIPE ANTONIO HORTA DE PAULA ANALISTA DO MP BELO HORIZONTE - COMARCA; PROC. JUSTICA DIR. DIFUSOS E COLETIVOS-SEC 12.343,61 3.209,34 0,00 0,00 0,00 0,00 0,00 2.105,00 17.657,95 2.269,42 2.768,01 0,00 0,00 5.037,43 12.620,52 31/10/2023
1017 430900 FELIPE BOY VIEIRA ANALISTA DO MP BELO HORIZONTE - COMARCA; DIRETORIA DE SEGURANCA 17.559,01 3.511,80 6.160,10 0,00 0,00 0,00 0,00 2.105,00 29.335,91 982,16 5.926,65 0,00 0,00 6.908,81 22.427,10 31/10/2023
1018 631700 FELIPE DE MORAIS SIMOES COELHO ANALISTA DO MP BELO HORIZONTE - COMARCA; BH-18PJ VIOLENCIA DOMESTICA-SECRETARIA 11.577,56 1.157,76 0,00 0,00 0,00 0,00 0,00 2.105,00 14.840,32 1.818,60 2.117,14 0,00 0,00 3.935,74 10.904,58 31/10/2023
1019 549100 FELIPE FERNANDES ALVIM ANALISTA DO MP LAJINHA - COMARCA; LAJINHA-PJ-UNPJ 12.343,61 2.468,72 0,00 0,00 0,00 0,00 0,00 3.055,00 17.867,33 2.150,92 2.596,93 0,00 0,00 4.747,85 13.119,48 31/10/2023
1020 693100 FELIPE FROIS DO AMARAL ASSESSOR PROMOTOR JUSTICA RIBEIRÃO DAS NEVES - COMARCA; RIBEIRAO NEVES-SEC PJ EXECUCAO PENAL 0,00 0,00 8.810,89 0,00 0,00 0,00 0,00 2.105,00 10.915,89 876,95 1.657,24 0,00 0,00 2.534,19 8.381,70 31/10/2023
1021 620100 FELIPE GOMES DE AZEVEDO OFICIAL DO MP BELO HORIZONTE - COMARCA; DIVISAO DE SERVICOS 7.506,70 750,67 4.020,58 0,00 0,00 0,00 0,00 2.105,00 14.382,95 1.102,13 2.188,39 0,00 0,00 3.290,52 11.092,43 31/10/2023
1022 601600 FELIPE RODRIGUES DE SIQUEIRA ANALISTA DO MP BELO HORIZONTE - COMARCA; BH-02PJ FAMILIA-SECRETARIA 12.343,61 2.468,72 0,00 0,00 0,00 0,00 1.234,36 2.105,00 18.151,69 982,16 2.646,06 0,00 0,00 3.628,22 14.523,47 31/10/2023
1023 628900 FELIX FERNANDO JUNIO VIEIRA ANALISTA DO MP BELO HORIZONTE - COMARCA; BH-21PJ TUTELA DAS FUNDACOES-ASS CURADORES 12.343,61 1.974,98 0,00 0,00 0,00 0,00 0,00 3.055,00 17.373,59 2.071,92 2.378,60 0,00 0,00 4.450,52 12.923,07 31/10/2023
1024 544500 FELLIPE LEMOS MARCONDES BUENO ANALISTA DO MP SÃO SEBASTIÃO DO PARAÍSO - COMARCA; SAO SEBASTIAO DO PARAISO-PJ-04PJ 12.343,61 2.468,72 0,00 0,00 0,00 0,00 0,00 2.105,00 16.917,33 2.150,92 2.596,93 0,00 0,00 4.747,85 12.169,48 31/10/2023
1025 688500 FELLIPE TADEU DE ANDRADE RAMOS ASSESSOR PROCURADOR JUSTICA BELO HORIZONTE - COMARCA; GABINETE DE PROCURADOR DE JUSTIÇA - SALA 907 0,00 0,00 8.810,89 0,00 0,00 0,00 0,00 2.105,00 10.915,89 876,95 1.709,37 0,00 0,00 2.586,32 8.329,57 31/10/2023
1026 612600 FERNANDA ADRIANA DE PAULA GUIDO ANALISTA DO MP BELO HORIZONTE - COMARCA; CENT ESTAD COOPERACAO TECNICO-JURIDICA 12.343,61 1.234,36 0,00 0,00 0,00 0,00 0,00 3.055,00 16.632,97 1.953,42 2.311,79 0,00 0,00 4.265,21 12.367,76 31/10/2023
1027 508400 FERNANDA AGANETTI MATTOS DE OLIVEIRA ANALISTA DO MP BELO HORIZONTE - COMARCA; CENT ESTAD COOPERACAO TECNICO-JURIDICA 12.343,61 2.468,72 0,00 0,00 0,00 0,00 0,00 4.005,00 18.817,33 982,16 2.918,34 0,00 0,00 3.900,50 14.916,83 31/10/2023
1028 453600 FERNANDA ALBERNAZ RABELO ANALISTA DO MP BELO HORIZONTE - COMARCA; GABINETE DE PROCURADOR DE JUSTIÇA - SALA 616 12.343,61 2.468,72 0,00 0,00 0,00 0,00 0,00 3.055,00 17.867,33 2.150,92 2.596,93 0,00 0,00 4.747,85 13.119,48 31/10/2023
1029 255600 FERNANDA ALINA DE ALMEIDA ANDRADE OFICIAL DO MP BELO HORIZONTE - COMARCA; SUPER DE GESTAO DE PESSOAS-LOTACAO TEMPORARIA 12.343,61 4.937,44 0,00 0,00 0,00 0,00 0,00 2.105,00 19.386,05 2.545,92 3.167,20 0,00 0,00 5.713,12 13.672,93 31/10/2023
1030 443200 FERNANDA ALMEIDA LOPES ANALISTA DO MP CONTAGEM - COMARCA; CONTAGEM-PJ-10PJ 18.130,77 3.626,15 0,00 0,00 759,80 0,00 10.121,62 4.187,35 36.825,69 4.662,79 6.328,11 0,00 0,00 10.990,90 25.834,79 31/10/2023
1031 281100 FERNANDA ANANIAS MEIRA ANALISTA DO MP BELO HORIZONTE - COMARCA; BH-23PJ INFRACIONAL-ASS JURIDICA 23.070,31 6.921,09 0,00 0,00 0,00 0,00 11.293,17 3.353,34 44.637,91 6.049,78 8.225,90 0,00 0,00 14.275,68 30.362,23 31/10/2023
1032 539000 FERNANDA BARBOSA ALVES ANALISTA DO MP UBERLÂNDIA - COMARCA; GAECO REGIONAL DE UBERLANDIA 12.343,61 2.468,72 0,00 0,00 0,00 0,00 0,00 3.055,00 17.867,33 2.150,92 2.596,93 0,00 0,00 4.747,85 13.119,48 31/10/2023
1033 451200 FERNANDA BLOISE PRADO OFICIAL DO MP BELO HORIZONTE - COMARCA; GAECO - SECRETARIA 11.577,56 2.315,51 0,00 0,00 0,00 0,00 0,00 2.105,00 15.998,07 2.003,84 2.384,58 0,00 0,00 4.388,42 11.609,65 31/10/2023
1034 427900 FERNANDA BRAGA CARNEIRO BICALHO ANALISTA DO MP PEÇANHA - COMARCA; PECANHA-PJ-SECRETARIA 12.343,61 2.468,72 0,00 0,00 0,00 0,00 0,00 2.105,00 16.917,33 2.150,92 2.544,79 0,00 0,00 4.695,71 12.221,62 31/10/2023
1035 507100 FERNANDA CABRINI VAZ MOTA ANALISTA DO MP BELO HORIZONTE - COMARCA; DIVISAO DE MATERIAIS 12.343,61 2.468,72 4.020,58 0,00 0,00 0,00 0,00 4.005,00 22.837,91 982,16 3.873,33 0,00 0,00 4.855,49 17.982,42 31/10/2023
1036 259800 FERNANDA CALZAVARA DE SOUSA OFICIAL DO MP BELO HORIZONTE - COMARCA; DIRET DE INFORMACAO E CONHECIMENTO-DINC/CEAF 18.130,77 7.252,31 6.160,10 0,00 2.078,38 0,00 14.815,77 5.050,42 53.487,75 5.447,20 10.302,41 0,00 0,00 15.749,61 37.738,14 31/10/2023
1037 494400 FERNANDA CAMPOS BARATA OFICIAL DO MP JUIZ DE FORA - COMARCA; JUIZ DE FORA-PJ-08PJ 7.506,70 1.501,34 0,00 0,00 0,00 0,00 0,00 2.105,00 11.113,04 1.222,23 1.256,14 0,00 0,00 2.478,37 8.634,67 31/10/2023
1038 555600 FERNANDA CAROLINE RIBEIRO ANALISTA DO MP BELO HORIZONTE - COMARCA; DIRETORIA GESTAO CONTRATOS CONVENIOS 12.343,61 2.468,72 0,00 0,00 0,00 0,00 0,00 2.105,00 16.917,33 2.150,92 2.596,93 0,00 0,00 4.747,85 12.169,48 31/10/2023
1039 692000 FERNANDA CESAR SILVA ASSESSOR PROCURADOR JUSTICA BELO HORIZONTE - COMARCA; GABINETE DE PROCURADOR DE JUSTIÇA - SALA 809 0,00 0,00 8.810,89 0,00 0,00 0,00 0,00 2.105,00 10.915,89 876,95 1.709,37 0,00 0,00 2.586,32 8.329,57 31/10/2023
1040 294500 FERNANDA COSTA FLORES OFICIAL DO MP PARÁ DE MINAS - COMARCA; PARA DE MINAS-PJ-04PJ 13.588,97 4.076,69 0,00 0,00 0,00 0,00 0,00 2.105,00 19.770,66 2.607,45 3.256,05 0,00 0,00 5.863,50 13.907,16 31/10/2023
1041 344500 FERNANDA CRISTINA DE SOUZA PAZ ASSESSOR ADMINISTRATIVO II BELO HORIZONTE - COMARCA; CENTRAL DE APOIO TECN-SETOR DE MEIO AMBIENTE 0,00 0,00 7.506,70 0,00 0,00 0,00 0,00 2.105,00 9.611,70 876,95 1.246,45 0,00 0,00 2.123,40 7.488,30 31/10/2023
1042 538100 FERNANDA CRISTINA DOS SANTOS ROSA OFICIAL DO MP BELO HORIZONTE - COMARCA; DIVISAO DE SERVICOS 7.506,70 3.002,68 0,00 0,00 0,00 0,00 0,00 2.105,00 12.614,38 1.462,45 1.602,95 0,00 0,00 3.065,40 9.548,98 31/10/2023
1043 337800 FERNANDA CRISTINA ROLAND CLIMACO MENDES OFICIAL DO MP BELO HORIZONTE - COMARCA; DIRETORIA DE PAGAMENTO DE PESSOAL-DPAG 15.949,86 4.784,96 6.160,10 0,00 0,00 0,00